LA METEO DE GRANDFRESNOY - OISE - (60) - ALT.75 m
Donnes mto: Actuelle vendredi, 19/07/2019 18:55
Date Horaire Temp. E. Hum. E. P.atmo. Pluie Vent Direction Direction Ensoleilleme Horaire Temp Ev.Tr. UV Ray;solaire P. de rose Temp au vent Rafales Rception
19/07/2019 18:55 26,4 C 52 % 1012,6 hPa 0,0 mm 7,5 km/h (2 Bft) O-SO 240 0 min 0 min 0,000 mm 0,7 UV-I 172 W/m 15,7 C 26,2 C 8,9 km/h (2 Bft) 96,00 %
19/07/2019 18:54 26,4 C 52 % 1012,5 hPa 0,0 mm 5,8 km/h (2 Bft) SO 234 0 min 0 min 0,000 mm 0,7 UV-I 174 W/m 15,7 C 26,4 C 8,9 km/h (2 Bft) 90,91 %
19/07/2019 18:53 26,4 C 51 % 1012,5 hPa 0,0 mm 3,6 km/h (1 Bft) SO 232 0 min 0 min 0,000 mm 0,7 UV-I 179 W/m 15,4 C 26,4 C 7,1 km/h (2 Bft) 100,00 %
19/07/2019 18:52 26,4 C 51 % 1012,5 hPa 0,0 mm 6,0 km/h (2 Bft) S-SO 206 0 min 0 min 0,000 mm 0,7 UV-I 177 W/m 15,4 C 26,4 C 8,9 km/h (2 Bft) 95,65 %
19/07/2019 18:51 26,4 C 52 % 1012,5 hPa 0,0 mm 5,8 km/h (2 Bft) O-SO 258 0 min 0 min 0,000 mm 0,7 UV-I 168 W/m 15,7 C 26,4 C 7,1 km/h (2 Bft) 100,00 %
19/07/2019 18:50 26,4 C 52 % 1012,5 hPa 0,0 mm 4,3 km/h (1 Bft) O 260 0 min 0 min 0,000 mm 0,7 UV-I 168 W/m 15,7 C 26,4 C 5,3 km/h (1 Bft) 100,00 %
19/07/2019 18:49 26,4 C 51 % 1012,5 hPa 0,0 mm 8,6 km/h (2 Bft) O-SO 242 0 min 0 min 0,000 mm 0,7 UV-I 171 W/m 15,4 C 26,0 C 12,4 km/h (2 Bft) 95,83 %
19/07/2019 18:48 26,3 C 51 % 1012,5 hPa 0,0 mm 8,5 km/h (2 Bft) O-SO 250 0 min 0 min 0,000 mm 0,7 UV-I 173 W/m 15,3 C 25,9 C 12,4 km/h (2 Bft) 100,00 %
19/07/2019 18:47 26,3 C 53 % 1012,5 hPa 0,0 mm 10,0 km/h (2 Bft) SO 233 0 min 0 min 0,000 mm 0,7 UV-I 172 W/m 15,9 C 25,6 C 14,2 km/h (3 Bft) 94,12 %
19/07/2019 18:46 26,3 C 52 % 1012,5 hPa 0,0 mm 7,2 km/h (2 Bft) O-SO 240 0 min 0 min 0,000 mm 0,7 UV-I 178 W/m 15,6 C 26,1 C 10,6 km/h (2 Bft) 100,00 %
19/07/2019 18:45 26,3 C 52 % 1012,6 hPa 0,0 mm 10,9 km/h (2 Bft) S-SO 208 0 min 0 min 0,000 mm 0,8 UV-I 184 W/m 15,6 C 25,5 C 15,9 km/h (3 Bft) 95,83 %
19/07/2019 18:44 26,3 C 53 % 1012,6 hPa 0,0 mm 5,8 km/h (2 Bft) SO 217 0 min 0 min 0,000 mm 0,8 UV-I 186 W/m 15,9 C 26,3 C 8,9 km/h (2 Bft) 96,67 %
19/07/2019 18:43 26,3 C 52 % 1012,5 hPa 0,0 mm 6,9 km/h (2 Bft) S-SO 200 0 min 0 min 0,000 mm 0,8 UV-I 189 W/m 15,6 C 26,2 C 8,9 km/h (2 Bft) 100,00 %
19/07/2019 18:42 26,4 C 52 % 1012,5 hPa 0,0 mm 5,6 km/h (2 Bft) O-SO 250 0 min 0 min 0,000 mm 0,8 UV-I 184 W/m 15,7 C 26,4 C 7,1 km/h (2 Bft) 100,00 %
19/07/2019 18:41 26,4 C 51 % 1012,6 hPa 0,0 mm 7,2 km/h (2 Bft) S-SO 196 0 min 0 min 0,000 mm 0,8 UV-I 189 W/m 15,4 C 26,2 C 14,2 km/h (3 Bft) 98,57 %
19/07/2019 18:39 26,3 C 52 % 1012,6 hPa 0,0 mm 7,8 km/h (2 Bft) O-SO 242 0 min 0 min 0,000 mm 0,8 UV-I 186 W/m 15,6 C 26,0 C 14,2 km/h (3 Bft) 100,00 %
19/07/2019 18:38 26,3 C 54 % 1012,6 hPa 0,0 mm 7,7 km/h (2 Bft) O 265 0 min 0 min 0,000 mm 0,8 UV-I 185 W/m 16,2 C 26,0 C 10,6 km/h (2 Bft) 100,00 %
19/07/2019 18:37 26,3 C 53 % 1012,6 hPa 0,0 mm 6,5 km/h (2 Bft) SO 234 0 min 0 min 0,000 mm 0,8 UV-I 181 W/m 15,9 C 26,3 C 8,9 km/h (2 Bft) 100,00 %
19/07/2019 18:36 26,4 C 52 % 1012,6 hPa 0,0 mm 6,9 km/h (2 Bft) S-SO 205 0 min 0 min 0,000 mm 0,8 UV-I 179 W/m 15,7 C 26,3 C 10,6 km/h (2 Bft) 96,00 %
19/07/2019 18:35 26,4 C 52 % 1012,6 hPa 0,0 mm 5,0 km/h (1 Bft) SO 233 0 min 0 min 0,000 mm 0,8 UV-I 183 W/m 15,7 C 26,4 C 8,9 km/h (2 Bft) 96,67 %
19/07/2019 18:34 26,5 C 52 % 1012,6 hPa 0,0 mm 3,9 km/h (1 Bft) S 178 0 min 0 min 0,000 mm 0,9 UV-I 186 W/m 15,8 C 26,5 C 7,1 km/h (2 Bft) 100,00 %
19/07/2019 18:33 26,5 C 53 % 1012,7 hPa 0,0 mm 5,7 km/h (2 Bft) SE 143 0 min 0 min 0,000 mm 0,9 UV-I 194 W/m 16,1 C 26,5 C 8,9 km/h (2 Bft) 100,00 %
19/07/2019 18:32 26,6 C 53 % 1012,7 hPa 0,0 mm 5,7 km/h (2 Bft) S-SE 150 0 min 0 min 0,000 mm 0,9 UV-I 189 W/m 16,2 C 26,6 C 7,1 km/h (2 Bft) 100,00 %
19/07/2019 18:31 26,6 C 52 % 1012,7 hPa 0,0 mm 7,6 km/h (2 Bft) S 188 0 min 0 min 0,000 mm 0,9 UV-I 185 W/m 15,9 C 26,4 C 12,4 km/h (2 Bft) 100,00 %
19/07/2019 18:30 26,7 C 51 % 1012,7 hPa 0,0 mm 4,5 km/h (1 Bft) SO 216 0 min 0 min 0,000 mm 0,9 UV-I 185 W/m 15,7 C 26,7 C 7,1 km/h (2 Bft) 100,00 %
19/07/2019 18:29 26,7 C 52 % 1012,7 hPa 0,0 mm 6,5 km/h (2 Bft) S 186 0 min 0 min 0,000 mm 0,9 UV-I 195 W/m 16,0 C 26,7 C 14,2 km/h (3 Bft) 100,00 %
19/07/2019 18:28 26,7 C 52 % 1012,7 hPa 0,0 mm 3,6 km/h (1 Bft) SO 225 0 min 0 min 0,000 mm 0,9 UV-I 212 W/m 16,0 C 26,7 C 5,3 km/h (1 Bft) 100,00 %
19/07/2019 18:27 26,7 C 52 % 1012,7 hPa 0,0 mm 3,7 km/h (1 Bft) SO 232 0 min 0 min 0,000 mm 1,0 UV-I 241 W/m 16,0 C 26,7 C 5,3 km/h (1 Bft) 100,00 %
19/07/2019 18:26 26,7 C 51 % 1012,7 hPa 0,0 mm 4,2 km/h (1 Bft) SO 224 0 min 0 min 0,000 mm 1,0 UV-I 244 W/m 15,7 C 26,7 C 7,1 km/h (2 Bft) 100,00 %
19/07/2019 18:25 26,7 C 52 % 1012,7 hPa 0,0 mm 4,4 km/h (1 Bft) S 180 1 min 0 min 0,000 mm 1,0 UV-I 279 W/m 16,0 C 26,7 C 7,1 km/h (2 Bft) 100,00 %
19/07/2019 18:24 26,7 C 52 % 1012,8 hPa 0,0 mm 5,7 km/h (2 Bft) O-SO 255 1 min 0 min 0,000 mm 1,1 UV-I 283 W/m 16,0 C 26,7 C 7,1 km/h (2 Bft) 100,00 %
19/07/2019 18:23 26,7 C 53 % 1012,7 hPa 0,0 mm 6,3 km/h (2 Bft) O-SO 238 0 min 0 min 0,000 mm 1,1 UV-I 266 W/m 16,3 C 26,7 C 7,1 km/h (2 Bft) 100,00 %
19/07/2019 18:22 26,7 C 52 % 1012,7 hPa 0,0 mm 8,5 km/h (2 Bft) O-SO 240 0 min 0 min 0,000 mm 1,0 UV-I 261 W/m 16,0 C 26,3 C 10,6 km/h (2 Bft) 100,00 %
19/07/2019 18:21 26,7 C 52 % 1012,7 hPa 0,0 mm 8,8 km/h (2 Bft) O 265 0 min 0 min 0,000 mm 1,1 UV-I 254 W/m 16,0 C 26,2 C 14,2 km/h (3 Bft) 100,00 %
19/07/2019 18:20 26,7 C 53 % 1012,7 hPa 0,0 mm 7,2 km/h (2 Bft) SO 222 0 min 0 min 0,000 mm 1,1 UV-I 246 W/m 16,3 C 26,5 C 8,9 km/h (2 Bft) 95,83 %
19/07/2019 18:19 26,8 C 52 % 1012,7 hPa 0,0 mm 10,4 km/h (2 Bft) SO 229 0 min 0 min 0,000 mm 1,1 UV-I 244 W/m 16,1 C 26,1 C 14,2 km/h (3 Bft) 96,30 %
19/07/2019 18:18 26,8 C 51 % 1012,7 hPa 0,0 mm 9,8 km/h (2 Bft) O 260 0 min 0 min 0,000 mm 1,1 UV-I 267 W/m 15,8 C 26,2 C 21,2 km/h (4 Bft) 100,00 %
19/07/2019 18:17 26,8 C 52 % 1012,8 hPa 0,0 mm 9,2 km/h (2 Bft) SO 234 0 min 0 min 0,000 mm 1,1 UV-I 280 W/m 16,1 C 26,3 C 14,2 km/h (3 Bft) 96,00 %
19/07/2019 18:16 26,8 C 51 % 1012,8 hPa 0,0 mm 12,8 km/h (3 Bft) O-SO 249 0 min 0 min 0,000 mm 1,1 UV-I 271 W/m 15,8 C 25,8 C 17,7 km/h (3 Bft) 100,00 %
19/07/2019 18:15 26,8 C 51 % 1012,8 hPa 0,0 mm 10,9 km/h (2 Bft) O-SO 243 0 min 0 min 0,000 mm 1,1 UV-I 271 W/m 15,8 C 26,0 C 19,5 km/h (3 Bft) 95,92 %
19/07/2019 18:13 26,7 C 51 % 1012,8 hPa 0,0 mm 4,9 km/h (1 Bft) O-SO 250 0 min 0 min 0,000 mm 1,1 UV-I 243 W/m 15,7 C 26,7 C 12,4 km/h (2 Bft) 96,43 %
19/07/2019 18:12 26,7 C 52 % 1012,8 hPa 0,0 mm 3,2 km/h (1 Bft) O-SO 250 0 min 0 min 0,000 mm 1,1 UV-I 238 W/m 16,0 C 26,7 C 5,3 km/h (1 Bft) 100,00 %
19/07/2019 18:11 26,8 C 54 % 1012,8 hPa 0,0 mm 3,3 km/h (1 Bft) S-SO 207 0 min 0 min 0,000 mm 1,1 UV-I 247 W/m 16,7 C 26,8 C 5,3 km/h (1 Bft) 96,67 %
19/07/2019 18:10 26,8 C 52 % 1012,8 hPa 0,0 mm 12,7 km/h (3 Bft) S-SO 207 0 min 0 min 0,000 mm 1,1 UV-I 244 W/m 16,1 C 25,8 C 15,9 km/h (3 Bft) 100,00 %
19/07/2019 18:09 26,8 C 52 % 1012,8 hPa 0,0 mm 8,9 km/h (2 Bft) SO 233 0 min 0 min 0,000 mm 1,2 UV-I 251 W/m 16,1 C 26,3 C 12,4 km/h (2 Bft) 100,00 %
19/07/2019 18:08 26,8 C 52 % 1012,8 hPa 0,0 mm 7,7 km/h (2 Bft) O 276 0 min 0 min 0,000 mm 1,2 UV-I 280 W/m 16,1 C 26,5 C 12,4 km/h (2 Bft) 100,00 %
19/07/2019 18:07 26,8 C 51 % 1012,8 hPa 0,0 mm 5,6 km/h (2 Bft) O-SO 240 1 min 0 min 0,000 mm 1,2 UV-I 303 W/m 15,8 C 26,8 C 8,9 km/h (2 Bft) 100,00 %
19/07/2019 18:06 26,8 C 51 % 1012,8 hPa 0,0 mm 5,3 km/h (1 Bft) O-SO 251 1 min 0 min 0,000 mm 1,3 UV-I 311 W/m 15,8 C 26,8 C 8,9 km/h (2 Bft) 100,00 %
19/07/2019 18:05 26,8 C 52 % 1012,8 hPa 0,0 mm 7,8 km/h (2 Bft) SO 232 1 min 0 min 0,000 mm 1,3 UV-I 307 W/m 16,1 C 26,5 C 12,4 km/h (2 Bft) 100,00 %
19/07/2019 18:04 26,7 C 52 % 1012,8 hPa 0,0 mm 12,9 km/h (3 Bft) S-SO 196 0 min 0 min 0,000 mm 1,3 UV-I 298 W/m 16,0 C 25,6 C 23,0 km/h (4 Bft) 95,65 %
19/07/2019 18:03 26,7 C 52 % 1012,8 hPa 0,0 mm 12,6 km/h (3 Bft) O-SO 244 0 min 0 min 0,000 mm 1,3 UV-I 290 W/m 16,0 C 25,7 C 17,7 km/h (3 Bft) 95,83 %
19/07/2019 18:02 26,6 C 52 % 1012,9 hPa 0,0 mm 11,0 km/h (2 Bft) O-SO 239 0 min 0 min 0,000 mm 1,3 UV-I 300 W/m 15,9 C 25,8 C 17,7 km/h (3 Bft) 100,00 %
19/07/2019 18:01 26,5 C 54 % 1012,8 hPa 0,0 mm 12,1 km/h (2 Bft) O-SO 240 0 min 0 min 0,280 mm 1,2 UV-I 301 W/m 16,4 C 25,5 C 17,7 km/h (3 Bft) 92,00 %
19/07/2019 18:00 26,4 C 53 % 1012,8 hPa 0,0 mm 7,8 km/h (2 Bft) O-SO 243 0 min 0 min 0,000 mm 1,3 UV-I 302 W/m 16,0 C 26,1 C 12,4 km/h (2 Bft) 95,83 %
19/07/2019 17:59 26,3 C 53 % 1012,9 hPa 0,0 mm 13,1 km/h (3 Bft) O 271 1 min 0 min 0,000 mm 1,3 UV-I 311 W/m 15,9 C 25,1 C 17,7 km/h (3 Bft) 91,67 %
19/07/2019 17:58 26,3 C 54 % 1012,9 hPa 0,0 mm 8,6 km/h (2 Bft) O-SO 257 1 min 0 min 0,000 mm 1,3 UV-I 312 W/m 16,2 C 25,8 C 17,7 km/h (3 Bft) 96,00 %
19/07/2019 17:57 26,3 C 54 % 1012,9 hPa 0,0 mm 11,2 km/h (2 Bft) SO 234 0 min 0 min 0,000 mm 1,2 UV-I 279 W/m 16,2 C 25,4 C 17,7 km/h (3 Bft) 100,00 %
19/07/2019 17:56 26,2 C 54 % 1012,9 hPa 0,0 mm 6,0 km/h (2 Bft) S 178 0 min 0 min 0,000 mm 1,2 UV-I 251 W/m 16,1 C 26,2 C 10,6 km/h (2 Bft) 95,83 %
19/07/2019 17:55 26,3 C 52 % 1012,9 hPa 0,0 mm 8,0 km/h (2 Bft) SO 224 0 min 0 min 0,000 mm 1,2 UV-I 248 W/m 15,6 C 26,0 C 14,2 km/h (3 Bft) 100,00 %
19/07/2019 17:54 26,3 C 53 % 1012,9 hPa 0,0 mm 9,3 km/h (2 Bft) S 173 0 min 0 min 0,000 mm 1,2 UV-I 236 W/m 15,9 C 25,7 C 15,9 km/h (3 Bft) 96,36 %
19/07/2019 17:52 26,4 C 53 % 1012,9 hPa 0,0 mm 10,6 km/h (2 Bft) S 175 0 min 0 min 0,000 mm 1,2 UV-I 235 W/m 16,0 C 25,6 C 15,9 km/h (3 Bft) 88,89 %
19/07/2019 17:51 26,4 C 53 % 1012,9 hPa 0,0 mm 6,8 km/h (2 Bft) SO 227 0 min 0 min 0,000 mm 1,2 UV-I 244 W/m 16,0 C 26,3 C 14,2 km/h (3 Bft) 92,86 %
19/07/2019 17:50 26,4 C 52 % 1012,9 hPa 0,0 mm 10,5 km/h (2 Bft) S-SO 205 0 min 0 min 0,000 mm 1,3 UV-I 256 W/m 15,7 C 25,6 C 14,2 km/h (3 Bft) 94,12 %
19/07/2019 17:49 26,5 C 52 % 1012,8 hPa 0,0 mm 12,6 km/h (3 Bft) SO 226 0 min 0 min 0,000 mm 1,3 UV-I 261 W/m 15,8 C 25,4 C 21,2 km/h (4 Bft) 96,36 %
19/07/2019 17:47 26,6 C 53 % 1012,9 hPa 0,0 mm 12,2 km/h (2 Bft) SO 223 0 min 0 min 0,000 mm 1,3 UV-I 258 W/m 16,2 C 25,6 C 23,0 km/h (4 Bft) 96,30 %
19/07/2019 17:46 26,6 C 52 % 1012,9 hPa 0,0 mm 9,6 km/h (2 Bft) O 261 0 min 0 min 0,000 mm 1,3 UV-I 255 W/m 15,9 C 26,0 C 14,2 km/h (3 Bft) 100,00 %
19/07/2019 17:45 26,6 C 52 % 1012,9 hPa 0,0 mm 7,5 km/h (2 Bft) SO 229 0 min 0 min 0,000 mm 1,3 UV-I 252 W/m 15,9 C 26,4 C 14,2 km/h (3 Bft) 95,83 %
19/07/2019 17:44 26,7 C 53 % 1012,9 hPa 0,0 mm 9,1 km/h (2 Bft) SO 214 0 min 0 min 0,000 mm 1,3 UV-I 267 W/m 16,3 C 26,2 C 12,4 km/h (2 Bft) 100,00 %
19/07/2019 17:43 26,6 C 53 % 1012,9 hPa 0,0 mm 9,1 km/h (2 Bft) O-SO 240 0 min 0 min 0,000 mm 1,4 UV-I 280 W/m 16,2 C 26,1 C 17,7 km/h (3 Bft) 87,50 %
19/07/2019 17:42 26,6 C 54 % 1012,9 hPa 0,0 mm 7,0 km/h (2 Bft) SO 219 0 min 0 min 0,000 mm 1,4 UV-I 296 W/m 16,5 C 26,5 C 12,4 km/h (2 Bft) 100,00 %
19/07/2019 17:41 26,5 C 53 % 1012,9 hPa 0,0 mm 7,0 km/h (2 Bft) SO 217 0 min 0 min 0,000 mm 1,4 UV-I 291 W/m 16,1 C 26,4 C 12,4 km/h (2 Bft) 92,31 %
19/07/2019 17:40 26,4 C 53 % 1013,0 hPa 0,0 mm 10,5 km/h (2 Bft) O 265 0 min 0 min 0,000 mm 1,4 UV-I 296 W/m 16,0 C 25,6 C 14,2 km/h (3 Bft) 96,30 %
19/07/2019 17:39 26,4 C 54 % 1012,9 hPa 0,0 mm 5,5 km/h (2 Bft) SO 235 0 min 0 min 0,000 mm 1,5 UV-I 299 W/m 16,3 C 26,4 C 14,2 km/h (3 Bft) 100,00 %
19/07/2019 17:38 26,4 C 54 % 1012,9 hPa 0,0 mm 8,9 km/h (2 Bft) S 180 0 min 0 min 0,000 mm 1,5 UV-I 327 W/m 16,3 C 25,9 C 12,4 km/h (2 Bft) 91,67 %
19/07/2019 17:37 26,4 C 54 % 1012,9 hPa 0,0 mm 11,1 km/h (2 Bft) S 171 1 min 0 min 0,000 mm 1,6 UV-I 343 W/m 16,3 C 25,5 C 15,9 km/h (3 Bft) 100,00 %
19/07/2019 17:36 26,4 C 53 % 1012,9 hPa 0,0 mm 7,9 km/h (2 Bft) S-SE 155 1 min 0 min 0,000 mm 1,5 UV-I 342 W/m 16,0 C 26,1 C 15,9 km/h (3 Bft) 95,83 %
19/07/2019 17:35 26,4 C 53 % 1012,9 hPa 0,0 mm 8,9 km/h (2 Bft) SE 144 0 min 0 min 0,000 mm 1,5 UV-I 327 W/m 16,0 C 25,9 C 15,9 km/h (3 Bft) 95,83 %
19/07/2019 17:34 26,5 C 53 % 1012,9 hPa 0,0 mm 8,8 km/h (2 Bft) S-SO 196 0 min 0 min 0,000 mm 1,6 UV-I 314 W/m 16,1 C 26,0 C 12,4 km/h (2 Bft) 96,55 %
19/07/2019 17:33 26,5 C 52 % 1013,0 hPa 0,0 mm 5,4 km/h (2 Bft) S-SO 198 0 min 0 min 0,000 mm 1,6 UV-I 338 W/m 15,8 C 26,5 C 7,1 km/h (2 Bft) 100,00 %
19/07/2019 17:32 26,6 C 53 % 1012,9 hPa 0,0 mm 7,0 km/h (2 Bft) S 183 0 min 0 min 0,000 mm 1,6 UV-I 334 W/m 16,2 C 26,5 C 10,6 km/h (2 Bft) 92,00 %
19/07/2019 17:31 26,6 C 52 % 1013,0 hPa 0,0 mm 7,7 km/h (2 Bft) S-SO 213 0 min 0 min 0,000 mm 1,6 UV-I 324 W/m 15,9 C 26,3 C 12,4 km/h (2 Bft) 96,77 %
19/07/2019 17:30 26,7 C 53 % 1013,0 hPa 0,0 mm 9,7 km/h (2 Bft) S 181 0 min 0 min 0,000 mm 1,6 UV-I 307 W/m 16,3 C 26,1 C 12,4 km/h (2 Bft) 100,00 %
19/07/2019 17:29 26,7 C 53 % 1012,9 hPa 0,0 mm 7,7 km/h (2 Bft) S-SO 206 0 min 0 min 0,000 mm 1,6 UV-I 312 W/m 16,3 C 26,4 C 12,4 km/h (2 Bft) 95,83 %
19/07/2019 17:28 26,7 C 53 % 1013,0 hPa 0,0 mm 5,4 km/h (2 Bft) S 189 0 min 0 min 0,000 mm 1,6 UV-I 314 W/m 16,3 C 26,7 C 8,9 km/h (2 Bft) 100,00 %
19/07/2019 17:27 26,7 C 52 % 1013,0 hPa 0,0 mm 10,0 km/h (2 Bft) O-SO 249 0 min 0 min 0,000 mm 1,6 UV-I 326 W/m 16,0 C 26,0 C 12,4 km/h (2 Bft) 94,44 %
19/07/2019 17:26 26,7 C 51 % 1012,9 hPa 0,0 mm 8,1 km/h (2 Bft) O 265 1 min 0 min 0,000 mm 1,7 UV-I 352 W/m 15,7 C 26,4 C 10,6 km/h (2 Bft) 97,74 %
19/07/2019 17:25 26,7 C 51 % 1013,0 hPa 0,0 mm 7,6 km/h (2 Bft) S-SO 204 1 min 0 min 0,000 mm 1,8 UV-I 374 W/m 15,7 C 26,5 C 10,6 km/h (2 Bft) 92,86 %
19/07/2019 17:24 26,8 C 53 % 1013,0 hPa 0,0 mm 9,6 km/h (2 Bft) S-SO 197 1 min 0 min 0,000 mm 1,8 UV-I 377 W/m 16,4 C 26,2 C 12,4 km/h (2 Bft) 92,86 %
19/07/2019 17:23 26,8 C 51 % 1013,0 hPa 0,0 mm 8,8 km/h (2 Bft) O-SO 250 1 min 0 min 0,000 mm 1,8 UV-I 380 W/m 15,8 C 26,3 C 14,2 km/h (3 Bft) 100,00 %
19/07/2019 17:22 26,9 C 52 % 1013,0 hPa 0,0 mm 9,2 km/h (2 Bft) S 190 1 min 0 min 0,000 mm 1,8 UV-I 394 W/m 16,2 C 26,4 C 12,4 km/h (2 Bft) 100,00 %
19/07/2019 17:21 26,9 C 51 % 1013,0 hPa 0,0 mm 10,6 km/h (2 Bft) SO 217 1 min 0 min 0,000 mm 1,8 UV-I 388 W/m 15,9 C 26,2 C 14,2 km/h (3 Bft) 100,00 %
19/07/2019 17:20 26,9 C 52 % 1013,1 hPa 0,0 mm 7,6 km/h (2 Bft) S-SO 197 1 min 0 min 0,000 mm 1,8 UV-I 383 W/m 16,2 C 26,7 C 12,4 km/h (2 Bft) 100,00 %
19/07/2019 17:19 26,9 C 51 % 1013,0 hPa 0,0 mm 14,3 km/h (3 Bft) S 189 1 min 0 min 0,000 mm 1,9 UV-I 411 W/m 15,9 C 25,7 C 23,0 km/h (4 Bft) 100,00 %
19/07/2019 17:18 26,8 C 53 % 1013,1 hPa 0,0 mm 18,0 km/h (3 Bft) O 269 1 min 0 min 0,000 mm 1,9 UV-I 401 W/m 16,4 C 25,2 C 23,0 km/h (4 Bft) 95,83 %
19/07/2019 17:17 26,8 C 54 % 1013,0 hPa 0,0 mm 8,3 km/h (2 Bft) S-SO 192 1 min 0 min 0,000 mm 1,9 UV-I 404 W/m 16,7 C 26,4 C 17,7 km/h (3 Bft) 96,00 %
19/07/2019 17:16 26,8 C 53 % 1013,0 hPa 0,0 mm 3,9 km/h (1 Bft) SO 235 1 min 0 min 0,000 mm 1,8 UV-I 387 W/m 16,4 C 26,8 C 7,1 km/h (2 Bft) 100,00 %
19/07/2019 17:15 26,8 C 53 % 1013,0 hPa 0,0 mm 2,2 km/h (1 Bft) S-SO 196 1 min 0 min 0,000 mm 1,9 UV-I 385 W/m 16,4 C 26,8 C 3,5 km/h (1 Bft) 100,00 %
19/07/2019 17:14 26,8 C 52 % 1013,0 hPa 0,0 mm 5,6 km/h (2 Bft) S-SE 163 1 min 0 min 0,000 mm 1,9 UV-I 384 W/m 16,1 C 26,8 C 7,1 km/h (2 Bft) 96,30 %
19/07/2019 17:13 26,8 C 53 % 1013,0 hPa 0,0 mm 9,7 km/h (2 Bft) SO 215 2 min 0 min 0,000 mm 2,0 UV-I 403 W/m 16,4 C 26,2 C 17,7 km/h (3 Bft) 100,00 %
19/07/2019 17:11 26,8 C 52 % 1013,1 hPa 0,0 mm 10,4 km/h (2 Bft) S-SO 207 1 min 0 min 0,000 mm 2,0 UV-I 400 W/m 16,1 C 26,1 C 19,5 km/h (3 Bft) 100,00 %
19/07/2019 17:10 26,8 C 52 % 1013,0 hPa 0,0 mm 9,6 km/h (2 Bft) S-SE 161 1 min 0 min 0,000 mm 2,0 UV-I 395 W/m 16,1 C 26,2 C 14,2 km/h (3 Bft) 100,00 %
19/07/2019 17:09 26,8 C 52 % 1013,1 hPa 0,0 mm 10,1 km/h (2 Bft) S 188 1 min 0 min 0,000 mm 2,0 UV-I 401 W/m 16,1 C 26,1 C 17,7 km/h (3 Bft) 100,00 %
19/07/2019 17:08 26,8 C 55 % 1013,1 hPa 0,0 mm 7,4 km/h (2 Bft) SO 223 1 min 0 min 0,000 mm 2,1 UV-I 429 W/m 17,0 C 26,6 C 10,6 km/h (2 Bft) 100,00 %
19/07/2019 17:07 26,8 C 53 % 1013,1 hPa 0,0 mm 6,7 km/h (2 Bft) S 184 1 min 0 min 0,000 mm 2,1 UV-I 449 W/m 16,4 C 26,7 C 12,4 km/h (2 Bft) 100,00 %
19/07/2019 17:06 26,7 C 53 % 1013,1 hPa 0,0 mm 5,7 km/h (2 Bft) S-SO 204 1 min 0 min 0,000 mm 2,2 UV-I 454 W/m 16,3 C 26,7 C 8,9 km/h (2 Bft) 96,97 %
19/07/2019 17:05 26,7 C 52 % 1013,1 hPa 0,0 mm 7,9 km/h (2 Bft) SO 219 1 min 0 min 0,000 mm 2,2 UV-I 462 W/m 16,0 C 26,4 C 10,6 km/h (2 Bft) 100,00 %
19/07/2019 17:04 26,7 C 53 % 1013,0 hPa 0,0 mm 9,5 km/h (2 Bft) SO 218 1 min 0 min 0,000 mm 2,2 UV-I 473 W/m 16,3 C 26,1 C 12,4 km/h (2 Bft) 96,55 %
19/07/2019 17:03 26,7 C 54 % 1013,1 hPa 0,0 mm 9,3 km/h (2 Bft) O-SO 246 1 min 0 min 0,000 mm 2,2 UV-I 469 W/m 16,6 C 26,2 C 14,2 km/h (3 Bft) 100,00 %
19/07/2019 17:02 26,6 C 54 % 1013,1 hPa 0,0 mm 6,0 km/h (2 Bft) O-SO 238 1 min 0 min 0,000 mm 2,2 UV-I 475 W/m 16,5 C 26,6 C 12,4 km/h (2 Bft) 95,83 %
19/07/2019 17:01 26,6 C 54 % 1013,1 hPa 0,0 mm 4,8 km/h (1 Bft) S-SO 192 1 min 0 min 0,355 mm 2,2 UV-I 468 W/m 16,5 C 26,6 C 8,9 km/h (2 Bft) 100,00 %
19/07/2019 17:00 26,5 C 54 % 1013,2 hPa 0,0 mm 8,6 km/h (2 Bft) S 188 1 min 0 min 0,000 mm 2,2 UV-I 461 W/m 16,4 C 26,1 C 12,4 km/h (2 Bft) 95,83 %
19/07/2019 16:59 26,4 C 54 % 1013,2 hPa 0,0 mm 11,6 km/h (2 Bft) S-SO 209 1 min 0 min 0,000 mm 2,2 UV-I 468 W/m 16,3 C 25,5 C 14,2 km/h (3 Bft) 96,00 %
19/07/2019 16:58 26,3 C 54 % 1013,2 hPa 0,0 mm 9,9 km/h (2 Bft) S-SO 198 1 min 0 min 0,000 mm 2,2 UV-I 444 W/m 16,2 C 25,6 C 19,5 km/h (3 Bft) 100,00 %
19/07/2019 16:57 26,3 C 55 % 1013,2 hPa 0,0 mm 6,3 km/h (2 Bft) S 173 1 min 0 min 0,000 mm 2,1 UV-I 415 W/m 16,5 C 26,3 C 10,6 km/h (2 Bft) 91,30 %
19/07/2019 16:56 26,2 C 54 % 1013,2 hPa 0,0 mm 7,3 km/h (2 Bft) S 169 1 min 0 min 0,000 mm 2,1 UV-I 400 W/m 16,1 C 26,0 C 14,2 km/h (3 Bft) 100,00 %
19/07/2019 16:55 26,2 C 54 % 1013,2 hPa 0,0 mm 4,6 km/h (1 Bft) S-SE 158 1 min 0 min 0,000 mm 2,1 UV-I 395 W/m 16,1 C 26,2 C 7,1 km/h (2 Bft) 100,00 %
19/07/2019 16:54 26,1 C 56 % 1013,2 hPa 0,0 mm 4,5 km/h (1 Bft) SE 132 1 min 0 min 0,000 mm 2,0 UV-I 384 W/m 16,6 C 26,1 C 7,1 km/h (2 Bft) 100,00 %
19/07/2019 16:53 26,1 C 54 % 1013,2 hPa 0,0 mm 6,1 km/h (2 Bft) SE 138 0 min 0 min 0,000 mm 2,1 UV-I 362 W/m 16,0 C 26,1 C 8,9 km/h (2 Bft) 100,00 %
19/07/2019 16:52 26,2 C 54 % 1013,2 hPa 0,0 mm 4,9 km/h (1 Bft) S-SO 204 0 min 0 min 0,000 mm 1,9 UV-I 287 W/m 16,1 C 26,2 C 8,9 km/h (2 Bft) 100,00 %
19/07/2019 16:51 26,2 C 53 % 1013,3 hPa 0,0 mm 7,5 km/h (2 Bft) SE 144 0 min 0 min 0,000 mm 1,8 UV-I 275 W/m 15,8 C 26,0 C 15,9 km/h (3 Bft) 100,00 %
19/07/2019 16:50 26,3 C 52 % 1013,3 hPa 0,0 mm 7,4 km/h (2 Bft) SO 215 0 min 0 min 0,000 mm 1,8 UV-I 271 W/m 15,6 C 26,1 C 12,4 km/h (2 Bft) 100,00 %
19/07/2019 16:49 26,4 C 52 % 1013,2 hPa 0,0 mm 3,6 km/h (1 Bft) SO 230 0 min 0 min 0,000 mm 1,9 UV-I 287 W/m 15,7 C 26,4 C 8,9 km/h (2 Bft) 100,00 %
19/07/2019 16:48 26,5 C 53 % 1013,3 hPa 0,0 mm 7,4 km/h (2 Bft) S-SO 198 0 min 0 min 0,000 mm 2,0 UV-I 372 W/m 16,1 C 26,3 C 12,4 km/h (2 Bft) 100,00 %
19/07/2019 16:47 26,5 C 53 % 1013,3 hPa 0,0 mm 11,2 km/h (2 Bft) S-SO 192 1 min 0 min 0,000 mm 2,1 UV-I 413 W/m 16,1 C 25,6 C 19,5 km/h (3 Bft) 100,00 %
19/07/2019 16:46 26,6 C 54 % 1013,3 hPa 0,0 mm 7,6 km/h (2 Bft) S-SE 148 0 min 0 min 0,000 mm 2,2 UV-I 387 W/m 16,5 C 26,4 C 14,2 km/h (3 Bft) 100,00 %
19/07/2019 16:45 26,6 C 54 % 1013,2 hPa 0,0 mm 15,9 km/h (3 Bft) S-SO 213 1 min 0 min 0,000 mm 2,3 UV-I 420 W/m 16,5 C 25,1 C 24,8 km/h (4 Bft) 96,67 %
19/07/2019 16:44 26,6 C 53 % 1013,2 hPa 0,0 mm 8,3 km/h (2 Bft) S-SE 155 1 min 0 min 0,000 mm 2,2 UV-I 395 W/m 16,2 C 26,2 C 14,2 km/h (3 Bft) 100,00 %
19/07/2019 16:43 26,6 C 54 % 1013,2 hPa 0,0 mm 6,8 km/h (2 Bft) SE 145 1 min 0 min 0,000 mm 2,2 UV-I 395 W/m 16,5 C 26,5 C 14,2 km/h (3 Bft) 100,00 %
19/07/2019 16:42 26,6 C 54 % 1013,3 hPa 0,0 mm 5,9 km/h (2 Bft) S 176 1 min 0 min 0,000 mm 2,2 UV-I 407 W/m 16,5 C 26,6 C 10,6 km/h (2 Bft) 100,00 %
19/07/2019 16:41 26,7 C 53 % 1013,2 hPa 0,0 mm 6,0 km/h (2 Bft) SO 236 1 min 0 min 0,000 mm 2,3 UV-I 420 W/m 16,3 C 26,7 C 12,4 km/h (2 Bft) 97,70 %
19/07/2019 16:40 26,7 C 54 % 1013,2 hPa 0,0 mm 5,8 km/h (2 Bft) S-SE 158 1 min 0 min 0,000 mm 2,4 UV-I 439 W/m 16,6 C 26,7 C 8,9 km/h (2 Bft) 100,00 %
19/07/2019 16:39 26,7 C 53 % 1013,2 hPa 0,0 mm 6,6 km/h (2 Bft) S-SO 194 1 min 0 min 0,000 mm 2,4 UV-I 447 W/m 16,3 C 26,7 C 8,9 km/h (2 Bft) 100,00 %
19/07/2019 16:38 26,6 C 54 % 1013,2 hPa 0,0 mm 8,3 km/h (2 Bft) SO 219 1 min 0 min 0,000 mm 2,4 UV-I 455 W/m 16,5 C 26,2 C 15,9 km/h (3 Bft) 100,00 %
19/07/2019 16:37 26,6 C 55 % 1013,3 hPa 0,0 mm 9,0 km/h (2 Bft) O-SO 246 1 min 0 min 0,000 mm 2,4 UV-I 467 W/m 16,8 C 26,1 C 12,4 km/h (2 Bft) 100,00 %
19/07/2019 16:36 26,4 C 54 % 1013,2 hPa 0,0 mm 8,1 km/h (2 Bft) S 185 1 min 0 min 0,000 mm 2,6 UV-I 495 W/m 16,3 C 26,1 C 12,4 km/h (2 Bft) 95,83 %
19/07/2019 16:35 26,3 C 55 % 1013,3 hPa 0,0 mm 5,9 km/h (2 Bft) SO 221 1 min 0 min 0,000 mm 2,5 UV-I 497 W/m 16,5 C 26,3 C 12,4 km/h (2 Bft) 100,00 %
19/07/2019 16:34 26,3 C 53 % 1013,3 hPa 0,0 mm 4,8 km/h (1 Bft) S 178 1 min 0 min 0,000 mm 2,5 UV-I 474 W/m 15,9 C 26,3 C 8,9 km/h (2 Bft) 95,83 %
19/07/2019 16:33 26,3 C 53 % 1013,3 hPa 0,0 mm 4,0 km/h (1 Bft) SE 134 1 min 0 min 0,000 mm 2,4 UV-I 441 W/m 15,9 C 26,3 C 5,3 km/h (1 Bft) 100,00 %
19/07/2019 16:32 26,3 C 54 % 1013,3 hPa 0,0 mm 4,8 km/h (1 Bft) S 178 2 min 0 min 0,000 mm 2,4 UV-I 455 W/m 16,2 C 26,3 C 12,4 km/h (2 Bft) 98,33 %
19/07/2019 16:30 26,4 C 53 % 1013,3 hPa 0,0 mm 8,5 km/h (2 Bft) S-SO 209 1 min 0 min 0,000 mm 2,4 UV-I 460 W/m 16,0 C 26,0 C 15,9 km/h (3 Bft) 100,00 %
19/07/2019 16:29 26,4 C 53 % 1013,4 hPa 0,0 mm 8,6 km/h (2 Bft) S-SO 207 1 min 0 min 0,000 mm 2,5 UV-I 462 W/m 16,0 C 26,0 C 10,6 km/h (2 Bft) 100,00 %
19/07/2019 16:28 26,4 C 54 % 1013,3 hPa 0,0 mm 7,6 km/h (2 Bft) S 189 1 min 0 min 0,000 mm 2,5 UV-I 456 W/m 16,3 C 26,2 C 14,2 km/h (3 Bft) 100,00 %
19/07/2019 16:27 26,4 C 54 % 1013,3 hPa 0,0 mm 6,0 km/h (2 Bft) S-SO 196 1 min 0 min 0,000 mm 2,6 UV-I 464 W/m 16,3 C 26,4 C 10,6 km/h (2 Bft) 91,67 %
19/07/2019 16:26 26,4 C 53 % 1013,4 hPa 0,0 mm 4,9 km/h (1 Bft) S-SE 161 1 min 0 min 0,000 mm 2,6 UV-I 491 W/m 16,0 C 26,4 C 14,2 km/h (3 Bft) 100,00 %
19/07/2019 16:25 26,5 C 52 % 1013,4 hPa 0,0 mm 7,3 km/h (2 Bft) SE 126 1 min 0 min 0,000 mm 2,5 UV-I 469 W/m 15,8 C 26,3 C 8,9 km/h (2 Bft) 97,69 %
19/07/2019 16:24 26,6 C 53 % 1013,4 hPa 0,0 mm 10,7 km/h (2 Bft) S-SE 165 1 min 0 min 0,000 mm 2,6 UV-I 458 W/m 16,2 C 25,8 C 17,7 km/h (3 Bft) 92,86 %
19/07/2019 16:23 26,5 C 53 % 1013,4 hPa 0,0 mm 11,6 km/h (2 Bft) O-SO 249 1 min 0 min 0,000 mm 2,7 UV-I 482 W/m 16,1 C 25,6 C 17,7 km/h (3 Bft) 100,00 %
19/07/2019 16:22 26,5 C 54 % 1013,3 hPa 0,0 mm 17,5 km/h (3 Bft) SO 225 1 min 0 min 0,000 mm 2,7 UV-I 482 W/m 16,4 C 24,8 C 26,6 km/h (4 Bft) 100,00 %
19/07/2019 16:21 26,5 C 54 % 1013,3 hPa 0,0 mm 12,3 km/h (2 Bft) S 178 1 min 0 min 0,000 mm 2,7 UV-I 498 W/m 16,4 C 25,5 C 17,7 km/h (3 Bft) 96,30 %
19/07/2019 16:20 26,6 C 52 % 1013,2 hPa 0,0 mm 5,0 km/h (1 Bft) SE 140 1 min 0 min 0,000 mm 2,7 UV-I 507 W/m 15,9 C 26,6 C 12,4 km/h (2 Bft) 100,00 %
19/07/2019 16:19 26,7 C 52 % 1013,3 hPa 0,0 mm 5,4 km/h (2 Bft) E-SE 113 1 min 0 min 0,000 mm 2,8 UV-I 541 W/m 16,0 C 26,7 C 8,9 km/h (2 Bft) 100,00 %
19/07/2019 16:18 26,7 C 51 % 1013,4 hPa 0,0 mm 3,1 km/h (1 Bft) S 182 1 min 0 min 0,000 mm 2,8 UV-I 512 W/m 15,7 C 26,7 C 7,1 km/h (2 Bft) 92,00 %
19/07/2019 16:17 26,7 C 53 % 1013,4 hPa 0,0 mm 4,5 km/h (1 Bft) S-SE 150 1 min 0 min 0,000 mm 2,9 UV-I 512 W/m 16,3 C 26,7 C 7,1 km/h (2 Bft) 100,00 %
19/07/2019 16:16 26,7 C 54 % 1013,3 hPa 0,0 mm 4,3 km/h (1 Bft) SO 217 1 min 0 min 0,000 mm 2,9 UV-I 548 W/m 16,6 C 26,7 C 8,9 km/h (2 Bft) 100,00 %
19/07/2019 16:15 26,6 C 55 % 1013,3 hPa 0,0 mm 4,7 km/h (1 Bft) O-SO 240 1 min 0 min 0,000 mm 2,9 UV-I 566 W/m 16,8 C 26,6 C 7,1 km/h (2 Bft) 95,65 %
19/07/2019 16:14 26,6 C 53 % 1013,3 hPa 0,0 mm 5,7 km/h (2 Bft) S 188 1 min 0 min 0,000 mm 2,9 UV-I 552 W/m 16,2 C 26,6 C 7,1 km/h (2 Bft) 100,00 %
19/07/2019 16:13 26,5 C 53 % 1013,4 hPa 0,0 mm 11,6 km/h (2 Bft) S-SO 196 1 min 0 min 0,000 mm 2,9 UV-I 522 W/m 16,1 C 25,6 C 17,7 km/h (3 Bft) 100,00 %
19/07/2019 16:12 26,4 C 55 % 1013,5 hPa 0,0 mm 6,6 km/h (2 Bft) S-SO 207 1 min 0 min 0,000 mm 2,9 UV-I 498 W/m 16,6 C 26,4 C 10,6 km/h (2 Bft) 100,00 %
19/07/2019 16:11 26,3 C 53 % 1013,4 hPa 0,0 mm 8,2 km/h (2 Bft) SO 217 1 min 0 min 0,000 mm 2,8 UV-I 517 W/m 15,9 C 25,9 C 14,2 km/h (3 Bft) 93,33 %
19/07/2019 16:10 26,3 C 54 % 1013,4 hPa 0,0 mm 10,4 km/h (2 Bft) S-SE 167 1 min 0 min 0,000 mm 2,9 UV-I 525 W/m 16,2 C 25,5 C 15,9 km/h (3 Bft) 100,00 %
19/07/2019 16:09 26,3 C 53 % 1013,4 hPa 0,0 mm 6,7 km/h (2 Bft) E 94 1 min 0 min 0,000 mm 3,0 UV-I 533 W/m 15,9 C 26,2 C 10,6 km/h (2 Bft) 96,43 %
19/07/2019 16:08 26,3 C 54 % 1013,4 hPa 0,0 mm 7,0 km/h (2 Bft) S-SE 159 1 min 0 min 0,000 mm 3,1 UV-I 554 W/m 16,2 C 26,2 C 12,4 km/h (2 Bft) 100,00 %
19/07/2019 16:07 26,2 C 55 % 1013,5 hPa 0,0 mm 7,9 km/h (2 Bft) S-SE 162 1 min 0 min 0,000 mm 3,2 UV-I 584 W/m 16,4 C 25,9 C 14,2 km/h (3 Bft) 96,30 %
19/07/2019 16:06 26,2 C 53 % 1013,5 hPa 0,0 mm 10,2 km/h (2 Bft) SE 143 1 min 0 min 0,000 mm 3,0 UV-I 562 W/m 15,8 C 25,5 C 14,2 km/h (3 Bft) 100,00 %
19/07/2019 16:05 26,2 C 54 % 1013,5 hPa 0,0 mm 9,1 km/h (2 Bft) S-SE 155 1 min 0 min 0,000 mm 3,1 UV-I 551 W/m 16,1 C 25,6 C 12,4 km/h (2 Bft) 92,86 %
19/07/2019 16:04 26,2 C 55 % 1013,6 hPa 0,0 mm 16,5 km/h (3 Bft) S-SO 213 1 min 0 min 0,000 mm 3,2 UV-I 452 W/m 16,4 C 24,6 C 26,6 km/h (4 Bft) 100,00 %
19/07/2019 16:03 26,1 C 54 % 1013,5 hPa 0,0 mm 6,9 km/h (2 Bft) SO 220 1 min 0 min 0,000 mm 2,9 UV-I 453 W/m 16,0 C 26,0 C 12,4 km/h (2 Bft) 100,00 %
19/07/2019 16:02 26,1 C 54 % 1013,6 hPa 0,0 mm 7,2 km/h (2 Bft) E-SE 117 1 min 0 min 0,000 mm 2,6 UV-I 643 W/m 16,0 C 25,9 C 12,4 km/h (2 Bft) 100,00 %
19/07/2019 16:01 26,0 C 54 % 1013,6 hPa 0,0 mm 6,9 km/h (2 Bft) S-SO 203 1 min 0 min 0,458 mm 3,1 UV-I 643 W/m 16,0 C 25,9 C 12,4 km/h (2 Bft) 100,00 %
19/07/2019 16:00 25,9 C 56 % 1013,6 hPa 0,0 mm 3,2 km/h (1 Bft) SE 134 1 min 0 min 0,000 mm 3,4 UV-I 440 W/m 16,4 C 25,9 C 7,1 km/h (2 Bft) 100,00 %
19/07/2019 15:59 25,8 C 56 % 1013,6 hPa 0,0 mm 4,7 km/h (1 Bft) S-SO 192 0 min 0 min 0,000 mm 2,8 UV-I 309 W/m 16,3 C 25,8 C 8,9 km/h (2 Bft) 100,00 %
19/07/2019 15:58 25,8 C 54 % 1013,6 hPa 0,0 mm 5,1 km/h (1 Bft) S 180 0 min 0 min 0,000 mm 3,2 UV-I 309 W/m 15,8 C 25,8 C 7,1 km/h (2 Bft) 100,00 %
19/07/2019 15:57 25,8 C 54 % 1013,6 hPa 0,0 mm 7,8 km/h (2 Bft) E-SE 113 0 min 0 min 0,000 mm 2,7 UV-I 309 W/m 15,8 C 25,5 C 10,6 km/h (2 Bft) 96,00 %
19/07/2019 15:56 25,9 C 53 % 1013,6 hPa 0,0 mm 6,7 km/h (2 Bft) SE 143 0 min 0 min 0,000 mm 2,4 UV-I 302 W/m 15,6 C 25,8 C 10,6 km/h (2 Bft) 96,00 %
19/07/2019 15:55 26,0 C 54 % 1013,6 hPa 0,0 mm 8,2 km/h (2 Bft) SE 128 0 min 0 min 0,000 mm 2,7 UV-I 285 W/m 16,0 C 25,6 C 17,7 km/h (3 Bft) 100,00 %
19/07/2019 15:54 26,0 C 54 % 1013,6 hPa 0,0 mm 9,4 km/h (2 Bft) SE 136 0 min 0 min 0,000 mm 2,5 UV-I 285 W/m 16,0 C 25,4 C 14,2 km/h (3 Bft) 100,00 %
19/07/2019 15:53 26,1 C 53 % 1013,6 hPa 0,0 mm 8,1 km/h (2 Bft) S 187 0 min 0 min 0,000 mm 2,8 UV-I 285 W/m 15,8 C 25,7 C 15,9 km/h (3 Bft) 100,00 %
19/07/2019 15:52 26,1 C 56 % 1013,7 hPa 0,0 mm 6,5 km/h (2 Bft) S-SO 198 0 min 0 min 0,000 mm 2,2 UV-I 285 W/m 16,6 C 26,1 C 8,9 km/h (2 Bft) 100,00 %
19/07/2019 15:51 26,2 C 53 % 1013,7 hPa 0,0 mm 4,7 km/h (1 Bft) S-SO 200 0 min 0 min 0,000 mm 2,2 UV-I 281 W/m 15,8 C 26,2 C 7,1 km/h (2 Bft) 100,00 %
19/07/2019 15:50 26,2 C 52 % 1013,6 hPa 0,0 mm 3,5 km/h (1 Bft) S-SO 200 0 min 0 min 0,000 mm 2,4 UV-I 305 W/m 15,6 C 26,2 C 7,1 km/h (2 Bft) 100,00 %
19/07/2019 15:49 26,3 C 53 % 1013,7 hPa 0,0 mm 4,9 km/h (1 Bft) S-SE 162 0 min 0 min 0,000 mm 2,6 UV-I 400 W/m 15,9 C 26,3 C 10,6 km/h (2 Bft) 100,00 %
19/07/2019 15:48 26,4 C 52 % 1013,6 hPa 0,0 mm 9,4 km/h (2 Bft) S-SO 202 1 min 0 min 0,000 mm 2,7 UV-I 506 W/m 15,7 C 25,8 C 12,4 km/h (2 Bft) 100,00 %
19/07/2019 15:47 26,4 C 52 % 1013,6 hPa 0,0 mm 8,0 km/h (2 Bft) SO 220 1 min 0 min 0,000 mm 2,7 UV-I 506 W/m 15,7 C 26,1 C 10,6 km/h (2 Bft) 91,67 %
19/07/2019 15:46 26,4 C 53 % 1013,7 hPa 0,0 mm 8,6 km/h (2 Bft) S-SO 192 2 min 0 min 0,000 mm 3,3 UV-I 575 W/m 16,0 C 26,0 C 17,7 km/h (3 Bft) 96,08 %
19/07/2019 15:44 26,6 C 51 % 1013,7 hPa 0,0 mm 12,1 km/h (2 Bft) S-SO 194 1 min 0 min 0,000 mm 3,4 UV-I 568 W/m 15,6 C 25,6 C 15,9 km/h (3 Bft) 95,83 %
19/07/2019 15:43 26,6 C 52 % 1013,7 hPa 0,0 mm 11,3 km/h (2 Bft) S 184 1 min 0 min 0,000 mm 3,6 UV-I 655 W/m 15,9 C 25,7 C 23,0 km/h (4 Bft) 96,00 %
19/07/2019 15:42 26,5 C 53 % 1013,7 hPa 0,0 mm 4,2 km/h (1 Bft) S 178 1 min 0 min 0,000 mm 3,7 UV-I 656 W/m 16,1 C 26,5 C 10,6 km/h (2 Bft) 100,00 %
19/07/2019 15:41 26,4 C 53 % 1013,6 hPa 0,0 mm 12,7 km/h (3 Bft) S-SE 166 1 min 0 min 0,000 mm 3,4 UV-I 588 W/m 16,0 C 25,3 C 17,7 km/h (3 Bft) 95,83 %
19/07/2019 15:40 26,4 C 52 % 1013,7 hPa 0,0 mm 14,7 km/h (3 Bft) SO 220 1 min 0 min 0,000 mm 3,6 UV-I 687 W/m 15,7 C 25,0 C 19,5 km/h (3 Bft) 95,83 %
19/07/2019 15:39 26,4 C 54 % 1013,7 hPa 0,0 mm 12,7 km/h (3 Bft) S-SO 198 1 min 0 min 0,000 mm 3,7 UV-I 609 W/m 16,3 C 25,3 C 17,7 km/h (3 Bft) 95,83 %
19/07/2019 15:38 26,3 C 54 % 1013,7 hPa 0,0 mm 12,7 km/h (3 Bft) S-SE 167 0 min 0 min 0,000 mm 3,1 UV-I 271 W/m 16,2 C 25,2 C 21,2 km/h (4 Bft) 83,33 %
19/07/2019 15:37 26,3 C 54 % 1013,7 hPa 0,0 mm 14,1 km/h (3 Bft) SO 215 1 min 0 min 0,000 mm 2,6 UV-I 489 W/m 16,2 C 25,0 C 21,2 km/h (4 Bft) 100,00 %
19/07/2019 15:36 26,3 C 53 % 1013,7 hPa 0,0 mm 8,5 km/h (2 Bft) O-SO 247 1 min 0 min 0,000 mm 3,6 UV-I 689 W/m 15,9 C 25,9 C 14,2 km/h (3 Bft) 96,00 %
19/07/2019 15:35 26,2 C 55 % 1013,7 hPa 0,0 mm 10,0 km/h (2 Bft) O-SO 243 1 min 0 min 0,000 mm 3,8 UV-I 674 W/m 16,4 C 25,5 C 15,9 km/h (3 Bft) 100,00 %
19/07/2019 15:34 26,2 C 52 % 1013,8 hPa 0,0 mm 10,3 km/h (2 Bft) SO 217 0 min 0 min 0,000 mm 4,0 UV-I 333 W/m 15,6 C 25,4 C 14,2 km/h (3 Bft) 97,83 %
19/07/2019 15:33 26,3 C 51 % 1013,8 hPa 0,0 mm 2,9 km/h (1 Bft) S-SO 192 0 min 0 min 0,000 mm 3,4 UV-I 439 W/m 15,3 C 26,3 C 5,3 km/h (1 Bft) 97,67 %
19/07/2019 15:32 26,4 C 53 % 1013,8 hPa 0,0 mm 3,5 km/h (1 Bft) S-SO 202 1 min 0 min 0,000 mm 3,5 UV-I 742 W/m 16,0 C 26,4 C 5,3 km/h (1 Bft) 96,15 %
19/07/2019 15:31 26,3 C 53 % 1013,8 hPa 0,0 mm 5,8 km/h (2 Bft) SO 219 1 min 0 min 0,000 mm 4,2 UV-I 493 W/m 15,9 C 26,3 C 10,6 km/h (2 Bft) 96,43 %
19/07/2019 15:30 26,3 C 51 % 1013,8 hPa 0,0 mm 7,0 km/h (2 Bft) S-SE 161 0 min 0 min 0,000 mm 3,1 UV-I 301 W/m 15,3 C 26,2 C 10,6 km/h (2 Bft) 100,00 %
19/07/2019 15:29 26,4 C 51 % 1013,9 hPa 0,0 mm 8,4 km/h (2 Bft) S-SO 203 0 min 0 min 0,000 mm 2,7 UV-I 252 W/m 15,4 C 26,0 C 12,4 km/h (2 Bft) 95,83 %
19/07/2019 15:28 26,6 C 51 % 1013,9 hPa 0,0 mm 13,8 km/h (3 Bft) S-SO 201 1 min 0 min 0,000 mm 2,9 UV-I 819 W/m 15,6 C 25,4 C 21,2 km/h (4 Bft) 100,00 %
19/07/2019 15:27 26,7 C 51 % 1013,9 hPa 0,0 mm 11,5 km/h (2 Bft) S 188 1 min 0 min 0,000 mm 3,5 UV-I 819 W/m 15,7 C 25,8 C 21,2 km/h (4 Bft) 94,12 %
19/07/2019 15:26 26,8 C 51 % 1013,9 hPa 0,0 mm 11,6 km/h (2 Bft) SO 226 1 min 0 min 0,000 mm 3,3 UV-I 819 W/m 15,8 C 25,9 C 17,7 km/h (3 Bft) 100,00 %
19/07/2019 15:25 26,9 C 51 % 1013,8 hPa 0,0 mm 6,5 km/h (2 Bft) O-SO 246 1 min 0 min 0,000 mm 4,2 UV-I 819 W/m 15,9 C 26,9 C 15,9 km/h (3 Bft) 95,83 %
19/07/2019 15:24 26,9 C 53 % 1013,9 hPa 0,0 mm 7,8 km/h (2 Bft) SO 216 1 min 0 min 0,000 mm 4,6 UV-I 827 W/m 16,5 C 26,6 C 12,4 km/h (2 Bft) 96,30 %
19/07/2019 15:23 26,7 C 53 % 1013,9 hPa 0,0 mm 7,0 km/h (2 Bft) S-SO 206 1 min 0 min 0,000 mm 4,6 UV-I 822 W/m 16,3 C 26,6 C 8,9 km/h (2 Bft) 100,00 %
19/07/2019 15:22 26,7 C 51 % 1013,9 hPa 0,0 mm 4,7 km/h (1 Bft) O 264 1 min 0 min 0,000 mm 4,5 UV-I 796 W/m 15,7 C 26,7 C 10,6 km/h (2 Bft) 91,67 %
19/07/2019 15:21 26,7 C 51 % 1013,9 hPa 0,0 mm 7,7 km/h (2 Bft) O-SO 247 1 min 0 min 0,000 mm 4,5 UV-I 806 W/m 15,7 C 26,4 C 8,9 km/h (2 Bft) 100,00 %
19/07/2019 15:20 26,7 C 51 % 1013,9 hPa 0,0 mm 8,0 km/h (2 Bft) S 181 1 min 0 min 0,000 mm 4,7 UV-I 825 W/m 15,7 C 26,4 C 12,4 km/h (2 Bft) 95,83 %
19/07/2019 15:19 26,7 C 53 % 1013,9 hPa 0,0 mm 9,1 km/h (2 Bft) S 182 1 min 0 min 0,000 mm 4,7 UV-I 826 W/m 16,3 C 26,2 C 17,7 km/h (3 Bft) 100,00 %
19/07/2019 15:18 26,7 C 54 % 1014,0 hPa 0,0 mm 9,3 km/h (2 Bft) S-SO 195 1 min 0 min 0,000 mm 4,8 UV-I 847 W/m 16,6 C 26,2 C 15,9 km/h (3 Bft) 91,30 %
19/07/2019 15:17 26,7 C 51 % 1014,0 hPa 0,0 mm 11,2 km/h (2 Bft) S 172 1 min 0 min 0,000 mm 4,7 UV-I 697 W/m 15,7 C 25,9 C 17,7 km/h (3 Bft) 100,00 %
19/07/2019 15:16 26,8 C 50 % 1014,0 hPa 0,0 mm 9,4 km/h (2 Bft) O-SO 251 1 min 0 min 0,000 mm 4,3 UV-I 670 W/m 15,5 C 26,2 C 14,2 km/h (3 Bft) 95,24 %
19/07/2019 15:15 26,9 C 51 % 1014,1 hPa 0,0 mm 16,5 km/h (3 Bft) SO 223 1 min 0 min 0,000 mm 4,2 UV-I 688 W/m 15,9 C 25,4 C 21,2 km/h (4 Bft) 94,12 %
19/07/2019 15:14 26,9 C 50 % 1014,0 hPa 0,0 mm 9,5 km/h (2 Bft) O-SO 246 1 min 0 min 0,000 mm 4,4 UV-I 747 W/m 15,6 C 26,3 C 15,9 km/h (3 Bft) 91,67 %
19/07/2019 15:13 26,9 C 52 % 1014,1 hPa 0,0 mm 13,1 km/h (3 Bft) O-SO 240 1 min 0 min 0,000 mm 4,7 UV-I 782 W/m 16,2 C 25,8 C 17,7 km/h (3 Bft) 95,83 %
19/07/2019 15:12 26,7 C 53 % 1014,1 hPa 0,0 mm 10,7 km/h (2 Bft) S-SO 192 1 min 0 min 0,000 mm 4,7 UV-I 786 W/m 16,3 C 25,9 C 19,5 km/h (3 Bft) 96,67 %
19/07/2019 15:11 26,6 C 52 % 1014,1 hPa 0,0 mm 6,7 km/h (2 Bft) SO 215 1 min 0 min 0,000 mm 4,7 UV-I 801 W/m 15,9 C 26,5 C 10,6 km/h (2 Bft) 93,33 %
19/07/2019 15:10 26,6 C 51 % 1014,0 hPa 0,0 mm 6,1 km/h (2 Bft) SO 214 1 min 0 min 0,000 mm 4,6 UV-I 827 W/m 15,6 C 26,6 C 12,4 km/h (2 Bft) 96,55 %
19/07/2019 15:09 26,4 C 51 % 1014,0 hPa 0,0 mm 11,4 km/h (2 Bft) S-SO 200 1 min 0 min 0,000 mm 4,8 UV-I 800 W/m 15,4 C 25,5 C 15,9 km/h (3 Bft) 94,44 %
19/07/2019 15:08 26,3 C 51 % 1014,0 hPa 0,0 mm 13,1 km/h (3 Bft) O-SO 254 1 min 0 min 0,000 mm 4,7 UV-I 804 W/m 15,3 C 25,1 C 19,5 km/h (3 Bft) 100,00 %
19/07/2019 15:07 26,4 C 52 % 1014,1 hPa 0,0 mm 5,6 km/h (2 Bft) SO 219 1 min 0 min 0,000 mm 4,7 UV-I 846 W/m 15,7 C 26,4 C 7,1 km/h (2 Bft) 92,31 %
19/07/2019 15:06 26,4 C 53 % 1014,1 hPa 0,0 mm 7,8 km/h (2 Bft) SE 146 1 min 0 min 0,000 mm 4,8 UV-I 846 W/m 16,0 C 26,1 C 14,2 km/h (3 Bft) 95,83 %
19/07/2019 15:05 26,4 C 52 % 1014,1 hPa 0,0 mm 6,2 km/h (2 Bft) SO 235 1 min 0 min 0,000 mm 4,8 UV-I 806 W/m 15,7 C 26,4 C 12,4 km/h (2 Bft) 96,30 %
19/07/2019 15:04 26,4 C 53 % 1014,1 hPa 0,0 mm 4,8 km/h (1 Bft) S-SO 202 1 min 0 min 0,000 mm 4,8 UV-I 826 W/m 16,0 C 26,4 C 7,1 km/h (2 Bft) 91,67 %
19/07/2019 15:03 26,5 C 53 % 1014,1 hPa 0,0 mm 11,5 km/h (2 Bft) S 177 1 min 0 min 0,000 mm 4,7 UV-I 826 W/m 16,1 C 25,6 C 17,7 km/h (3 Bft) 100,00 %
19/07/2019 15:02 26,6 C 51 % 1014,2 hPa 0,0 mm 9,7 km/h (2 Bft) S-SO 192 1 min 0 min 0,000 mm 4,9 UV-I 826 W/m 15,6 C 26,0 C 19,5 km/h (3 Bft) 92,00 %
19/07/2019 15:01 26,6 C 49 % 1014,2 hPa 0,0 mm 13,7 km/h (3 Bft) SO 217 1 min 0 min 0,000 mm 4,8 UV-I 805 W/m 15,0 C 25,4 C 19,5 km/h (3 Bft) 95,65 %
19/07/2019 15:00 26,7 C 50 % 1014,2 hPa 0,0 mm 18,5 km/h (3 Bft) O-SO 240 2 min 0 min 0,584 mm 4,8 UV-I 801 W/m 15,4 C 25,0 C 24,8 km/h (4 Bft) 95,83 %
19/07/2019 14:58 26,8 C 50 % 1014,2 hPa 0,0 mm 15,1 km/h (3 Bft) O 261 1 min 0 min 0,000 mm 4,8 UV-I 839 W/m 15,5 C 25,5 C 21,2 km/h (4 Bft) 91,67 %
19/07/2019 14:57 26,7 C 53 % 1014,2 hPa 0,0 mm 9,8 km/h (2 Bft) S 175 1 min 0 min 0,000 mm 4,9 UV-I 861 W/m 16,3 C 26,1 C 19,5 km/h (3 Bft) 100,00 %
19/07/2019 14:56 26,6 C 53 % 1014,2 hPa 0,0 mm 9,3 km/h (2 Bft) O-SO 257 1 min 0 min 0,000 mm 4,8 UV-I 838 W/m 16,2 C 26,0 C 19,5 km/h (3 Bft) 100,00 %
19/07/2019 14:55 26,4 C 55 % 1014,2 hPa 0,0 mm 7,0 km/h (2 Bft) S-SE 163 1 min 0 min 0,000 mm 5,0 UV-I 877 W/m 16,6 C 26,3 C 12,4 km/h (2 Bft) 100,00 %
19/07/2019 14:54 26,2 C 53 % 1014,2 hPa 0,0 mm 6,8 km/h (2 Bft) S 180 1 min 0 min 0,000 mm 5,1 UV-I 916 W/m 15,8 C 26,1 C 10,6 km/h (2 Bft) 100,00 %
19/07/2019 14:53 26,1 C 53 % 1014,3 hPa 0,0 mm 8,9 km/h (2 Bft) SO 232 1 min 0 min 0,000 mm 4,6 UV-I 811 W/m 15,8 C 25,6 C 15,9 km/h (3 Bft) 100,00 %
19/07/2019 14:52 25,9 C 54 % 1014,2 hPa 0,0 mm 14,0 km/h (3 Bft) O-SO 240 1 min 0 min 0,000 mm 4,4 UV-I 824 W/m 15,9 C 24,5 C 21,2 km/h (4 Bft) 100,00 %
19/07/2019 14:51 25,8 C 55 % 1014,3 hPa 0,0 mm 17,7 km/h (3 Bft) O-SO 248 1 min 0 min 0,000 mm 5,1 UV-I 892 W/m 16,1 C 23,9 C 21,2 km/h (4 Bft) 100,00 %
19/07/2019 14:50 25,4 C 56 % 1014,2 hPa 0,0 mm 9,9 km/h (2 Bft) O-SO 250 1 min 0 min 0,000 mm 5,0 UV-I 907 W/m 16,0 C 24,6 C 12,4 km/h (2 Bft) 93,75 %
19/07/2019 14:49 25,3 C 54 % 1014,2 hPa 0,0 mm 8,5 km/h (2 Bft) SO 227 1 min 0 min 0,000 mm 5,1 UV-I 907 W/m 15,3 C 24,8 C 17,7 km/h (3 Bft) 100,00 %
19/07/2019 14:48 25,4 C 53 % 1014,2 hPa 0,0 mm 3,9 km/h (1 Bft) O-SO 249 1 min 0 min 0,000 mm 5,0 UV-I 925 W/m 15,1 C 25,4 C 7,1 km/h (2 Bft) 96,00 %
19/07/2019 14:47 25,6 C 54 % 1014,3 hPa 0,0 mm 5,9 km/h (2 Bft) SE 138 1 min 0 min 0,000 mm 4,8 UV-I 926 W/m 15,6 C 25,6 C 14,2 km/h (3 Bft) 100,00 %
19/07/2019 14:46 25,6 C 54 % 1014,3 hPa 0,0 mm 13,8 km/h (3 Bft) S-SO 194 1 min 0 min 0,000 mm 5,2 UV-I 927 W/m 15,6 C 24,2 C 23,0 km/h (4 Bft) 91,30 %
19/07/2019 14:45 25,7 C 55 % 1014,2 hPa 0,0 mm 7,7 km/h (2 Bft) S-SE 163 1 min 0 min 0,000 mm 4,4 UV-I 930 W/m 16,0 C 25,4 C 15,9 km/h (3 Bft) 100,00 %
19/07/2019 14:44 25,7 C 54 % 1014,3 hPa 0,0 mm 11,1 km/h (2 Bft) S-SE 155 1 min 0 min 0,000 mm 3,3 UV-I 930 W/m 15,7 C 24,7 C 15,9 km/h (3 Bft) 95,83 %
19/07/2019 14:43 25,7 C 53 % 1014,3 hPa 0,0 mm 8,4 km/h (2 Bft) S-SO 200 1 min 0 min 0,000 mm 4,7 UV-I 930 W/m 15,4 C 25,3 C 15,9 km/h (3 Bft) 100,00 %
19/07/2019 14:42 25,7 C 53 % 1014,3 hPa 0,0 mm 14,1 km/h (3 Bft) S-SO 196 1 min 0 min 0,000 mm 5,2 UV-I 930 W/m 15,4 C 24,3 C 19,5 km/h (3 Bft) 100,00 %
19/07/2019 14:41 25,6 C 54 % 1014,3 hPa 0,0 mm 13,5 km/h (3 Bft) O-SO 257 1 min 0 min 0,000 mm 5,3 UV-I 903 W/m 15,6 C 24,2 C 21,2 km/h (4 Bft) 96,00 %
19/07/2019 14:40 25,6 C 52 % 1014,3 hPa 0,0 mm 17,0 km/h (3 Bft) O 265 1 min 0 min 0,000 mm 4,6 UV-I 877 W/m 15,0 C 23,8 C 24,8 km/h (4 Bft) 100,00 %
19/07/2019 14:39 25,7 C 53 % 1014,3 hPa 0,0 mm 19,3 km/h (3 Bft) O-SO 248 1 min 0 min 0,000 mm 4,5 UV-I 625 W/m 15,4 C 23,6 C 26,6 km/h (4 Bft) 100,00 %
19/07/2019 14:38 25,9 C 53 % 1014,3 hPa 0,0 mm 9,7 km/h (2 Bft) SO 225 0 min 0 min 0,000 mm 3,5 UV-I 262 W/m 15,6 C 25,2 C 17,7 km/h (3 Bft) 100,00 %
19/07/2019 14:37 26,2 C 52 % 1014,4 hPa 0,0 mm 8,6 km/h (2 Bft) S-SO 197 0 min 0 min 0,000 mm 3,0 UV-I 269 W/m 15,6 C 25,7 C 14,2 km/h (3 Bft) 100,00 %
19/07/2019 14:36 26,3 C 54 % 1014,4 hPa 0,0 mm 12,8 km/h (3 Bft) S 175 1 min 0 min 0,000 mm 3,5 UV-I 690 W/m 16,2 C 25,2 C 23,0 km/h (4 Bft) 100,00 %
19/07/2019 14:35 26,4 C 52 % 1014,4 hPa 0,0 mm 14,5 km/h (3 Bft) SO 221 1 min 0 min 0,000 mm 4,8 UV-I 773 W/m 15,7 C 25,1 C 23,0 km/h (4 Bft) 100,00 %
19/07/2019 14:34 26,4 C 52 % 1014,3 hPa 0,0 mm 15,1 km/h (3 Bft) SO 225 1 min 0 min 0,000 mm 4,9 UV-I 842 W/m 15,7 C 25,0 C 23,0 km/h (4 Bft) 97,70 %
19/07/2019 14:33 26,4 C 53 % 1014,3 hPa 0,0 mm 12,5 km/h (2 Bft) O-SO 252 1 min 0 min 0,000 mm 5,1 UV-I 969 W/m 16,0 C 25,3 C 28,3 km/h (5 Bft) 97,62 %
19/07/2019 14:32 26,3 C 53 % 1014,3 hPa 0,0 mm 13,3 km/h (3 Bft) O-SO 244 1 min 0 min 0,000 mm 5,0 UV-I 969 W/m 15,9 C 25,1 C 24,8 km/h (4 Bft) 100,00 %
19/07/2019 14:31 26,3 C 54 % 1014,4 hPa 0,0 mm 7,8 km/h (2 Bft) SE 142 1 min 0 min 0,000 mm 5,3 UV-I 969 W/m 16,2 C 26,0 C 15,9 km/h (3 Bft) 100,00 %
19/07/2019 14:30 26,2 C 54 % 1014,4 hPa 0,0 mm 9,9 km/h (2 Bft) O-SO 245 1 min 0 min 0,000 mm 5,4 UV-I 981 W/m 16,1 C 25,5 C 19,5 km/h (3 Bft) 100,00 %
19/07/2019 14:29 26,2 C 55 % 1014,4 hPa 0,0 mm 5,9 km/h (2 Bft) O-SO 254 1 min 0 min 0,000 mm 5,3 UV-I 965 W/m 16,4 C 26,2 C 10,6 km/h (2 Bft) 100,00 %
19/07/2019 14:28 26,1 C 56 % 1014,4 hPa 0,0 mm 3,3 km/h (1 Bft) S-SO 205 1 min 0 min 0,000 mm 5,1 UV-I 892 W/m 16,6 C 26,1 C 7,1 km/h (2 Bft) 95,83 %
19/07/2019 14:27 26,0 C 54 % 1014,5 hPa 0,0 mm 6,3 km/h (2 Bft) O-SO 252 1 min 0 min 0,000 mm 5,2 UV-I 908 W/m 16,0 C 26,0 C 8,9 km/h (2 Bft) 100,00 %
19/07/2019 14:26 26,1 C 54 % 1014,4 hPa 0,0 mm 10,1 km/h (2 Bft) SO 236 1 min 0 min 0,000 mm 5,1 UV-I 886 W/m 16,0 C 25,4 C 21,2 km/h (4 Bft) 100,00 %
19/07/2019 14:25 26,1 C 56 % 1014,5 hPa 0,0 mm 13,7 km/h (3 Bft) S 190 1 min 0 min 0,000 mm 5,0 UV-I 852 W/m 16,6 C 24,8 C 19,5 km/h (3 Bft) 100,00 %
19/07/2019 14:24 26,1 C 55 % 1014,5 hPa 0,0 mm 9,8 km/h (2 Bft) S-SO 211 1 min 0 min 0,000 mm 5,2 UV-I 916 W/m 16,3 C 25,4 C 14,2 km/h (3 Bft) 96,77 %
19/07/2019 14:23 25,9 C 56 % 1014,5 hPa 0,0 mm 8,2 km/h (2 Bft) O-SO 244 1 min 0 min 0,000 mm 5,1 UV-I 937 W/m 16,4 C 25,5 C 12,4 km/h (2 Bft) 92,86 %
19/07/2019 14:22 25,8 C 56 % 1014,4 hPa 0,0 mm 3,6 km/h (1 Bft) E-NE 65 1 min 0 min 0,000 mm 4,9 UV-I 931 W/m 16,3 C 25,8 C 7,1 km/h (2 Bft) 100,00 %
19/07/2019 14:21 25,7 C 58 % 1014,5 hPa 0,0 mm 11,9 km/h (2 Bft) SO 229 1 min 0 min 0,000 mm 5,3 UV-I 924 W/m 16,8 C 24,6 C 17,7 km/h (3 Bft) 96,30 %
19/07/2019 14:20 25,6 C 56 % 1014,5 hPa 0,0 mm 10,3 km/h (2 Bft) S 171 1 min 0 min 0,000 mm 5,3 UV-I 828 W/m 16,2 C 24,8 C 17,7 km/h (3 Bft) 95,83 %
19/07/2019 14:19 25,4 C 57 % 1014,5 hPa 0,0 mm 14,0 km/h (3 Bft) S-SO 207 1 min 0 min 0,000 mm 4,9 UV-I 761 W/m 16,2 C 23,9 C 19,5 km/h (3 Bft) 96,00 %
19/07/2019 14:18 25,3 C 59 % 1014,5 hPa 0,0 mm 10,8 km/h (2 Bft) SO 236 1 min 0 min 0,000 mm 4,7 UV-I 823 W/m 16,7 C 24,3 C 21,2 km/h (4 Bft) 100,00 %
19/07/2019 14:17 25,1 C 59 % 1014,5 hPa 0,0 mm 8,1 km/h (2 Bft) S-SO 193 0 min 0 min 0,000 mm 5,1 UV-I 290 W/m 16,5 C 24,7 C 12,4 km/h (2 Bft) 96,77 %
19/07/2019 14:16 25,1 C 57 % 1014,4 hPa 0,0 mm 8,0 km/h (2 Bft) S 190 0 min 0 min 0,000 mm 4,9 UV-I 290 W/m 16,0 C 24,7 C 15,9 km/h (3 Bft) 100,00 %
19/07/2019 14:15 25,2 C 56 % 1014,5 hPa 0,0 mm 14,3 km/h (3 Bft) S-SO 205 0 min 0 min 0,000 mm 3,3 UV-I 290 W/m 15,8 C 23,7 C 21,2 km/h (4 Bft) 100,00 %
19/07/2019 14:14 25,4 C 56 % 1014,5 hPa 0,0 mm 6,8 km/h (2 Bft) SO 232 0 min 0 min 0,000 mm 2,5 UV-I 274 W/m 16,0 C 25,3 C 12,4 km/h (2 Bft) 100,00 %
19/07/2019 14:13 25,7 C 55 % 1014,5 hPa 0,0 mm 7,9 km/h (2 Bft) O-SO 244 0 min 0 min 0,000 mm 2,6 UV-I 252 W/m 16,0 C 25,4 C 14,2 km/h (3 Bft) 100,00 %
19/07/2019 14:12 25,9 C 55 % 1014,5 hPa 0,0 mm 7,3 km/h (2 Bft) O-SO 240 1 min 0 min 0,000 mm 2,8 UV-I 814 W/m 16,2 C 25,7 C 15,9 km/h (3 Bft) 100,00 %
19/07/2019 14:11 25,9 C 55 % 1014,5 hPa 0,0 mm 10,4 km/h (2 Bft) O-NO 296 1 min 0 min 0,000 mm 3,9 UV-I 868 W/m 16,2 C 25,1 C 19,5 km/h (3 Bft) 96,67 %
19/07/2019 14:10 25,8 C 56 % 1014,5 hPa 0,0 mm 10,9 km/h (2 Bft) O-SO 255 1 min 0 min 0,000 mm 5,3 UV-I 886 W/m 16,3 C 24,9 C 17,7 km/h (3 Bft) 100,00 %
19/07/2019 14:09 25,7 C 57 % 1014,5 hPa 0,0 mm 7,4 km/h (2 Bft) SO 232 1 min 0 min 0,000 mm 5,5 UV-I 907 W/m 16,5 C 25,5 C 10,6 km/h (2 Bft) 100,00 %
19/07/2019 14:08 25,7 C 56 % 1014,6 hPa 0,0 mm 7,1 km/h (2 Bft) S-SE 147 1 min 0 min 0,000 mm 5,5 UV-I 907 W/m 16,2 C 25,5 C 12,4 km/h (2 Bft) 100,00 %
19/07/2019 14:07 25,7 C 55 % 1014,5 hPa 0,0 mm 13,3 km/h (3 Bft) S 186 1 min 0 min 0,000 mm 5,5 UV-I 941 W/m 16,0 C 24,4 C 21,2 km/h (4 Bft) 100,00 %
19/07/2019 14:06 25,7 C 54 % 1014,5 hPa 0,0 mm 13,0 km/h (3 Bft) O-SO 239 1 min 0 min 0,000 mm 5,5 UV-I 955 W/m 15,7 C 24,4 C 23,0 km/h (4 Bft) 95,83 %
19/07/2019 14:05 25,7 C 55 % 1014,5 hPa 0,0 mm 10,0 km/h (2 Bft) O-SO 242 1 min 0 min 0,000 mm 5,5 UV-I 968 W/m 16,0 C 24,9 C 14,2 km/h (3 Bft) 100,00 %
19/07/2019 14:04 25,6 C 56 % 1014,5 hPa 0,0 mm 18,3 km/h (3 Bft) SO 234 1 min 0 min 0,000 mm 5,5 UV-I 980 W/m 16,2 C 23,6 C 24,8 km/h (4 Bft) 100,00 %
19/07/2019 14:03 25,4 C 59 % 1014,5 hPa 0,0 mm 7,4 km/h (2 Bft) O-SO 256 1 min 0 min 0,000 mm 5,4 UV-I 974 W/m 16,8 C 25,2 C 17,7 km/h (3 Bft) 100,00 %
19/07/2019 14:02 25,3 C 57 % 1014,5 hPa 0,0 mm 6,2 km/h (2 Bft) SO 221 1 min 0 min 0,000 mm 5,5 UV-I 948 W/m 16,2 C 25,3 C 8,9 km/h (2 Bft) 100,00 %
19/07/2019 14:01 25,3 C 57 % 1014,5 hPa 0,0 mm 8,7 km/h (2 Bft) SO 216 1 min 0 min 0,457 mm 5,2 UV-I 939 W/m 16,2 C 24,8 C 12,4 km/h (2 Bft) 100,00 %
19/07/2019 14:00 25,3 C 60 % 1014,6 hPa 0,0 mm 7,8 km/h (2 Bft) S-SO 198 1 min 0 min 0,000 mm 5,4 UV-I 940 W/m 17,0 C 25,0 C 15,9 km/h (3 Bft) 100,00 %
19/07/2019 13:59 25,2 C 58 % 1014,6 hPa 0,0 mm 10,5 km/h (2 Bft) S-SO 200 1 min 0 min 0,000 mm 5,4 UV-I 937 W/m 16,3 C 24,3 C 15,9 km/h (3 Bft) 100,00 %
19/07/2019 13:58 25,1 C 59 % 1014,6 hPa 0,0 mm 10,0 km/h (2 Bft) O-NO 293 1 min 0 min 0,000 mm 5,4 UV-I 918 W/m 16,5 C 24,3 C 15,9 km/h (3 Bft) 92,00 %
19/07/2019 13:57 24,9 C 60 % 1014,6 hPa 0,0 mm 6,9 km/h (2 Bft) O-SO 250 1 min 0 min 0,000 mm 5,5 UV-I 935 W/m 16,6 C 24,8 C 12,4 km/h (2 Bft) 100,00 %
19/07/2019 13:56 24,8 C 59 % 1014,7 hPa 0,0 mm 9,1 km/h (2 Bft) SO 235 1 min 0 min 0,000 mm 5,5 UV-I 925 W/m 16,2 C 24,1 C 15,9 km/h (3 Bft) 88,89 %
19/07/2019 13:55 24,8 C 58 % 1014,6 hPa 0,0 mm 9,5 km/h (2 Bft) SO 234 1 min 0 min 0,000 mm 5,3 UV-I 918 W/m 16,0 C 24,0 C 15,9 km/h (3 Bft) 100,00 %
19/07/2019 13:54 24,8 C 58 % 1014,7 hPa 0,0 mm 8,4 km/h (2 Bft) S-SO 213 1 min 0 min 0,000 mm 5,1 UV-I 918 W/m 16,0 C 24,3 C 14,2 km/h (3 Bft) 91,67 %
19/07/2019 13:53 24,8 C 60 % 1014,7 hPa 0,0 mm 12,0 km/h (2 Bft) O-SO 239 2 min 0 min 0,000 mm 5,5 UV-I 919 W/m 16,5 C 23,6 C 23,0 km/h (4 Bft) 94,12 %
19/07/2019 13:51 24,7 C 62 % 1014,7 hPa 0,0 mm 7,1 km/h (2 Bft) SO 227 1 min 0 min 0,000 mm 5,2 UV-I 939 W/m 16,9 C 24,5 C 10,6 km/h (2 Bft) 96,43 %
19/07/2019 13:50 24,6 C 62 % 1014,7 hPa 0,0 mm 11,1 km/h (2 Bft) S-SO 203 1 min 0 min 0,000 mm 4,4 UV-I 967 W/m 16,8 C 23,5 C 19,5 km/h (3 Bft) 96,30 %
19/07/2019 13:49 24,4 C 62 % 1014,7 hPa 0,0 mm 9,5 km/h (2 Bft) S-SO 196 1 min 0 min 0,000 mm 5,4 UV-I 940 W/m 16,6 C 23,6 C 17,7 km/h (3 Bft) 100,00 %
19/07/2019 13:48 24,2 C 61 % 1014,7 hPa 0,0 mm 15,4 km/h (3 Bft) SO 215 0 min 0 min 0,000 mm 5,1 UV-I 348 W/m 16,2 C 22,3 C 19,5 km/h (3 Bft) 96,97 %
19/07/2019 13:47 24,1 C 61 % 1014,6 hPa 0,0 mm 14,7 km/h (3 Bft) O 268 0 min 0 min 0,000 mm 5,1 UV-I 348 W/m 16,1 C 22,3 C 21,2 km/h (4 Bft) 97,69 %
19/07/2019 13:46 24,0 C 62 % 1014,8 hPa 0,0 mm 7,6 km/h (2 Bft) SO 234 0 min 0 min 0,000 mm 5,3 UV-I 348 W/m 16,3 C 23,7 C 19,5 km/h (3 Bft) 96,00 %
19/07/2019 13:45 23,9 C 63 % 1014,7 hPa 0,0 mm 7,9 km/h (2 Bft) O-SO 242 0 min 0 min 0,000 mm 3,8 UV-I 283 W/m 16,4 C 23,5 C 8,9 km/h (2 Bft) 95,83 %
19/07/2019 13:44 23,9 C 63 % 1014,8 hPa 0,0 mm 9,2 km/h (2 Bft) SO 230 0 min 0 min 0,000 mm 3,2 UV-I 241 W/m 16,4 C 23,1 C 12,4 km/h (2 Bft) 96,00 %
19/07/2019 13:43 23,8 C 64 % 1014,8 hPa 0,0 mm 10,5 km/h (2 Bft) SO 220 0 min 0 min 0,000 mm 4,0 UV-I 241 W/m 16,6 C 22,7 C 15,9 km/h (3 Bft) 100,00 %
19/07/2019 13:42 23,8 C 61 % 1014,8 hPa 0,0 mm 1,0 km/h (0 Bft) SO 229 0 min 0 min 0,000 mm 3,7 UV-I 241 W/m 15,8 C 23,8 C 5,3 km/h (1 Bft) 100,00 %
19/07/2019 13:41 24,0 C 61 % 1014,8 hPa 0,0 mm 2,8 km/h (1 Bft) SE 133 0 min 0 min 0,000 mm 3,3 UV-I 241 W/m 16,0 C 24,0 C 3,5 km/h (1 Bft) 100,00 %
19/07/2019 13:40 24,2 C 60 % 1014,8 hPa 0,0 mm 4,9 km/h (1 Bft) SE 140 0 min 0 min 0,000 mm 2,6 UV-I 236 W/m 15,9 C 24,2 C 7,1 km/h (2 Bft) 100,00 %
19/07/2019 13:39 24,2 C 61 % 1014,8 hPa 0,0 mm 4,7 km/h (1 Bft) SO 236 1 min 0 min 0,000 mm 2,8 UV-I 729 W/m 16,2 C 24,2 C 5,3 km/h (1 Bft) 91,67 %
19/07/2019 13:38 24,2 C 62 % 1014,8 hPa 0,0 mm 8,4 km/h (2 Bft) O-SO 240 1 min 0 min 0,000 mm 5,5 UV-I 1048 W/m 16,4 C 23,7 C 12,4 km/h (2 Bft) 95,83 %
19/07/2019 13:37 24,1 C 62 % 1014,9 hPa 0,0 mm 10,1 km/h (2 Bft) S-SO 192 0 min 0 min 0,000 mm 5,4 UV-I 386 W/m 16,4 C 23,1 C 14,2 km/h (3 Bft) 100,00 %
19/07/2019 13:36 24,2 C 61 % 1014,8 hPa 0,0 mm 4,2 km/h (1 Bft) S-SO 213 0 min 0 min 0,000 mm 5,3 UV-I 323 W/m 16,2 C 24,2 C 7,1 km/h (2 Bft) 95,83 %
19/07/2019 13:35 24,2 C 62 % 1014,8 hPa 0,0 mm 8,5 km/h (2 Bft) SO 216 0 min 0 min 0,000 mm 4,4 UV-I 323 W/m 16,4 C 23,6 C 12,4 km/h (2 Bft) 100,00 %
19/07/2019 13:34 24,3 C 60 % 1014,9 hPa 0,0 mm 4,1 km/h (1 Bft) S 186 0 min 0 min 0,000 mm 3,3 UV-I 306 W/m 16,0 C 24,3 C 7,1 km/h (2 Bft) 100,00 %
19/07/2019 13:33 24,6 C 60 % 1014,8 hPa 0,0 mm 5,2 km/h (1 Bft) S-SO 192 1 min 0 min 0,000 mm 3,1 UV-I 625 W/m 16,3 C 24,6 C 14,2 km/h (3 Bft) 100,00 %
19/07/2019 13:32 24,6 C 61 % 1014,9 hPa 0,0 mm 8,3 km/h (2 Bft) S 183 2 min 0 min 0,000 mm 5,2 UV-I 954 W/m 16,6 C 24,1 C 14,2 km/h (3 Bft) 97,44 %
19/07/2019 13:30 24,2 C 62 % 1014,8 hPa 0,0 mm 7,8 km/h (2 Bft) O 281 1 min 0 min 0,000 mm 5,2 UV-I 891 W/m 16,4 C 23,8 C 14,2 km/h (3 Bft) 96,77 %
19/07/2019 13:29 24,0 C 62 % 1014,9 hPa 0,0 mm 7,9 km/h (2 Bft) O-SO 254 1 min 0 min 0,000 mm 5,2 UV-I 879 W/m 16,3 C 23,6 C 14,2 km/h (3 Bft) 100,00 %
19/07/2019 13:28 23,8 C 64 % 1014,9 hPa 0,0 mm 11,6 km/h (2 Bft) O-NO 286 1 min 0 min 0,000 mm 5,2 UV-I 920 W/m 16,6 C 22,5 C 21,2 km/h (4 Bft) 98,28 %
19/07/2019 13:27 23,6 C 63 % 1015,0 hPa 0,0 mm 9,3 km/h (2 Bft) O-SO 242 1 min 0 min 0,000 mm 5,1 UV-I 954 W/m 16,1 C 22,8 C 15,9 km/h (3 Bft) 97,68 %
19/07/2019 13:26 23,4 C 63 % 1015,0 hPa 0,0 mm 5,3 km/h (1 Bft) O-SO 248 1 min 0 min 0,000 mm 5,3 UV-I 954 W/m 15,9 C 23,4 C 10,6 km/h (2 Bft) 93,75 %
19/07/2019 13:25 23,3 C 66 % 1015,0 hPa 0,0 mm 8,7 km/h (2 Bft) S-SE 167 1 min 0 min 0,000 mm 5,4 UV-I 947 W/m 16,6 C 22,6 C 12,4 km/h (2 Bft) 100,00 %
19/07/2019 13:24 23,3 C 63 % 1014,9 hPa 0,0 mm 10,7 km/h (2 Bft) S-SO 193 1 min 0 min 0,000 mm 4,9 UV-I 779 W/m 15,9 C 22,1 C 19,5 km/h (3 Bft) 100,00 %
19/07/2019 13:23 23,2 C 63 % 1014,9 hPa 0,0 mm 5,1 km/h (1 Bft) S 184 1 min 0 min 0,000 mm 4,3 UV-I 749 W/m 15,8 C 23,2 C 7,1 km/h (2 Bft) 96,43 %
19/07/2019 13:22 23,2 C 65 % 1015,0 hPa 0,0 mm 8,9 km/h (2 Bft) SO 227 1 min 0 min 0,000 mm 4,0 UV-I 660 W/m 16,2 C 22,5 C 15,9 km/h (3 Bft) 100,00 %
19/07/2019 13:21 23,2 C 64 % 1014,9 hPa 0,0 mm 10,3 km/h (2 Bft) S-SO 192 2 min 0 min 0,000 mm 3,6 UV-I 654 W/m 16,0 C 22,1 C 15,9 km/h (3 Bft) 98,00 %
19/07/2019 13:19 23,2 C 65 % 1014,9 hPa 0,0 mm 8,8 km/h (2 Bft) SO 214 1 min 0 min 0,000 mm 4,3 UV-I 664 W/m 16,2 C 22,5 C 14,2 km/h (3 Bft) 95,83 %
19/07/2019 13:18 23,1 C 64 % 1014,9 hPa 0,0 mm 7,9 km/h (2 Bft) S-SE 148 1 min 0 min 0,000 mm 3,7 UV-I 664 W/m 15,9 C 22,6 C 14,2 km/h (3 Bft) 100,00 %
19/07/2019 13:17 23,1 C 64 % 1014,9 hPa 0,0 mm 7,2 km/h (2 Bft) S-SO 212 1 min 0 min 0,000 mm 3,2 UV-I 664 W/m 15,9 C 22,8 C 12,4 km/h (2 Bft) 100,00 %
19/07/2019 13:16 23,1 C 64 % 1014,9 hPa 0,0 mm 5,8 km/h (2 Bft) S 184 1 min 0 min 0,000 mm 4,1 UV-I 689 W/m 15,9 C 23,1 C 10,6 km/h (2 Bft) 100,00 %
19/07/2019 13:15 23,1 C 63 % 1014,9 hPa 0,0 mm 4,9 km/h (1 Bft) S 178 0 min 0 min 0,000 mm 4,1 UV-I 420 W/m 15,7 C 23,1 C 7,1 km/h (2 Bft) 96,00 %
19/07/2019 13:14 23,1 C 64 % 1014,9 hPa 0,0 mm 6,9 km/h (2 Bft) O-NO 287 0 min 0 min 0,000 mm 2,9 UV-I 295 W/m 15,9 C 22,9 C 14,2 km/h (3 Bft) 100,00 %
19/07/2019 13:13 23,2 C 64 % 1015,0 hPa 0,0 mm 8,3 km/h (2 Bft) O-SO 245 0 min 0 min 0,000 mm 3,2 UV-I 250 W/m 16,0 C 22,6 C 12,4 km/h (2 Bft) 100,00 %
19/07/2019 13:12 23,2 C 63 % 1015,0 hPa 0,0 mm 6,3 km/h (2 Bft) SO 225 0 min 0 min 0,000 mm 2,6 UV-I 385 W/m 15,8 C 23,2 C 15,9 km/h (3 Bft) 100,00 %
19/07/2019 13:11 23,3 C 64 % 1015,0 hPa 0,0 mm 9,3 km/h (2 Bft) O-SO 248 1 min 0 min 0,000 mm 2,7 UV-I 661 W/m 16,1 C 22,5 C 14,2 km/h (3 Bft) 95,83 %
19/07/2019 13:10 23,4 C 62 % 1015,0 hPa 0,0 mm 10,1 km/h (2 Bft) S-SO 193 0 min 0 min 0,000 mm 3,8 UV-I 457 W/m 15,7 C 22,4 C 17,7 km/h (3 Bft) 100,00 %
19/07/2019 13:09 23,4 C 64 % 1015,0 hPa 0,0 mm 9,2 km/h (2 Bft) S-SO 195 0 min 0 min 0,000 mm 2,8 UV-I 274 W/m 16,2 C 22,6 C 15,9 km/h (3 Bft) 95,83 %
19/07/2019 13:08 23,5 C 67 % 1015,0 hPa 0,0 mm 4,8 km/h (1 Bft) SO 228 1 min 0 min 0,000 mm 2,8 UV-I 571 W/m 17,0 C 23,5 C 8,9 km/h (2 Bft) 100,00 %
19/07/2019 13:07 23,4 C 65 % 1015,0 hPa 0,0 mm 3,8 km/h (1 Bft) S-SO 205 1 min 0 min 0,000 mm 3,5 UV-I 610 W/m 16,4 C 23,4 C 5,3 km/h (1 Bft) 92,59 %
19/07/2019 13:06 23,3 C 66 % 1015,0 hPa 0,0 mm 7,0 km/h (2 Bft) S-SO 205 2 min 0 min 0,000 mm 4,0 UV-I 711 W/m 16,6 C 23,1 C 12,4 km/h (2 Bft) 95,12 %
19/07/2019 13:04 23,2 C 64 % 1015,0 hPa 0,0 mm 9,4 km/h (2 Bft) S-SO 193 1 min 0 min 0,000 mm 3,5 UV-I 786 W/m 16,0 C 22,3 C 14,2 km/h (3 Bft) 97,44 %
19/07/2019 13:03 23,2 C 64 % 1015,0 hPa 0,0 mm 3,1 km/h (1 Bft) SE 139 1 min 0 min 0,000 mm 4,2 UV-I 773 W/m 16,0 C 23,2 C 7,1 km/h (2 Bft) 93,75 %
19/07/2019 13:02 23,3 C 63 % 1015,0 hPa 0,0 mm 8,2 km/h (2 Bft) S 185 1 min 0 min 0,000 mm 3,4 UV-I 773 W/m 15,9 C 22,8 C 19,5 km/h (3 Bft) 95,83 %
19/07/2019 13:01 23,3 C 65 % 1015,0 hPa 0,0 mm 8,4 km/h (2 Bft) S-SO 194 1 min 0 min 0,432 mm 4,3 UV-I 701 W/m 16,3 C 22,7 C 14,2 km/h (3 Bft) 93,33 %
19/07/2019 13:00 23,2 C 65 % 1014,9 hPa 0,0 mm 8,7 km/h (2 Bft) S-SO 210 0 min 0 min 0,000 mm 4,8 UV-I 432 W/m 16,2 C 22,5 C 14,2 km/h (3 Bft) 95,83 %
19/07/2019 12:59 23,3 C 64 % 1015,0 hPa 0,0 mm 13,9 km/h (3 Bft) S 188 1 min 0 min 0,000 mm 3,9 UV-I 606 W/m 16,1 C 21,4 C 21,2 km/h (4 Bft) 97,62 %
19/07/2019 12:58 23,3 C 64 % 1014,9 hPa 0,0 mm 8,6 km/h (2 Bft) SO 216 1 min 0 min 0,000 mm 4,4 UV-I 896 W/m 16,1 C 22,6 C 14,2 km/h (3 Bft) 100,00 %
19/07/2019 12:57 23,3 C 63 % 1014,9 hPa 0,0 mm 9,3 km/h (2 Bft) S-SO 195 1 min 0 min 0,000 mm 4,6 UV-I 895 W/m 15,9 C 22,5 C 15,9 km/h (3 Bft) 100,00 %
19/07/2019 12:56 23,3 C 64 % 1014,9 hPa 0,0 mm 6,5 km/h (2 Bft) S-SO 194 1 min 0 min 0,000 mm 4,1 UV-I 837 W/m 16,1 C 23,3 C 12,4 km/h (2 Bft) 92,00 %
19/07/2019 12:55 23,2 C 64 % 1014,9 hPa 0,0 mm 4,1 km/h (1 Bft) S-SO 192 1 min 0 min 0,000 mm 4,1 UV-I 793 W/m 16,0 C 23,2 C 7,1 km/h (2 Bft) 95,83 %
19/07/2019 12:54 23,2 C 66 % 1015,0 hPa 0,0 mm 9,2 km/h (2 Bft) SE 125 1 min 0 min 0,000 mm 4,3 UV-I 871 W/m 16,5 C 22,4 C 12,4 km/h (2 Bft) 100,00 %
19/07/2019 12:53 23,1 C 65 % 1015,0 hPa 0,0 mm 8,5 km/h (2 Bft) E-SE 117 1 min 0 min 0,000 mm 4,2 UV-I 862 W/m 16,2 C 22,5 C 19,5 km/h (3 Bft) 96,00 %
19/07/2019 12:52 23,0 C 64 % 1015,1 hPa 0,0 mm 7,9 km/h (2 Bft) S 180 1 min 0 min 0,000 mm 4,3 UV-I 839 W/m 15,8 C 22,5 C 14,2 km/h (3 Bft) 100,00 %
19/07/2019 12:51 23,0 C 64 % 1015,1 hPa 0,0 mm 7,2 km/h (2 Bft) S 189 1 min 0 min 0,000 mm 4,0 UV-I 795 W/m 15,8 C 22,7 C 14,2 km/h (3 Bft) 84,00 %
19/07/2019 12:50 23,1 C 65 % 1015,1 hPa 0,0 mm 5,5 km/h (2 Bft) E-SE 121 1 min 0 min 0,000 mm 4,4 UV-I 766 W/m 16,2 C 23,1 C 10,6 km/h (2 Bft) 95,83 %
19/07/2019 12:49 23,1 C 64 % 1015,1 hPa 0,0 mm 5,0 km/h (1 Bft) S-SE 164 1 min 0 min 0,000 mm 4,1 UV-I 771 W/m 15,9 C 23,1 C 12,4 km/h (2 Bft) 91,67 %
19/07/2019 12:48 23,2 C 63 % 1015,1 hPa 0,0 mm 4,8 km/h (1 Bft) SE 127 1 min 0 min 0,000 mm 3,2 UV-I 753 W/m 15,8 C 23,2 C 7,1 km/h (2 Bft) 100,00 %
19/07/2019 12:47 23,3 C 64 % 1015,1 hPa 0,0 mm 7,5 km/h (2 Bft) SE 132 1 min 0 min 0,000 mm 2,9 UV-I 773 W/m 16,1 C 23,0 C 12,4 km/h (2 Bft) 96,00 %
19/07/2019 12:46 23,3 C 64 % 1015,1 hPa 0,0 mm 7,8 km/h (2 Bft) O-SO 242 1 min 0 min 0,000 mm 3,7 UV-I 773 W/m 16,1 C 22,9 C 10,6 km/h (2 Bft) 95,83 %
19/07/2019 12:45 23,4 C 65 % 1015,2 hPa 0,0 mm 5,7 km/h (2 Bft) O-SO 252 1 min 0 min 0,000 mm 4,3 UV-I 776 W/m 16,4 C 23,4 C 8,9 km/h (2 Bft) 100,00 %
19/07/2019 12:44 23,4 C 67 % 1015,1 hPa 0,0 mm 7,5 km/h (2 Bft) S-SE 153 1 min 0 min 0,000 mm 4,2 UV-I 800 W/m 16,9 C 23,1 C 10,6 km/h (2 Bft) 91,67 %
19/07/2019 12:43 23,3 C 65 % 1015,2 hPa 0,0 mm 7,2 km/h (2 Bft) S-SO 197 1 min 0 min 0,000 mm 4,3 UV-I 803 W/m 16,3 C 23,1 C 8,9 km/h (2 Bft) 100,00 %
19/07/2019 12:42 23,3 C 65 % 1015,2 hPa 0,0 mm 8,1 km/h (2 Bft) O-SO 252 1 min 0 min 0,000 mm 3,8 UV-I 832 W/m 16,3 C 22,8 C 14,2 km/h (3 Bft) 96,67 %
19/07/2019 12:41 23,2 C 67 % 1015,2 hPa 0,0 mm 9,7 km/h (2 Bft) SO 230 1 min 0 min 0,000 mm 4,4 UV-I 846 W/m 16,7 C 22,3 C 12,4 km/h (2 Bft) 100,00 %
19/07/2019 12:40 23,1 C 69 % 1015,2 hPa 0,0 mm 10,1 km/h (2 Bft) SO 217 1 min 0 min 0,000 mm 4,5 UV-I 847 W/m 17,1 C 22,0 C 15,9 km/h (3 Bft) 94,87 %
19/07/2019 12:39 22,9 C 68 % 1015,2 hPa 0,0 mm 12,0 km/h (2 Bft) SO 221 1 min 0 min 0,000 mm 4,5 UV-I 847 W/m 16,7 C 21,4 C 17,7 km/h (3 Bft) 85,00 %
19/07/2019 12:38 22,9 C 65 % 1015,2 hPa 0,0 mm 3,0 km/h (1 Bft) S-SE 159 1 min 0 min 0,000 mm 4,1 UV-I 847 W/m 16,0 C 22,9 C 7,1 km/h (2 Bft) 100,00 %
19/07/2019 12:37 22,9 C 65 % 1015,2 hPa 0,0 mm 8,4 km/h (2 Bft) E-SE 113 1 min 0 min 0,000 mm 3,8 UV-I 847 W/m 16,0 C 22,3 C 15,9 km/h (3 Bft) 96,00 %
19/07/2019 12:36 22,9 C 69 % 1015,2 hPa 0,0 mm 8,3 km/h (2 Bft) SO 234 1 min 0 min 0,000 mm 4,3 UV-I 847 W/m 16,9 C 22,3 C 10,6 km/h (2 Bft) 91,67 %
19/07/2019 12:35 22,8 C 65 % 1015,2 hPa 0,0 mm 11,7 km/h (2 Bft) SO 215 1 min 0 min 0,000 mm 4,1 UV-I 787 W/m 15,9 C 21,3 C 21,2 km/h (4 Bft) 96,15 %
19/07/2019 12:34 22,7 C 66 % 1015,2 hPa 0,0 mm 8,8 km/h (2 Bft) S 190 1 min 0 min 0,000 mm 4,1 UV-I 733 W/m 16,0 C 21,9 C 14,2 km/h (3 Bft) 100,00 %
19/07/2019 12:33 22,6 C 66 % 1015,2 hPa 0,0 mm 7,4 km/h (2 Bft) O-SO 245 1 min 0 min 0,000 mm 4,2 UV-I 754 W/m 15,9 C 22,3 C 14,2 km/h (3 Bft) 91,67 %
19/07/2019 12:32 22,6 C 66 % 1015,2 hPa 0,0 mm 7,9 km/h (2 Bft) S-SO 213 1 min 0 min 0,000 mm 4,2 UV-I 580 W/m 15,9 C 22,1 C 15,9 km/h (3 Bft) 96,00 %
19/07/2019 12:31 22,5 C 66 % 1015,3 hPa 0,0 mm 8,7 km/h (2 Bft) O-SO 254 1 min 0 min 0,000 mm 3,8 UV-I 580 W/m 15,8 C 21,8 C 14,2 km/h (3 Bft) 100,00 %
19/07/2019 12:30 22,4 C 67 % 1015,3 hPa 0,0 mm 8,8 km/h (2 Bft) SO 217 1 min 0 min 0,000 mm 3,3 UV-I 558 W/m 16,0 C 21,6 C 17,7 km/h (3 Bft) 96,43 %
19/07/2019 12:29 22,5 C 65 % 1015,3 hPa 0,0 mm 9,4 km/h (2 Bft) SO 219 1 min 0 min 0,000 mm 3,0 UV-I 520 W/m 15,6 C 21,6 C 14,2 km/h (3 Bft) 95,83 %
19/07/2019 12:28 22,6 C 66 % 1015,3 hPa 0,0 mm 6,2 km/h (2 Bft) S-SO 207 1 min 0 min 0,000 mm 2,9 UV-I 520 W/m 15,9 C 22,6 C 8,9 km/h (2 Bft) 96,00 %
19/07/2019 12:27 22,7 C 66 % 1015,3 hPa 0,0 mm 7,5 km/h (2 Bft) S-SO 194 1 min 0 min 0,000 mm 3,1 UV-I 522 W/m 16,0 C 22,3 C 10,6 km/h (2 Bft) 100,00 %
19/07/2019 12:26 22,7 C 66 % 1015,3 hPa 0,0 mm 3,4 km/h (1 Bft) SO 229 1 min 0 min 0,000 mm 3,4 UV-I 576 W/m 16,0 C 22,7 C 5,3 km/h (1 Bft) 100,00 %
19/07/2019 12:25 22,7 C 69 % 1015,3 hPa 0,0 mm 11,1 km/h (2 Bft) S 190 1 min 0 min 0,000 mm 3,4 UV-I 576 W/m 16,7 C 21,3 C 19,5 km/h (3 Bft) 91,67 %
19/07/2019 12:24 22,6 C 67 % 1015,2 hPa 0,0 mm 7,3 km/h (2 Bft) S 188 1 min 0 min 0,000 mm 3,5 UV-I 676 W/m 16,2 C 22,3 C 15,9 km/h (3 Bft) 100,00 %
19/07/2019 12:23 22,6 C 66 % 1015,3 hPa 0,0 mm 4,4 km/h (1 Bft) SO 234 1 min 0 min 0,000 mm 3,2 UV-I 773 W/m 15,9 C 22,6 C 8,9 km/h (2 Bft) 100,00 %
19/07/2019 12:22 22,5 C 67 % 1015,2 hPa 0,0 mm 4,0 km/h (1 Bft) O-SO 246 1 min 0 min 0,000 mm 4,0 UV-I 773 W/m 16,1 C 22,5 C 7,1 km/h (2 Bft) 100,00 %
19/07/2019 12:21 22,4 C 67 % 1015,3 hPa 0,0 mm 5,7 km/h (2 Bft) SO 215 1 min 0 min 0,000 mm 4,1 UV-I 729 W/m 16,0 C 22,4 C 10,6 km/h (2 Bft) 100,00 %
19/07/2019 12:20 22,4 C 67 % 1015,2 hPa 0,0 mm 5,8 km/h (2 Bft) S 190 1 min 0 min 0,000 mm 4,1 UV-I 747 W/m 16,0 C 22,4 C 8,9 km/h (2 Bft) 100,00 %
19/07/2019 12:19 22,4 C 68 % 1015,2 hPa 0,0 mm 4,4 km/h (1 Bft) S 183 2 min 0 min 0,000 mm 3,8 UV-I 664 W/m 16,2 C 22,4 C 10,6 km/h (2 Bft) 100,00 %
19/07/2019 12:17 22,2 C 68 % 1015,3 hPa 0,0 mm 6,6 km/h (2 Bft) O-SO 250 1 min 0 min 0,000 mm 3,8 UV-I 739 W/m 16,0 C 22,1 C 8,9 km/h (2 Bft) 100,00 %
19/07/2019 12:16 22,2 C 69 % 1015,2 hPa 0,0 mm 7,5 km/h (2 Bft) SO 232 1 min 0 min 0,000 mm 4,2 UV-I 788 W/m 16,2 C 21,8 C 15,9 km/h (3 Bft) 100,00 %
19/07/2019 12:15 22,1 C 69 % 1015,3 hPa 0,0 mm 7,1 km/h (2 Bft) S-SO 200 1 min 0 min 0,000 mm 4,1 UV-I 725 W/m 16,1 C 21,9 C 12,4 km/h (2 Bft) 100,00 %
19/07/2019 12:14 22,0 C 69 % 1015,3 hPa 0,0 mm 6,7 km/h (2 Bft) SO 227 2 min 0 min 0,000 mm 3,6 UV-I 630 W/m 16,0 C 21,9 C 14,2 km/h (3 Bft) 98,08 %
19/07/2019 12:12 21,8 C 68 % 1015,3 hPa 0,0 mm 7,0 km/h (2 Bft) O-SO 241 1 min 0 min 0,000 mm 3,6 UV-I 608 W/m 15,6 C 21,6 C 10,6 km/h (2 Bft) 92,59 %
19/07/2019 12:11 21,8 C 70 % 1015,2 hPa 0,0 mm 8,5 km/h (2 Bft) S 170 1 min 0 min 0,000 mm 3,8 UV-I 659 W/m 16,1 C 21,1 C 15,9 km/h (3 Bft) 100,00 %
19/07/2019 12:10 21,8 C 70 % 1015,2 hPa 0,0 mm 3,7 km/h (1 Bft) E-NE 68 1 min 0 min 0,000 mm 3,9 UV-I 546 W/m 16,1 C 21,8 C 7,1 km/h (2 Bft) 100,00 %
19/07/2019 12:09 21,8 C 70 % 1015,3 hPa 0,0 mm 3,6 km/h (1 Bft) SO 219 1 min 0 min 0,000 mm 3,6 UV-I 508 W/m 16,1 C 21,8 C 7,1 km/h (2 Bft) 96,00 %
19/07/2019 12:08 21,8 C 69 % 1015,3 hPa 0,0 mm 6,1 km/h (2 Bft) S-SE 164 1 min 0 min 0,000 mm 2,9 UV-I 508 W/m 15,9 C 21,8 C 12,4 km/h (2 Bft) 95,83 %
19/07/2019 12:07 21,8 C 70 % 1015,3 hPa 0,0 mm 5,1 km/h (1 Bft) SE 136 1 min 0 min 0,000 mm 3,1 UV-I 508 W/m 16,1 C 21,8 C 7,1 km/h (2 Bft) 100,00 %
19/07/2019 12:06 21,8 C 69 % 1015,3 hPa 0,0 mm 7,4 km/h (2 Bft) SE 139 1 min 0 min 0,000 mm 3,3 UV-I 623 W/m 15,9 C 21,4 C 12,4 km/h (2 Bft) 100,00 %
19/07/2019 12:05 21,9 C 69 % 1015,3 hPa 0,0 mm 6,1 km/h (2 Bft) SE 129 1 min 0 min 0,000 mm 3,5 UV-I 728 W/m 15,9 C 21,9 C 10,6 km/h (2 Bft) 100,00 %
19/07/2019 12:04 21,9 C 69 % 1015,3 hPa 0,0 mm 4,6 km/h (1 Bft) S-SO 206 1 min 0 min 0,000 mm 3,7 UV-I 728 W/m 15,9 C 21,9 C 7,1 km/h (2 Bft) 100,00 %
19/07/2019 12:03 22,0 C 68 % 1015,3 hPa 0,0 mm 5,3 km/h (1 Bft) S 188 1 min 0 min 0,000 mm 3,9 UV-I 762 W/m 15,8 C 22,0 C 7,1 km/h (2 Bft) 100,00 %
19/07/2019 12:02 22,1 C 68 % 1015,2 hPa 0,0 mm 3,7 km/h (1 Bft) S 170 1 min 0 min 0,000 mm 3,8 UV-I 744 W/m 15,9 C 22,1 C 7,1 km/h (2 Bft) 100,00 %
19/07/2019 12:01 22,2 C 69 % 1015,3 hPa 0,0 mm 4,8 km/h (1 Bft) S 190 1 min 0 min 0,355 mm 3,5 UV-I 701 W/m 16,2 C 22,2 C 7,1 km/h (2 Bft) 100,00 %
19/07/2019 12:00 22,2 C 69 % 1015,3 hPa 0,0 mm 8,9 km/h (2 Bft) SO 234 1 min 0 min 0,000 mm 3,7 UV-I 747 W/m 16,2 C 21,4 C 15,9 km/h (3 Bft) 100,00 %
19/07/2019 11:59 22,1 C 70 % 1015,3 hPa 0,0 mm 13,8 km/h (3 Bft) S 186 1 min 0 min 0,000 mm 3,9 UV-I 746 W/m 16,4 C 20,0 C 19,5 km/h (3 Bft) 100,00 %
19/07/2019 11:58 22,1 C 69 % 1015,3 hPa 0,0 mm 2,8 km/h (1 Bft) S 177 1 min 0 min 0,000 mm 3,8 UV-I 709 W/m 16,1 C 22,1 C 7,1 km/h (2 Bft) 100,00 %
19/07/2019 11:57 21,9 C 70 % 1015,3 hPa 0,0 mm 5,7 km/h (2 Bft) SE 142 1 min 0 min 0,000 mm 3,7 UV-I 645 W/m 16,2 C 21,9 C 10,6 km/h (2 Bft) 100,00 %
19/07/2019 11:56 21,8 C 72 % 1015,3 hPa 0,0 mm 6,0 km/h (2 Bft) S 172 1 min 0 min 0,000 mm 3,8 UV-I 691 W/m 16,5 C 21,8 C 7,1 km/h (2 Bft) 100,00 %
19/07/2019 11:55 21,7 C 70 % 1015,3 hPa 0,0 mm 8,5 km/h (2 Bft) S-SO 209 1 min 0 min 0,000 mm 3,7 UV-I 682 W/m 16,0 C 21,0 C 10,6 km/h (2 Bft) 100,00 %
19/07/2019 11:54 21,7 C 69 % 1015,2 hPa 0,0 mm 4,7 km/h (1 Bft) S 190 1 min 0 min 0,000 mm 3,7 UV-I 669 W/m 15,8 C 21,7 C 10,6 km/h (2 Bft) 100,00 %
19/07/2019 11:53 21,7 C 70 % 1015,2 hPa 0,0 mm 3,8 km/h (1 Bft) O-NO 302 1 min 0 min 0,000 mm 3,8 UV-I 695 W/m 16,0 C 21,7 C 7,1 km/h (2 Bft) 100,00 %
19/07/2019 11:52 21,7 C 70 % 1015,3 hPa 0,0 mm 5,2 km/h (1 Bft) O 270 1 min 0 min 0,000 mm 3,8 UV-I 708 W/m 16,0 C 21,7 C 7,1 km/h (2 Bft) 100,00 %
19/07/2019 11:51 21,7 C 70 % 1015,4 hPa 0,0 mm 7,3 km/h (2 Bft) O 263 1 min 0 min 0,000 mm 3,7 UV-I 705 W/m 16,0 C 21,4 C 10,6 km/h (2 Bft) 97,68 %
19/07/2019 11:50 21,6 C 71 % 1015,3 hPa 0,0 mm 4,3 km/h (1 Bft) S-SO 209 1 min 0 min 0,000 mm 3,8 UV-I 715 W/m 16,1 C 21,6 C 7,1 km/h (2 Bft) 100,00 %
19/07/2019 11:49 21,5 C 74 % 1015,4 hPa 0,0 mm 7,5 km/h (2 Bft) SO 232 1 min 0 min 0,000 mm 3,7 UV-I 728 W/m 16,7 C 21,1 C 10,6 km/h (2 Bft) 96,43 %
19/07/2019 11:48 21,3 C 74 % 1015,4 hPa 0,0 mm 3,0 km/h (1 Bft) O-SO 252 2 min 0 min 0,000 mm 3,5 UV-I 677 W/m 16,5 C 21,3 C 5,3 km/h (1 Bft) 97,62 %
19/07/2019 11:46 21,0 C 73 % 1015,3 hPa 0,0 mm 1,2 km/h (1 Bft) S-SE 163 1 min 0 min 0,000 mm 3,4 UV-I 518 W/m 16,0 C 21,0 C 3,5 km/h (1 Bft) 100,00 %
19/07/2019 11:45 21,0 C 74 % 1015,3 hPa 0,0 mm 0,0 km/h (0 Bft) S-SE 159 1 min 0 min 0,000 mm 3,2 UV-I 501 W/m 16,2 C 21,0 C 0,0 km/h (0 Bft) 96,00 %
19/07/2019 11:44 21,0 C 72 % 1015,4 hPa 0,0 mm 0,5 km/h (0 Bft) S-SE 159 1 min 0 min 0,000 mm 2,8 UV-I 476 W/m 15,8 C 21,0 C 1,8 km/h (1 Bft) 100,00 %
19/07/2019 11:43 21,1 C 72 % 1015,4 hPa 0,0 mm 2,1 km/h (1 Bft) S-SE 159 1 min 0 min 0,000 mm 2,7 UV-I 439 W/m 15,8 C 21,1 C 3,5 km/h (1 Bft) 92,00 %
19/07/2019 11:42 21,2 C 72 % 1015,4 hPa 0,0 mm 2,1 km/h (1 Bft) SE 131 1 min 0 min 0,000 mm 2,9 UV-I 525 W/m 15,9 C 21,2 C 3,5 km/h (1 Bft) 100,00 %
19/07/2019 11:41 21,2 C 72 % 1015,4 hPa 0,0 mm 2,8 km/h (1 Bft) E-SE 107 1 min 0 min 0,000 mm 3,0 UV-I 575 W/m 15,9 C 21,2 C 5,3 km/h (1 Bft) 100,00 %
19/07/2019 11:40 21,3 C 73 % 1015,4 hPa 0,0 mm 1,9 km/h (1 Bft) S 176 1 min 0 min 0,000 mm 3,1 UV-I 573 W/m 16,3 C 21,3 C 3,5 km/h (1 Bft) 95,83 %
19/07/2019 11:39 21,2 C 72 % 1015,5 hPa 0,0 mm 6,6 km/h (2 Bft) S 176 1 min 0 min 0,000 mm 3,1 UV-I 537 W/m 15,9 C 21,1 C 10,6 km/h (2 Bft) 100,00 %
19/07/2019 11:38 21,3 C 71 % 1015,4 hPa 0,0 mm 9,5 km/h (2 Bft) S-SO 198 1 min 0 min 0,000 mm 2,9 UV-I 517 W/m 15,8 C 20,2 C 12,4 km/h (2 Bft) 100,00 %
19/07/2019 11:37 21,3 C 72 % 1015,5 hPa 0,0 mm 6,9 km/h (2 Bft) S-SO 192 1 min 0 min 0,000 mm 3,0 UV-I 520 W/m 16,0 C 21,1 C 14,2 km/h (3 Bft) 100,00 %
19/07/2019 11:36 21,3 C 72 % 1015,6 hPa 0,0 mm 8,1 km/h (2 Bft) SO 216 1 min 0 min 0,000 mm 3,1 UV-I 550 W/m 16,0 C 20,7 C 15,9 km/h (3 Bft) 100,00 %
19/07/2019 11:35 21,3 C 72 % 1015,5 hPa 0,0 mm 9,8 km/h (2 Bft) SO 225 1 min 0 min 0,000 mm 3,0 UV-I 540 W/m 16,0 C 20,1 C 15,9 km/h (3 Bft) 100,00 %
19/07/2019 11:34 21,3 C 72 % 1015,5 hPa 0,0 mm 6,2 km/h (2 Bft) S-SO 206 1 min 0 min 0,000 mm 2,7 UV-I 598 W/m 16,0 C 21,3 C 10,6 km/h (2 Bft) 100,00 %
19/07/2019 11:33 21,4 C 72 % 1015,5 hPa 0,0 mm 8,4 km/h (2 Bft) O-SO 255 1 min 0 min 0,000 mm 3,1 UV-I 597 W/m 16,1 C 20,7 C 12,4 km/h (2 Bft) 93,75 %
19/07/2019 11:32 21,4 C 74 % 1015,5 hPa 0,0 mm 5,0 km/h (1 Bft) SO 226 1 min 0 min 0,000 mm 3,1 UV-I 589 W/m 16,6 C 21,4 C 10,6 km/h (2 Bft) 100,00 %
19/07/2019 11:31 21,4 C 74 % 1015,5 hPa 0,0 mm 10,9 km/h (2 Bft) O-SO 255 1 min 0 min 0,000 mm 3,1 UV-I 581 W/m 16,6 C 19,9 C 15,9 km/h (3 Bft) 100,00 %
19/07/2019 11:30 21,4 C 74 % 1015,5 hPa 0,0 mm 10,9 km/h (2 Bft) O-SO 244 1 min 0 min 0,000 mm 3,1 UV-I 578 W/m 16,6 C 19,9 C 15,9 km/h (3 Bft) 100,00 %
19/07/2019 11:29 21,3 C 73 % 1015,5 hPa 0,0 mm 9,3 km/h (2 Bft) O-SO 244 1 min 0 min 0,000 mm 3,1 UV-I 583 W/m 16,3 C 20,3 C 14,2 km/h (3 Bft) 97,67 %
19/07/2019 11:28 21,3 C 73 % 1015,5 hPa 0,0 mm 6,3 km/h (2 Bft) SO 232 1 min 0 min 0,000 mm 3,0 UV-I 566 W/m 16,3 C 21,3 C 8,9 km/h (2 Bft) 97,65 %
19/07/2019 11:27 21,3 C 74 % 1015,5 hPa 0,0 mm 7,9 km/h (2 Bft) O-NO 291 1 min 0 min 0,000 mm 3,1 UV-I 623 W/m 16,5 C 20,8 C 14,2 km/h (3 Bft) 100,00 %
19/07/2019 11:26 21,2 C 75 % 1015,5 hPa 0,0 mm 5,9 km/h (2 Bft) O 260 1 min 0 min 0,000 mm 3,1 UV-I 627 W/m 16,6 C 21,2 C 12,4 km/h (2 Bft) 100,00 %
19/07/2019 11:25 21,1 C 75 % 1015,5 hPa 0,0 mm 7,0 km/h (2 Bft) SO 234 1 min 0 min 0,000 mm 3,2 UV-I 601 W/m 16,5 C 20,9 C 12,4 km/h (2 Bft) 96,43 %
19/07/2019 11:24 20,9 C 74 % 1015,5 hPa 0,0 mm 6,9 km/h (2 Bft) O-SO 244 1 min 0 min 0,000 mm 3,3 UV-I 653 W/m 16,1 C 20,7 C 12,4 km/h (2 Bft) 100,00 %
19/07/2019 11:23 20,8 C 75 % 1015,5 hPa 0,0 mm 6,9 km/h (2 Bft) O-SO 248 1 min 0 min 0,000 mm 3,2 UV-I 641 W/m 16,2 C 20,6 C 12,4 km/h (2 Bft) 100,00 %
19/07/2019 11:22 20,7 C 77 % 1015,5 hPa 0,0 mm 3,2 km/h (1 Bft) O-SO 248 1 min 0 min 0,000 mm 3,3 UV-I 669 W/m 16,5 C 20,7 C 7,1 km/h (2 Bft) 92,00 %
19/07/2019 11:21 20,6 C 76 % 1015,5 hPa 0,0 mm 5,8 km/h (2 Bft) O-SO 246 1 min 0 min 0,000 mm 3,3 UV-I 656 W/m 16,2 C 20,6 C 10,6 km/h (2 Bft) 97,30 %
19/07/2019 11:20 20,6 C 74 % 1015,6 hPa 0,0 mm 6,9 km/h (2 Bft) S-SO 198 1 min 0 min 0,000 mm 3,2 UV-I 647 W/m 15,8 C 20,4 C 14,2 km/h (3 Bft) 100,00 %
19/07/2019 11:19 20,6 C 76 % 1015,6 hPa 0,0 mm 6,2 km/h (2 Bft) S 181 1 min 0 min 0,000 mm 3,1 UV-I 623 W/m 16,2 C 20,6 C 8,9 km/h (2 Bft) 96,00 %
19/07/2019 11:18 20,6 C 74 % 1015,6 hPa 0,0 mm 5,8 km/h (2 Bft) S 186 1 min 0 min 0,000 mm 3,0 UV-I 606 W/m 15,8 C 20,6 C 12,4 km/h (2 Bft) 95,83 %
19/07/2019 11:17 20,6 C 76 % 1015,6 hPa 0,0 mm 7,0 km/h (2 Bft) SO 221 1 min 0 min 0,000 mm 3,1 UV-I 611 W/m 16,2 C 20,4 C 8,9 km/h (2 Bft) 95,83 %
19/07/2019 11:16 20,6 C 77 % 1015,6 hPa 0,0 mm 7,9 km/h (2 Bft) SO 223 1 min 0 min 0,000 mm 2,9 UV-I 611 W/m 16,4 C 20,0 C 10,6 km/h (2 Bft) 96,15 %
19/07/2019 11:15 20,4 C 78 % 1015,6 hPa 0,0 mm 5,9 km/h (2 Bft) SO 236 1 min 0 min 0,000 mm 2,8 UV-I 554 W/m 16,4 C 20,4 C 12,4 km/h (2 Bft) 100,00 %
19/07/2019 11:14 20,4 C 78 % 1015,6 hPa 0,0 mm 2,8 km/h (1 Bft) O-SO 244 1 min 0 min 0,000 mm 2,7 UV-I 559 W/m 16,4 C 20,4 C 5,3 km/h (1 Bft) 100,00 %
19/07/2019 11:13 20,3 C 77 % 1015,7 hPa 0,0 mm 2,5 km/h (1 Bft) SO 221 1 min 0 min 0,000 mm 2,6 UV-I 527 W/m 16,1 C 20,3 C 3,5 km/h (1 Bft) 96,30 %
19/07/2019 11:12 20,4 C 77 % 1015,7 hPa 0,0 mm 3,9 km/h (1 Bft) SO 234 1 min 0 min 0,000 mm 2,6 UV-I 497 W/m 16,2 C 20,4 C 5,3 km/h (1 Bft) 100,00 %
19/07/2019 11:11 20,3 C 77 % 1015,7 hPa 0,0 mm 6,4 km/h (2 Bft) SO 219 1 min 0 min 0,000 mm 2,6 UV-I 510 W/m 16,1 C 20,3 C 8,9 km/h (2 Bft) 93,33 %
19/07/2019 11:10 20,3 C 77 % 1015,7 hPa 0,0 mm 4,8 km/h (1 Bft) SO 236 1 min 0 min 0,000 mm 2,8 UV-I 586 W/m 16,1 C 20,3 C 8,9 km/h (2 Bft) 100,00 %
19/07/2019 11:09 20,2 C 78 % 1015,6 hPa 0,0 mm 8,1 km/h (2 Bft) O 261 1 min 0 min 0,000 mm 2,8 UV-I 583 W/m 16,2 C 19,5 C 10,6 km/h (2 Bft) 100,00 %
19/07/2019 11:08 20,1 C 78 % 1015,7 hPa 0,0 mm 7,4 km/h (2 Bft) SO 236 1 min 0 min 0,000 mm 2,8 UV-I 573 W/m 16,1 C 19,7 C 14,2 km/h (3 Bft) 100,00 %
19/07/2019 11:07 20,0 C 77 % 1015,7 hPa 0,0 mm 4,9 km/h (1 Bft) O-SO 254 1 min 0 min 0,000 mm 2,7 UV-I 394 W/m 15,8 C 20,0 C 8,9 km/h (2 Bft) 100,00 %
19/07/2019 11:06 19,9 C 76 % 1015,6 hPa 0,0 mm 5,2 km/h (1 Bft) O-SO 250 0 min 0 min 0,000 mm 2,6 UV-I 311 W/m 15,5 C 19,9 C 7,1 km/h (2 Bft) 100,00 %
19/07/2019 11:05 19,9 C 76 % 1015,7 hPa 0,0 mm 6,3 km/h (2 Bft) O-NO 298 0 min 0 min 0,000 mm 1,8 UV-I 240 W/m 15,5 C 19,9 C 12,4 km/h (2 Bft) 100,00 %
19/07/2019 11:04 20,0 C 76 % 1015,6 hPa 0,0 mm 8,6 km/h (2 Bft) O-SO 252 0 min 0 min 0,000 mm 1,7 UV-I 229 W/m 15,6 C 19,1 C 12,4 km/h (2 Bft) 95,83 %
19/07/2019 11:03 20,0 C 77 % 1015,7 hPa 0,0 mm 7,9 km/h (2 Bft) O-NO 287 0 min 0 min 0,000 mm 1,7 UV-I 244 W/m 15,8 C 19,4 C 12,4 km/h (2 Bft) 96,30 %
19/07/2019 11:02 20,0 C 77 % 1015,6 hPa 0,0 mm 5,3 km/h (1 Bft) S-SO 208 0 min 0 min 0,000 mm 1,6 UV-I 261 W/m 15,8 C 20,0 C 7,1 km/h (2 Bft) 96,43 %
19/07/2019 11:01 20,1 C 78 % 1015,7 hPa 0,0 mm 6,5 km/h (2 Bft) SO 230 0 min 0 min 0,229 mm 1,6 UV-I 269 W/m 16,1 C 20,1 C 10,6 km/h (2 Bft) 100,00 %
19/07/2019 11:00 20,1 C 77 % 1015,7 hPa 0,0 mm 5,4 km/h (2 Bft) S 180 0 min 0 min 0,000 mm 1,6 UV-I 281 W/m 15,9 C 20,1 C 7,1 km/h (2 Bft) 83,33 %
19/07/2019 10:59 20,1 C 77 % 1015,7 hPa 0,0 mm 5,6 km/h (2 Bft) O 265 0 min 0 min 0,000 mm 1,6 UV-I 288 W/m 15,9 C 20,1 C 10,6 km/h (2 Bft) 100,00 %
19/07/2019 10:58 20,1 C 77 % 1015,7 hPa 0,0 mm 4,0 km/h (1 Bft) O-SO 250 0 min 0 min 0,000 mm 1,6 UV-I 299 W/m 15,9 C 20,1 C 5,3 km/h (1 Bft) 100,00 %
19/07/2019 10:57 20,1 C 77 % 1015,7 hPa 0,0 mm 6,9 km/h (2 Bft) O-SO 250 0 min 0 min 0,000 mm 1,6 UV-I 306 W/m 15,9 C 19,9 C 10,6 km/h (2 Bft) 95,83 %
19/07/2019 10:56 20,1 C 77 % 1015,7 hPa 0,0 mm 7,4 km/h (2 Bft) O 259 1 min 0 min 0,000 mm 1,6 UV-I 402 W/m 15,9 C 19,7 C 14,2 km/h (3 Bft) 95,83 %
19/07/2019 10:55 20,1 C 77 % 1015,7 hPa 0,0 mm 4,2 km/h (1 Bft) O-SO 247 1 min 0 min 0,000 mm 1,6 UV-I 487 W/m 15,9 C 20,1 C 7,1 km/h (2 Bft) 96,00 %
19/07/2019 10:54 20,1 C 77 % 1015,7 hPa 0,0 mm 4,8 km/h (1 Bft) O-SO 258 1 min 0 min 0,000 mm 1,8 UV-I 487 W/m 15,9 C 20,1 C 7,1 km/h (2 Bft) 96,97 %
19/07/2019 10:53 20,0 C 78 % 1015,7 hPa 0,0 mm 6,1 km/h (2 Bft) O 261 1 min 0 min 0,000 mm 2,0 UV-I 482 W/m 16,0 C 20,0 C 14,2 km/h (3 Bft) 91,67 %
19/07/2019 10:52 19,9 C 77 % 1015,6 hPa 0,0 mm 3,4 km/h (1 Bft) NO 316 1 min 0 min 0,000 mm 2,0 UV-I 412 W/m 15,7 C 19,9 C 5,3 km/h (1 Bft) 95,83 %
19/07/2019 10:51 19,9 C 77 % 1015,7 hPa 0,0 mm 6,2 km/h (2 Bft) O 265 1 min 0 min 0,000 mm 1,8 UV-I 378 W/m 15,7 C 19,9 C 10,6 km/h (2 Bft) 96,30 %
19/07/2019 10:50 19,9 C 79 % 1015,7 hPa 0,0 mm 12,1 km/h (2 Bft) O 259 1 min 0 min 0,000 mm 1,9 UV-I 389 W/m 16,1 C 17,9 C 17,7 km/h (3 Bft) 100,00 %
19/07/2019 10:49 19,9 C 79 % 1015,7 hPa 0,0 mm 7,9 km/h (2 Bft) SO 236 1 min 0 min 0,000 mm 2,0 UV-I 423 W/m 16,1 C 19,3 C 14,2 km/h (3 Bft) 91,67 %
19/07/2019 10:48 19,9 C 79 % 1015,7 hPa 0,0 mm 5,4 km/h (2 Bft) O-SO 238 1 min 0 min 0,000 mm 1,9 UV-I 421 W/m 16,1 C 19,9 C 7,1 km/h (2 Bft) 100,00 %
19/07/2019 10:47 19,9 C 79 % 1015,7 hPa 0,0 mm 5,9 km/h (2 Bft) SO 234 1 min 0 min 0,000 mm 1,9 UV-I 413 W/m 16,1 C 19,9 C 8,9 km/h (2 Bft) 95,83 %
19/07/2019 10:46 19,9 C 80 % 1015,7 hPa 0,0 mm 5,5 km/h (2 Bft) O-SO 257 2 min 0 min 0,000 mm 1,9 UV-I 388 W/m 16,3 C 19,9 C 8,9 km/h (2 Bft) 94,34 %
19/07/2019 10:44 19,8 C 80 % 1015,7 hPa 0,0 mm 5,5 km/h (2 Bft) O-SO 248 1 min 0 min 0,000 mm 1,9 UV-I 372 W/m 16,2 C 19,8 C 7,1 km/h (2 Bft) 100,00 %
19/07/2019 10:43 19,8 C 80 % 1015,7 hPa 0,0 mm 4,3 km/h (1 Bft) O-SO 249 0 min 0 min 0,000 mm 1,8 UV-I 352 W/m 16,2 C 19,8 C 7,1 km/h (2 Bft) 96,00 %
19/07/2019 10:42 19,8 C 81 % 1015,7 hPa 0,0 mm 5,2 km/h (1 Bft) S 181 1 min 0 min 0,000 mm 1,9 UV-I 367 W/m 16,4 C 19,8 C 7,1 km/h (2 Bft) 91,67 %
19/07/2019 10:41 19,8 C 81 % 1015,7 hPa 0,0 mm 7,0 km/h (2 Bft) SO 223 1 min 0 min 0,000 mm 1,9 UV-I 372 W/m 16,4 C 19,6 C 10,6 km/h (2 Bft) 96,00 %
19/07/2019 10:40 19,8 C 80 % 1015,7 hPa 0,0 mm 3,8 km/h (1 Bft) S-SO 192 0 min 0 min 0,000 mm 1,8 UV-I 317 W/m 16,2 C 19,8 C 8,9 km/h (2 Bft) 95,65 %
19/07/2019 10:39 19,8 C 80 % 1015,6 hPa 0,0 mm 2,7 km/h (1 Bft) S-SO 209 0 min 0 min 0,000 mm 1,6 UV-I 277 W/m 16,2 C 19,8 C 7,1 km/h (2 Bft) 93,88 %
19/07/2019 10:37 19,9 C 80 % 1015,6 hPa 0,0 mm 4,4 km/h (1 Bft) S-SO 211 0 min 0 min 0,000 mm 1,5 UV-I 259 W/m 16,3 C 19,9 C 7,1 km/h (2 Bft) 95,83 %
19/07/2019 10:36 19,9 C 80 % 1015,7 hPa 0,0 mm 5,5 km/h (2 Bft) S-SO 198 0 min 0 min 0,000 mm 1,5 UV-I 265 W/m 16,3 C 19,9 C 8,9 km/h (2 Bft) 96,00 %
19/07/2019 10:35 19,9 C 80 % 1015,7 hPa 0,0 mm 6,5 km/h (2 Bft) S-SO 196 0 min 0 min 0,000 mm 1,6 UV-I 308 W/m 16,3 C 19,9 C 10,6 km/h (2 Bft) 95,65 %
19/07/2019 10:34 19,9 C 80 % 1015,7 hPa 0,0 mm 5,2 km/h (1 Bft) S-SO 199 0 min 0 min 0,000 mm 1,6 UV-I 307 W/m 16,3 C 19,9 C 7,1 km/h (2 Bft) 100,00 %
19/07/2019 10:33 19,8 C 79 % 1015,7 hPa 0,0 mm 5,0 km/h (1 Bft) S 188 1 min 0 min 0,000 mm 1,7 UV-I 363 W/m 16,0 C 19,8 C 7,1 km/h (2 Bft) 92,00 %
19/07/2019 10:32 19,8 C 79 % 1015,7 hPa 0,0 mm 5,5 km/h (2 Bft) O-SO 246 1 min 0 min 0,000 mm 1,9 UV-I 424 W/m 16,0 C 19,8 C 8,9 km/h (2 Bft) 96,00 %
19/07/2019 10:31 19,7 C 79 % 1015,6 hPa 0,0 mm 5,6 km/h (2 Bft) NO 313 1 min 0 min 0,000 mm 1,9 UV-I 381 W/m 16,0 C 19,7 C 8,9 km/h (2 Bft) 97,73 %
19/07/2019 10:30 19,8 C 81 % 1015,6 hPa 0,0 mm 6,1 km/h (2 Bft) O-NO 296 1 min 0 min 0,000 mm 1,8 UV-I 371 W/m 16,4 C 19,8 C 7,1 km/h (2 Bft) 100,00 %
19/07/2019 10:29 19,8 C 81 % 1015,6 hPa 0,0 mm 4,7 km/h (1 Bft) O 261 0 min 0 min 0,000 mm 1,7 UV-I 325 W/m 16,4 C 19,8 C 7,1 km/h (2 Bft) 89,29 %
19/07/2019 10:28 19,8 C 81 % 1015,6 hPa 0,0 mm 3,2 km/h (1 Bft) SO 229 0 min 0 min 0,000 mm 1,6 UV-I 314 W/m 16,4 C 19,8 C 5,3 km/h (1 Bft) 96,30 %
19/07/2019 10:27 19,9 C 79 % 1015,7 hPa 0,0 mm 3,2 km/h (1 Bft) S 180 0 min 0 min 0,000 mm 1,7 UV-I 346 W/m 16,1 C 19,9 C 5,3 km/h (1 Bft) 86,67 %
19/07/2019 10:26 20,1 C 81 % 1015,6 hPa 0,0 mm 4,6 km/h (1 Bft) O 275 1 min 0 min 0,000 mm 1,7 UV-I 378 W/m 16,7 C 20,1 C 10,6 km/h (2 Bft) 92,31 %
19/07/2019 10:25 20,1 C 81 % 1015,7 hPa 0,0 mm 8,2 km/h (2 Bft) O 273 1 min 0 min 0,000 mm 1,8 UV-I 408 W/m 16,7 C 19,4 C 10,6 km/h (2 Bft) 96,30 %
19/07/2019 10:24 20,0 C 81 % 1015,7 hPa 0,0 mm 2,9 km/h (1 Bft) O 279 1 min 0 min 0,000 mm 2,0 UV-I 507 W/m 16,6 C 20,0 C 10,6 km/h (2 Bft) 92,31 %
19/07/2019 10:23 19,9 C 82 % 1015,7 hPa 0,0 mm 2,5 km/h (1 Bft) O 261 1 min 0 min 0,000 mm 2,1 UV-I 569 W/m 16,7 C 19,9 C 7,1 km/h (2 Bft) 92,59 %
19/07/2019 10:22 19,8 C 81 % 1015,7 hPa 0,0 mm 2,8 km/h (1 Bft) O-SO 256 1 min 0 min 0,000 mm 2,2 UV-I 562 W/m 16,4 C 19,8 C 7,1 km/h (2 Bft) 100,00 %
19/07/2019 10:21 19,7 C 81 % 1015,7 hPa 0,0 mm 6,0 km/h (2 Bft) O-SO 246 1 min 0 min 0,000 mm 2,2 UV-I 546 W/m 16,3 C 19,7 C 10,6 km/h (2 Bft) 96,43 %
19/07/2019 10:20 19,7 C 82 % 1015,7 hPa 0,0 mm 5,2 km/h (1 Bft) O 265 1 min 0 min 0,000 mm 2,1 UV-I 455 W/m 16,5 C 19,7 C 8,9 km/h (2 Bft) 100,00 %
19/07/2019 10:19 19,6 C 80 % 1015,7 hPa 0,0 mm 7,7 km/h (2 Bft) O 281 1 min 0 min 0,000 mm 2,0 UV-I 497 W/m 16,1 C 19,1 C 10,6 km/h (2 Bft) 92,31 %
19/07/2019 10:18 19,5 C 81 % 1015,7 hPa 0,0 mm 7,2 km/h (2 Bft) S-SO 192 1 min 0 min 0,000 mm 2,1 UV-I 525 W/m 16,1 C 19,2 C 8,9 km/h (2 Bft) 100,00 %
19/07/2019 10:17 19,5 C 81 % 1015,7 hPa 0,0 mm 3,0 km/h (1 Bft) SO 222 1 min 0 min 0,000 mm 1,9 UV-I 401 W/m 16,1 C 19,5 C 7,1 km/h (2 Bft) 96,00 %
19/07/2019 10:16 19,4 C 82 % 1015,7 hPa 0,0 mm 6,2 km/h (2 Bft) S-SO 196 1 min 0 min 0,000 mm 1,8 UV-I 425 W/m 16,2 C 19,4 C 7,1 km/h (2 Bft) 100,00 %
19/07/2019 10:15 19,4 C 81 % 1015,7 hPa 0,0 mm 5,2 km/h (1 Bft) O-SO 248 1 min 0 min 0,000 mm 1,9 UV-I 481 W/m 16,1 C 19,4 C 7,1 km/h (2 Bft) 96,00 %
19/07/2019 10:14 19,3 C 82 % 1015,8 hPa 0,0 mm 7,8 km/h (2 Bft) SO 236 1 min 0 min 0,000 mm 1,9 UV-I 511 W/m 16,1 C 18,7 C 12,4 km/h (2 Bft) 100,00 %
19/07/2019 10:13 19,3 C 82 % 1015,8 hPa 0,0 mm 8,8 km/h (2 Bft) O-SO 256 1 min 0 min 0,000 mm 1,9 UV-I 484 W/m 16,1 C 18,3 C 14,2 km/h (3 Bft) 95,83 %
19/07/2019 10:12 19,3 C 84 % 1015,8 hPa 0,0 mm 5,6 km/h (2 Bft) O 259 1 min 0 min 0,000 mm 1,8 UV-I 501 W/m 16,5 C 19,3 C 10,6 km/h (2 Bft) 100,00 %
19/07/2019 10:11 19,3 C 83 % 1015,8 hPa 0,0 mm 5,1 km/h (1 Bft) O 261 1 min 0 min 0,000 mm 1,7 UV-I 434 W/m 16,3 C 19,3 C 12,4 km/h (2 Bft) 100,00 %
19/07/2019 10:10 19,3 C 84 % 1015,8 hPa 0,0 mm 3,4 km/h (1 Bft) O 271 1 min 0 min 0,000 mm 1,6 UV-I 400 W/m 16,5 C 19,3 C 5,3 km/h (1 Bft) 100,00 %
19/07/2019 10:09 19,3 C 85 % 1015,8 hPa 0,0 mm 7,7 km/h (2 Bft) O 275 1 min 0 min 0,000 mm 1,5 UV-I 355 W/m 16,7 C 18,7 C 12,4 km/h (2 Bft) 100,00 %
19/07/2019 10:08 19,3 C 85 % 1015,8 hPa 0,0 mm 5,7 km/h (2 Bft) O 277 1 min 0 min 0,000 mm 1,5 UV-I 353 W/m 16,7 C 19,3 C 10,6 km/h (2 Bft) 100,00 %
19/07/2019 10:07 19,2 C 84 % 1015,8 hPa 0,0 mm 4,0 km/h (1 Bft) O-NO 287 1 min 0 min 0,000 mm 1,5 UV-I 363 W/m 16,4 C 19,2 C 12,4 km/h (2 Bft) 100,00 %
19/07/2019 10:06 19,2 C 85 % 1015,8 hPa 0,0 mm 4,0 km/h (1 Bft) O-SO 246 1 min 0 min 0,000 mm 1,4 UV-I 331 W/m 16,6 C 19,2 C 5,3 km/h (1 Bft) 100,00 %
19/07/2019 10:05 19,2 C 85 % 1015,8 hPa 0,0 mm 5,6 km/h (2 Bft) SO 215 0 min 0 min 0,000 mm 1,4 UV-I 305 W/m 16,6 C 19,2 C 8,9 km/h (2 Bft) 96,43 %
19/07/2019 10:04 19,1 C 85 % 1015,8 hPa 0,0 mm 3,8 km/h (1 Bft) S-SO 206 1 min 0 min 0,000 mm 1,5 UV-I 353 W/m 16,5 C 19,1 C 7,1 km/h (2 Bft) 96,43 %
19/07/2019 10:03 19,1 C 85 % 1015,8 hPa 0,0 mm 3,8 km/h (1 Bft) S 180 1 min 0 min 0,000 mm 1,5 UV-I 373 W/m 16,5 C 19,1 C 5,3 km/h (1 Bft) 100,00 %
19/07/2019 10:02 19,0 C 85 % 1015,8 hPa 0,0 mm 5,5 km/h (2 Bft) S 178 1 min 0 min 0,000 mm 1,5 UV-I 361 W/m 16,4 C 19,0 C 7,1 km/h (2 Bft) 96,00 %
19/07/2019 10:01 18,9 C 84 % 1015,9 hPa 0,0 mm 4,2 km/h (1 Bft) S-SO 196 1 min 0 min 0,152 mm 1,4 UV-I 358 W/m 16,1 C 18,9 C 7,1 km/h (2 Bft) 100,00 %
19/07/2019 10:00 18,9 C 85 % 1015,9 hPa 0,0 mm 4,5 km/h (1 Bft) S 188 1 min 0 min 0,000 mm 1,5 UV-I 450 W/m 16,3 C 18,9 C 7,1 km/h (2 Bft) 91,67 %
19/07/2019 09:59 18,9 C 85 % 1015,9 hPa 0,0 mm 6,6 km/h (2 Bft) S-SO 202 1 min 0 min 0,000 mm 1,6 UV-I 443 W/m 16,3 C 18,8 C 10,6 km/h (2 Bft) 92,59 %
19/07/2019 09:58 18,9 C 85 % 1015,9 hPa 0,0 mm 6,4 km/h (2 Bft) O-SO 242 1 min 0 min 0,000 mm 1,6 UV-I 417 W/m 16,3 C 18,9 C 10,6 km/h (2 Bft) 96,00 %
19/07/2019 09:57 18,9 C 86 % 1015,9 hPa 0,0 mm 6,6 km/h (2 Bft) S-SO 197 1 min 0 min 0,000 mm 1,5 UV-I 427 W/m 16,5 C 18,8 C 12,4 km/h (2 Bft) 91,67 %
19/07/2019 09:56 18,8 C 85 % 1015,9 hPa 0,0 mm 5,3 km/h (1 Bft) S-SE 159 0 min 0 min 0,000 mm 1,5 UV-I 299 W/m 16,2 C 18,8 C 8,9 km/h (2 Bft) 100,00 %
19/07/2019 09:55 18,8 C 85 % 1015,8 hPa 0,0 mm 4,3 km/h (1 Bft) SO 215 0 min 0 min 0,000 mm 1,3 UV-I 244 W/m 16,2 C 18,8 C 5,3 km/h (1 Bft) 100,00 %
19/07/2019 09:54 18,8 C 84 % 1015,8 hPa 0,0 mm 2,7 km/h (1 Bft) SO 215 0 min 0 min 0,000 mm 1,3 UV-I 219 W/m 16,0 C 18,8 C 7,1 km/h (2 Bft) 96,00 %
19/07/2019 09:53 18,9 C 84 % 1015,9 hPa 0,0 mm 1,2 km/h (1 Bft) O-SO 248 0 min 0 min 0,000 mm 1,2 UV-I 200 W/m 16,1 C 18,9 C 1,8 km/h (1 Bft) 100,00 %
19/07/2019 09:52 19,1 C 84 % 1015,9 hPa 0,0 mm 2,5 km/h (1 Bft) O-SO 248 0 min 0 min 0,000 mm 1,1 UV-I 201 W/m 16,3 C 19,1 C 5,3 km/h (1 Bft) 100,00 %
19/07/2019 09:51 19,2 C 85 % 1015,9 hPa 0,0 mm 7,1 km/h (2 Bft) O-SO 248 0 min 0 min 0,000 mm 1,2 UV-I 211 W/m 16,6 C 18,9 C 10,6 km/h (2 Bft) 96,43 %
19/07/2019 09:50 19,2 C 86 % 1015,9 hPa 0,0 mm 6,1 km/h (2 Bft) S 180 0 min 0 min 0,000 mm 1,2 UV-I 215 W/m 16,8 C 19,2 C 8,9 km/h (2 Bft) 100,00 %
19/07/2019 09:49 19,2 C 86 % 1015,9 hPa 0,0 mm 5,6 km/h (2 Bft) S-SO 209 1 min 0 min 0,000 mm 1,2 UV-I 462 W/m 16,8 C 19,2 C 8,9 km/h (2 Bft) 100,00 %
19/07/2019 09:48 19,1 C 87 % 1015,9 hPa 0,0 mm 4,0 km/h (1 Bft) O-SO 238 1 min 0 min 0,000 mm 1,4 UV-I 506 W/m 16,9 C 19,1 C 5,3 km/h (1 Bft) 96,30 %
19/07/2019 09:47 19,0 C 87 % 1015,9 hPa 0,0 mm 4,5 km/h (1 Bft) O-SO 239 1 min 0 min 0,000 mm 1,6 UV-I 531 W/m 16,8 C 19,0 C 7,1 km/h (2 Bft) 100,00 %
19/07/2019 09:46 18,9 C 86 % 1015,9 hPa 0,0 mm 4,7 km/h (1 Bft) O-SO 240 1 min 0 min 0,000 mm 1,6 UV-I 512 W/m 16,5 C 18,9 C 7,1 km/h (2 Bft) 96,43 %
19/07/2019 09:45 18,8 C 85 % 1015,9 hPa 0,0 mm 5,0 km/h (1 Bft) SO 228 1 min 0 min 0,000 mm 1,5 UV-I 330 W/m 16,2 C 18,8 C 8,9 km/h (2 Bft) 100,00 %
19/07/2019 09:44 18,8 C 86 % 1015,9 hPa 0,0 mm 3,4 km/h (1 Bft) SO 227 0 min 0 min 0,000 mm 1,2 UV-I 225 W/m 16,4 C 18,8 C 5,3 km/h (1 Bft) 96,67 %
19/07/2019 09:43 18,8 C 85 % 1015,9 hPa 0,0 mm 5,4 km/h (2 Bft) SO 227 0 min 0 min 0,000 mm 1,1 UV-I 202 W/m 16,2 C 18,8 C 8,9 km/h (2 Bft) 93,33 %
19/07/2019 09:42 18,8 C 86 % 1015,9 hPa 0,0 mm 6,6 km/h (2 Bft) O 271 0 min 0 min 0,000 mm 1,1 UV-I 194 W/m 16,4 C 18,7 C 10,6 km/h (2 Bft) 100,00 %
19/07/2019 09:41 18,8 C 85 % 1015,9 hPa 0,0 mm 7,1 km/h (2 Bft) O-SO 250 0 min 0 min 0,000 mm 1,1 UV-I 240 W/m 16,2 C 18,5 C 10,6 km/h (2 Bft) 100,00 %
19/07/2019 09:40 18,9 C 86 % 1015,9 hPa 0,0 mm 4,2 km/h (1 Bft) O-SO 252 1 min 0 min 0,000 mm 1,2 UV-I 313 W/m 16,5 C 18,9 C 10,6 km/h (2 Bft) 100,00 %
19/07/2019 09:39 18,9 C 86 % 1015,9 hPa 0,0 mm 5,8 km/h (2 Bft) SO 222 1 min 0 min 0,000 mm 1,3 UV-I 326 W/m 16,5 C 18,9 C 7,1 km/h (2 Bft) 100,00 %
19/07/2019 09:38 18,8 C 87 % 1015,9 hPa 0,0 mm 6,9 km/h (2 Bft) O-SO 248 1 min 0 min 0,000 mm 1,4 UV-I 314 W/m 16,6 C 18,6 C 8,9 km/h (2 Bft) 100,00 %
19/07/2019 09:37 18,8 C 87 % 1015,9 hPa 0,0 mm 6,1 km/h (2 Bft) SO 232 1 min 0 min 0,000 mm 1,4 UV-I 308 W/m 16,6 C 18,8 C 10,6 km/h (2 Bft) 96,00 %
19/07/2019 09:36 18,7 C 87 % 1015,9 hPa 0,0 mm 6,6 km/h (2 Bft) O-SO 241 1 min 0 min 0,000 mm 1,4 UV-I 352 W/m 16,5 C 18,6 C 10,6 km/h (2 Bft) 95,83 %
19/07/2019 09:35 18,7 C 88 % 1015,9 hPa 0,0 mm 3,3 km/h (1 Bft) O 261 1 min 0 min 0,000 mm 1,3 UV-I 382 W/m 16,7 C 18,7 C 7,1 km/h (2 Bft) 95,83 %
19/07/2019 09:34 18,6 C 88 % 1015,9 hPa 0,0 mm 3,3 km/h (1 Bft) O 261 1 min 0 min 0,000 mm 1,3 UV-I 508 W/m 16,6 C 18,6 C 5,3 km/h (1 Bft) 96,00 %
19/07/2019 09:33 18,4 C 88 % 1015,9 hPa 0,0 mm 2,8 km/h (1 Bft) O-SO 242 1 min 0 min 0,000 mm 1,2 UV-I 507 W/m 16,4 C 18,4 C 5,3 km/h (1 Bft) 95,83 %
19/07/2019 09:32 18,3 C 88 % 1015,9 hPa 0,0 mm 4,5 km/h (1 Bft) SO 236 0 min 0 min 0,000 mm 1,0 UV-I 267 W/m 16,3 C 18,3 C 5,3 km/h (1 Bft) 100,00 %
19/07/2019 09:31 18,3 C 88 % 1015,9 hPa 0,0 mm 4,6 km/h (1 Bft) SO 236 0 min 0 min 0,000 mm 1,0 UV-I 200 W/m 16,3 C 18,3 C 7,1 km/h (2 Bft) 100,00 %
19/07/2019 09:30 18,3 C 88 % 1015,9 hPa 0,0 mm 2,2 km/h (1 Bft) SO 234 0 min 0 min 0,000 mm 0,9 UV-I 222 W/m 16,3 C 18,3 C 5,3 km/h (1 Bft) 100,00 %
19/07/2019 09:29 18,3 C 89 % 1015,9 hPa 0,0 mm 3,6 km/h (1 Bft) SO 234 0 min 0 min 0,000 mm 0,9 UV-I 270 W/m 16,5 C 18,3 C 5,3 km/h (1 Bft) 100,00 %
19/07/2019 09:28 18,2 C 88 % 1015,9 hPa 0,0 mm 4,6 km/h (1 Bft) SO 235 0 min 0 min 0,000 mm 0,9 UV-I 222 W/m 16,2 C 18,2 C 7,1 km/h (2 Bft) 96,67 %
19/07/2019 09:27 18,2 C 88 % 1015,9 hPa 0,0 mm 2,7 km/h (1 Bft) O-SO 244 0 min 0 min 0,000 mm 1,0 UV-I 216 W/m 16,2 C 18,2 C 5,3 km/h (1 Bft) 100,00 %
19/07/2019 09:26 18,2 C 89 % 1015,9 hPa 0,0 mm 4,5 km/h (1 Bft) O-SO 244 0 min 0 min 0,000 mm 0,9 UV-I 216 W/m 16,4 C 18,2 C 7,1 km/h (2 Bft) 96,67 %
19/07/2019 09:25 18,2 C 89 % 1015,8 hPa 0,0 mm 5,2 km/h (1 Bft) O-SO 242 0 min 0 min 0,000 mm 0,9 UV-I 249 W/m 16,4 C 18,2 C 7,1 km/h (2 Bft) 100,00 %
19/07/2019 09:24 18,2 C 90 % 1015,9 hPa 0,0 mm 6,1 km/h (2 Bft) O-SO 258 0 min 0 min 0,000 mm 0,8 UV-I 251 W/m 16,5 C 18,2 C 8,9 km/h (2 Bft) 100,00 %
19/07/2019 09:23 18,1 C 89 % 1015,8 hPa 0,0 mm 5,4 km/h (2 Bft) O-SO 257 0 min 0 min 0,000 mm 0,9 UV-I 261 W/m 16,3 C 18,1 C 7,1 km/h (2 Bft) 100,00 %
19/07/2019 09:22 18,1 C 89 % 1015,9 hPa 0,0 mm 4,2 km/h (1 Bft) SO 221 0 min 0 min 0,000 mm 0,9 UV-I 253 W/m 16,3 C 18,1 C 5,3 km/h (1 Bft) 100,00 %
19/07/2019 09:21 18,1 C 90 % 1015,9 hPa 0,0 mm 5,0 km/h (1 Bft) SO 220 0 min 0 min 0,000 mm 0,8 UV-I 220 W/m 16,4 C 18,1 C 7,1 km/h (2 Bft) 100,00 %
19/07/2019 09:20 18,1 C 89 % 1015,9 hPa 0,0 mm 5,5 km/h (2 Bft) SO 225 0 min 0 min 0,000 mm 0,8 UV-I 211 W/m 16,3 C 18,1 C 8,9 km/h (2 Bft) 100,00 %
19/07/2019 09:19 18,1 C 89 % 1015,9 hPa 0,0 mm 6,8 km/h (2 Bft) O-SO 247 1 min 0 min 0,000 mm 0,8 UV-I 315 W/m 16,3 C 17,9 C 8,9 km/h (2 Bft) 100,00 %
19/07/2019 09:18 18,1 C 90 % 1015,8 hPa 0,0 mm 3,4 km/h (1 Bft) SO 234 1 min 0 min 0,000 mm 0,9 UV-I 293 W/m 16,4 C 18,1 C 5,3 km/h (1 Bft) 100,00 %
19/07/2019 09:17 18,1 C 90 % 1015,9 hPa 0,0 mm 4,2 km/h (1 Bft) SO 232 0 min 0 min 0,000 mm 0,8 UV-I 224 W/m 16,4 C 18,1 C 5,3 km/h (1 Bft) 100,00 %
19/07/2019 09:16 18,0 C 90 % 1015,8 hPa 0,0 mm 5,2 km/h (1 Bft) SO 232 0 min 0 min 0,000 mm 0,8 UV-I 196 W/m 16,3 C 18,0 C 7,1 km/h (2 Bft) 100,00 %
19/07/2019 09:15 17,9 C 90 % 1015,8 hPa 0,0 mm 4,4 km/h (1 Bft) SO 223 0 min 0 min 0,000 mm 0,8 UV-I 220 W/m 16,2 C 17,9 C 7,1 km/h (2 Bft) 100,00 %
19/07/2019 09:14 17,9 C 90 % 1015,8 hPa 0,0 mm 6,9 km/h (2 Bft) SO 235 0 min 0 min 0,000 mm 0,7 UV-I 191 W/m 16,2 C 17,7 C 8,9 km/h (2 Bft) 100,00 %
19/07/2019 09:13 17,8 C 90 % 1015,8 hPa 0,0 mm 6,0 km/h (2 Bft) O-SO 246 0 min 0 min 0,000 mm 0,7 UV-I 188 W/m 16,1 C 17,8 C 8,9 km/h (2 Bft) 100,00 %
19/07/2019 09:12 17,8 C 90 % 1015,8 hPa 0,0 mm 3,2 km/h (1 Bft) S 186 0 min 0 min 0,000 mm 0,7 UV-I 190 W/m 16,1 C 17,8 C 7,1 km/h (2 Bft) 100,00 %
19/07/2019 09:11 17,8 C 90 % 1015,8 hPa 0,0 mm 2,8 km/h (1 Bft) S-SO 210 0 min 0 min 0,000 mm 0,7 UV-I 185 W/m 16,1 C 17,8 C 5,3 km/h (1 Bft) 95,83 %
19/07/2019 09:10 17,9 C 90 % 1015,7 hPa 0,0 mm 6,5 km/h (2 Bft) S-SO 207 0 min 0 min 0,000 mm 0,7 UV-I 178 W/m 16,2 C 17,9 C 7,1 km/h (2 Bft) 100,00 %
19/07/2019 09:09 17,8 C 90 % 1015,8 hPa 0,0 mm 6,2 km/h (2 Bft) SO 223 0 min 0 min 0,000 mm 0,7 UV-I 177 W/m 16,1 C 17,8 C 7,1 km/h (2 Bft) 89,29 %
19/07/2019 09:08 17,8 C 90 % 1015,7 hPa 0,0 mm 4,2 km/h (1 Bft) S-SO 213 0 min 0 min 0,000 mm 0,7 UV-I 170 W/m 16,1 C 17,8 C 7,1 km/h (2 Bft) 100,00 %
19/07/2019 09:07 17,8 C 90 % 1015,7 hPa 0,0 mm 4,7 km/h (1 Bft) S-SO 192 0 min 0 min 0,000 mm 0,6 UV-I 168 W/m 16,1 C 17,8 C 7,1 km/h (2 Bft) 92,86 %
19/07/2019 09:06 17,8 C 90 % 1015,7 hPa 0,0 mm 4,9 km/h (1 Bft) SO 235 0 min 0 min 0,000 mm 0,6 UV-I 175 W/m 16,1 C 17,8 C 7,1 km/h (2 Bft) 100,00 %
19/07/2019 09:05 17,8 C 90 % 1015,8 hPa 0,0 mm 5,1 km/h (1 Bft) SO 235 0 min 0 min 0,000 mm 0,6 UV-I 176 W/m 16,1 C 17,8 C 7,1 km/h (2 Bft) 92,86 %
19/07/2019 09:04 17,7 C 90 % 1015,7 hPa 0,0 mm 3,5 km/h (1 Bft) O-SO 256 0 min 0 min 0,000 mm 0,6 UV-I 170 W/m 16,0 C 17,7 C 7,1 km/h (2 Bft) 100,00 %
19/07/2019 09:03 17,7 C 90 % 1015,7 hPa 0,0 mm 2,0 km/h (1 Bft) S-SO 208 0 min 0 min 0,000 mm 0,6 UV-I 166 W/m 16,0 C 17,7 C 3,5 km/h (1 Bft) 100,00 %
19/07/2019 09:02 17,7 C 90 % 1015,8 hPa 0,0 mm 5,2 km/h (1 Bft) S-SO 208 0 min 0 min 0,000 mm 0,6 UV-I 160 W/m 16,0 C 17,7 C 7,1 km/h (2 Bft) 100,00 %
19/07/2019 09:01 17,7 C 91 % 1015,7 hPa 0,0 mm 4,1 km/h (1 Bft) S-SO 211 0 min 0 min 0,077 mm 0,6 UV-I 155 W/m 16,2 C 17,7 C 5,3 km/h (1 Bft) 100,00 %
19/07/2019 09:00 17,7 C 91 % 1015,7 hPa 0,0 mm 4,7 km/h (1 Bft) S-SO 213 0 min 0 min 0,000 mm 0,6 UV-I 157 W/m 16,2 C 17,7 C 8,9 km/h (2 Bft) 95,83 %
19/07/2019 08:59 17,7 C 90 % 1015,8 hPa 0,0 mm 4,1 km/h (1 Bft) O-SO 245 0 min 0 min 0,000 mm 0,6 UV-I 156 W/m 16,0 C 17,7 C 7,1 km/h (2 Bft) 100,00 %
19/07/2019 08:58 17,7 C 91 % 1015,8 hPa 0,0 mm 7,3 km/h (2 Bft) SO 233 0 min 0 min 0,000 mm 0,6 UV-I 153 W/m 16,2 C 17,3 C 8,9 km/h (2 Bft) 100,00 %
19/07/2019 08:57 17,7 C 91 % 1015,8 hPa 0,0 mm 6,3 km/h (2 Bft) O-SO 252 0 min 0 min 0,000 mm 0,5 UV-I 146 W/m 16,2 C 17,7 C 8,9 km/h (2 Bft) 100,00 %
19/07/2019 08:56 17,7 C 91 % 1015,8 hPa 0,0 mm 5,2 km/h (1 Bft) SO 228 0 min 0 min 0,000 mm 0,5 UV-I 148 W/m 16,2 C 17,7 C 7,1 km/h (2 Bft) 100,00 %
19/07/2019 08:55 17,7 C 91 % 1015,8 hPa 0,0 mm 5,9 km/h (2 Bft) O-SO 244 0 min 0 min 0,000 mm 0,6 UV-I 163 W/m 16,2 C 17,7 C 7,1 km/h (2 Bft) 100,00 %
19/07/2019 08:54 17,6 C 91 % 1015,8 hPa 0,0 mm 5,8 km/h (2 Bft) S-SO 213 0 min 0 min 0,000 mm 0,6 UV-I 176 W/m 16,1 C 17,6 C 8,9 km/h (2 Bft) 96,00 %
19/07/2019 08:53 17,6 C 91 % 1015,8 hPa 0,0 mm 9,0 km/h (2 Bft) O 263 0 min 0 min 0,000 mm 0,6 UV-I 172 W/m 16,1 C 16,4 C 12,4 km/h (2 Bft) 100,00 %
19/07/2019 08:52 17,5 C 91 % 1015,8 hPa 0,0 mm 6,1 km/h (2 Bft) O-SO 245 0 min 0 min 0,000 mm 0,6 UV-I 156 W/m 16,0 C 17,5 C 8,9 km/h (2 Bft) 100,00 %
19/07/2019 08:51 17,4 C 91 % 1015,8 hPa 0,0 mm 4,5 km/h (1 Bft) O-SO 248 0 min 0 min 0,000 mm 0,6 UV-I 142 W/m 15,9 C 17,4 C 7,1 km/h (2 Bft) 100,00 %
19/07/2019 08:50 17,4 C 91 % 1015,8 hPa 0,0 mm 3,8 km/h (1 Bft) SO 220 0 min 0 min 0,000 mm 0,6 UV-I 137 W/m 15,9 C 17,4 C 7,1 km/h (2 Bft) 100,00 %
19/07/2019 08:49 17,4 C 92 % 1015,7 hPa 0,0 mm 3,0 km/h (1 Bft) S-SO 201 0 min 0 min 0,000 mm 0,5 UV-I 131 W/m 16,1 C 17,4 C 5,3 km/h (1 Bft) 100,00 %
19/07/2019 08:48 17,4 C 92 % 1015,7 hPa 0,0 mm 4,8 km/h (1 Bft) S-SO 193 0 min 0 min 0,000 mm 0,5 UV-I 127 W/m 16,1 C 17,4 C 5,3 km/h (1 Bft) 100,00 %
19/07/2019 08:47 17,4 C 92 % 1015,7 hPa 0,0 mm 5,8 km/h (2 Bft) S-SO 213 0 min 0 min 0,000 mm 0,5 UV-I 125 W/m 16,1 C 17,4 C 7,1 km/h (2 Bft) 100,00 %
19/07/2019 08:46 17,4 C 92 % 1015,7 hPa 0,0 mm 6,5 km/h (2 Bft) O-SO 246 0 min 0 min 0,000 mm 0,5 UV-I 127 W/m 16,1 C 17,4 C 7,1 km/h (2 Bft) 100,00 %
19/07/2019 08:45 17,4 C 92 % 1015,8 hPa 0,0 mm 8,3 km/h (2 Bft) O-SO 243 0 min 0 min 0,000 mm 0,5 UV-I 133 W/m 16,1 C 16,5 C 14,2 km/h (3 Bft) 100,00 %
19/07/2019 08:44 17,4 C 92 % 1015,7 hPa 0,0 mm 8,0 km/h (2 Bft) O-SO 245 0 min 0 min 0,000 mm 0,5 UV-I 134 W/m 16,1 C 16,6 C 8,9 km/h (2 Bft) 96,30 %
19/07/2019 08:43 17,4 C 92 % 1015,8 hPa 0,0 mm 7,1 km/h (2 Bft) O-SO 245 0 min 0 min 0,000 mm 0,5 UV-I 134 W/m 16,1 C 17,1 C 8,9 km/h (2 Bft) 96,30 %
19/07/2019 08:42 17,4 C 92 % 1015,8 hPa 0,0 mm 4,3 km/h (1 Bft) O-SO 246 0 min 0 min 0,000 mm 0,5 UV-I 133 W/m 16,1 C 17,4 C 7,1 km/h (2 Bft) 100,00 %
19/07/2019 08:41 17,4 C 92 % 1015,7 hPa 0,0 mm 5,7 km/h (2 Bft) SO 217 0 min 0 min 0,000 mm 0,5 UV-I 132 W/m 16,1 C 17,4 C 7,1 km/h (2 Bft) 97,68 %
19/07/2019 08:40 17,5 C 92 % 1015,7 hPa 0,0 mm 7,2 km/h (2 Bft) SO 226 0 min 0 min 0,000 mm 0,5 UV-I 124 W/m 16,2 C 17,1 C 8,9 km/h (2 Bft) 96,00 %
19/07/2019 08:39 17,5 C 92 % 1015,8 hPa 0,0 mm 8,3 km/h (2 Bft) SO 236 0 min 0 min 0,000 mm 0,5 UV-I 118 W/m 16,2 C 16,6 C 10,6 km/h (2 Bft) 95,83 %
19/07/2019 08:38 17,6 C 92 % 1015,7 hPa 0,0 mm 5,1 km/h (1 Bft) SO 236 0 min 0 min 0,000 mm 0,4 UV-I 124 W/m 16,3 C 17,6 C 8,9 km/h (2 Bft) 98,08 %
19/07/2019 08:36 17,5 C 92 % 1015,7 hPa 0,0 mm 5,1 km/h (1 Bft) O-SO 251 0 min 0 min 0,000 mm 0,0 UV-I 123 W/m 16,2 C 17,5 C 7,1 km/h (2 Bft) 100,00 %
19/07/2019 08:35 17,5 C 92 % 1015,7 hPa 0,0 mm 4,7 km/h (1 Bft) SO 223 0 min 0 min 0,000 mm 0,0 UV-I 117 W/m 16,2 C 17,5 C 7,1 km/h (2 Bft) 96,00 %
19/07/2019 08:34 17,5 C 92 % 1015,7 hPa 0,0 mm 5,1 km/h (1 Bft) O-SO 239 0 min 0 min 0,000 mm 0,0 UV-I 112 W/m 16,2 C 17,5 C 7,1 km/h (2 Bft) 100,00 %
19/07/2019 08:33 17,4 C 92 % 1015,7 hPa 0,0 mm 2,4 km/h (1 Bft) O-SO 240 0 min 0 min 0,000 mm 0,0 UV-I 105 W/m 16,1 C 17,4 C 5,3 km/h (1 Bft) 100,00 %
19/07/2019 08:32 17,4 C 92 % 1015,6 hPa 0,0 mm 0,2 km/h (0 Bft) S 190 0 min 0 min 0,000 mm 0,0 UV-I 100 W/m 16,1 C 17,4 C 1,8 km/h (1 Bft) 95,83 %
19/07/2019 08:31 17,4 C 92 % 1015,7 hPa 0,0 mm 1,5 km/h (1 Bft) S 190 0 min 0 min 0,000 mm 0,0 UV-I 98 W/m 16,1 C 17,4 C 3,5 km/h (1 Bft) 100,00 %
19/07/2019 08:30 17,4 C 92 % 1015,6 hPa 0,0 mm 1,4 km/h (1 Bft) S 190 0 min 0 min 0,000 mm 0,0 UV-I 99 W/m 16,1 C 17,4 C 3,5 km/h (1 Bft) 96,00 %
19/07/2019 08:29 17,4 C 92 % 1015,6 hPa 0,0 mm 0,5 km/h (0 Bft) S 190 0 min 0 min 0,000 mm 0,0 UV-I 111 W/m 16,1 C 17,4 C 1,8 km/h (1 Bft) 95,83 %
19/07/2019 08:28 17,4 C 92 % 1015,6 hPa 0,0 mm 4,0 km/h (1 Bft) S 190 0 min 0 min 0,000 mm 0,0 UV-I 119 W/m 16,1 C 17,4 C 7,1 km/h (2 Bft) 100,00 %
19/07/2019 08:27 17,4 C 92 % 1015,6 hPa 0,0 mm 3,2 km/h (1 Bft) S 186 0 min 0 min 0,000 mm 0,0 UV-I 143 W/m 16,1 C 17,4 C 5,3 km/h (1 Bft) 96,15 %
19/07/2019 08:26 17,3 C 92 % 1015,6 hPa 0,0 mm 2,6 km/h (1 Bft) S 182 0 min 0 min 0,000 mm 0,0 UV-I 155 W/m 16,0 C 17,3 C 3,5 km/h (1 Bft) 100,00 %
19/07/2019 08:25 17,3 C 93 % 1015,5 hPa 0,0 mm 1,3 km/h (1 Bft) S 174 0 min 0 min 0,000 mm 0,0 UV-I 145 W/m 16,2 C 17,3 C 3,5 km/h (1 Bft) 96,00 %
19/07/2019 08:24 17,3 C 93 % 1015,5 hPa 0,0 mm 3,0 km/h (1 Bft) S 174 0 min 0 min 0,000 mm 0,0 UV-I 123 W/m 16,2 C 17,3 C 5,3 km/h (1 Bft) 86,96 %
19/07/2019 08:23 17,2 C 93 % 1015,5 hPa 0,0 mm 4,2 km/h (1 Bft) S 175 0 min 0 min 0,000 mm 0,0 UV-I 120 W/m 16,1 C 17,2 C 5,3 km/h (1 Bft) 100,00 %
19/07/2019 08:22 17,1 C 93 % 1015,4 hPa 0,0 mm 4,3 km/h (1 Bft) S-SO 192 0 min 0 min 0,000 mm 0,0 UV-I 121 W/m 16,0 C 17,1 C 7,1 km/h (2 Bft) 96,15 %
19/07/2019 08:21 17,0 C 93 % 1015,4 hPa 0,0 mm 0,0 km/h (0 Bft) S-SO 199 0 min 0 min 0,000 mm 0,0 UV-I 118 W/m 15,9 C 17,0 C 0,0 km/h (0 Bft) 96,67 %
19/07/2019 08:20 17,0 C 93 % 1015,4 hPa 0,0 mm 2,0 km/h (1 Bft) S-SO 199 0 min 0 min 0,000 mm 0,0 UV-I 110 W/m 15,9 C 17,0 C 3,5 km/h (1 Bft) 100,00 %
19/07/2019 08:19 16,9 C 93 % 1015,4 hPa 0,0 mm 3,2 km/h (1 Bft) S-SO 199 0 min 0 min 0,000 mm 0,0 UV-I 122 W/m 15,8 C 16,9 C 5,3 km/h (1 Bft) 96,30 %
19/07/2019 08:18 16,9 C 93 % 1015,4 hPa 0,0 mm 2,9 km/h (1 Bft) S 188 0 min 0 min 0,000 mm 0,0 UV-I 102 W/m 15,8 C 16,9 C 3,5 km/h (1 Bft) 96,00 %
19/07/2019 08:17 16,9 C 93 % 1015,4 hPa 0,0 mm 2,4 km/h (1 Bft) S 185 0 min 0 min 0,000 mm 0,0 UV-I 78 W/m 15,8 C 16,9 C 5,3 km/h (1 Bft) 95,83 %
19/07/2019 08:16 16,9 C 93 % 1015,4 hPa 0,0 mm 5,5 km/h (2 Bft) S 185 0 min 0 min 0,000 mm 0,0 UV-I 69 W/m 15,8 C 16,9 C 7,1 km/h (2 Bft) 96,00 %
19/07/2019 08:15 16,9 C 93 % 1015,4 hPa 0,0 mm 7,0 km/h (2 Bft) S-SE 167 0 min 0 min 0,000 mm 0,0 UV-I 75 W/m 15,8 C 16,6 C 8,9 km/h (2 Bft) 91,67 %
19/07/2019 08:14 16,9 C 93 % 1015,4 hPa 0,0 mm 3,2 km/h (1 Bft) SO 223 0 min 0 min 0,000 mm 0,0 UV-I 72 W/m 15,8 C 16,9 C 5,3 km/h (1 Bft) 91,67 %
19/07/2019 08:13 16,9 C 93 % 1015,4 hPa 0,0 mm 3,2 km/h (1 Bft) SO 223 0 min 0 min 0,000 mm 0,0 UV-I 79 W/m 15,8 C 16,9 C 5,3 km/h (1 Bft) 95,83 %
19/07/2019 08:12 16,9 C 93 % 1015,4 hPa 0,0 mm 1,8 km/h (1 Bft) SO 223 0 min 0 min 0,000 mm 0,0 UV-I 84 W/m 15,8 C 16,9 C 3,5 km/h (1 Bft) 91,67 %
19/07/2019 08:11 16,9 C 93 % 1015,4 hPa 0,0 mm 2,9 km/h (1 Bft) SO 223 0 min 0 min 0,000 mm 0,0 UV-I 89 W/m 15,8 C 16,9 C 5,3 km/h (1 Bft) 96,00 %
19/07/2019 08:10 16,9 C 93 % 1015,4 hPa 0,0 mm 4,1 km/h (1 Bft) SO 223 0 min 0 min 0,000 mm 0,0 UV-I 90 W/m 15,8 C 16,9 C 5,3 km/h (1 Bft) 95,65 %
19/07/2019 08:09 16,9 C 93 % 1015,4 hPa 0,0 mm 3,5 km/h (1 Bft) SO 223 0 min 0 min 0,000 mm 0,0 UV-I 87 W/m 15,8 C 16,9 C 7,1 km/h (2 Bft) 92,00 %
19/07/2019 08:08 16,8 C 93 % 1015,4 hPa 0,0 mm 3,3 km/h (1 Bft) SO 223 0 min 0 min 0,000 mm 0,0 UV-I 91 W/m 15,7 C 16,8 C 5,3 km/h (1 Bft) 95,83 %
19/07/2019 08:07 16,8 C 93 % 1015,4 hPa 0,0 mm 1,6 km/h (1 Bft) SO 223 0 min 0 min 0,000 mm 0,0 UV-I 95 W/m 15,7 C 16,8 C 3,5 km/h (1 Bft) 100,00 %
19/07/2019 08:06 16,8 C 93 % 1015,4 hPa 0,0 mm 0,5 km/h (0 Bft) SO 223 0 min 0 min 0,000 mm 0,0 UV-I 96 W/m 15,7 C 16,8 C 3,5 km/h (1 Bft) 92,00 %
19/07/2019 08:05 16,8 C 93 % 1015,3 hPa 0,0 mm 2,5 km/h (1 Bft) SO 223 0 min 0 min 0,000 mm 0,0 UV-I 92 W/m 15,7 C 16,8 C 5,3 km/h (1 Bft) 96,77 %
19/07/2019 08:04 16,8 C 93 % 1015,3 hPa 0,0 mm 1,6 km/h (1 Bft) SO 223 0 min 0 min 0,000 mm 0,0 UV-I 85 W/m 15,7 C 16,8 C 3,5 km/h (1 Bft) 93,33 %
19/07/2019 08:03 16,8 C 93 % 1015,4 hPa 0,0 mm 2,2 km/h (1 Bft) SO 223 0 min 0 min 0,000 mm 0,0 UV-I 76 W/m 15,7 C 16,8 C 5,3 km/h (1 Bft) 100,00 %
19/07/2019 08:02 16,7 C 93 % 1015,3 hPa 0,0 mm 4,8 km/h (1 Bft) SO 223 0 min 0 min 0,000 mm 0,0 UV-I 68 W/m 15,6 C 16,7 C 7,1 km/h (2 Bft) 87,50 %
19/07/2019 08:01 16,7 C 93 % 1015,3 hPa 0,0 mm 4,5 km/h (1 Bft) SO 223 0 min 0 min 0,025 mm 0,0 UV-I 58 W/m 15,6 C 16,7 C 5,3 km/h (1 Bft) 93,33 %
19/07/2019 08:00 16,7 C 93 % 1015,4 hPa 0,0 mm 4,8 km/h (1 Bft) SO 215 0 min 0 min 0,000 mm 0,0 UV-I 55 W/m 15,6 C 16,7 C 7,1 km/h (2 Bft) 95,83 %
19/07/2019 07:59 16,7 C 93 % 1015,4 hPa 0,0 mm 5,1 km/h (1 Bft) SO 220 0 min 0 min 0,000 mm 0,0 UV-I 59 W/m 15,6 C 16,7 C 7,1 km/h (2 Bft) 96,55 %
19/07/2019 07:58 16,7 C 93 % 1015,3 hPa 0,0 mm 5,1 km/h (1 Bft) SO 225 0 min 0 min 0,000 mm 0,0 UV-I 58 W/m 15,6 C 16,7 C 7,1 km/h (2 Bft) 90,91 %
19/07/2019 07:57 16,7 C 93 % 1015,3 hPa 0,0 mm 5,6 km/h (2 Bft) SO 225 0 min 0 min 0,000 mm 0,0 UV-I 58 W/m 15,6 C 16,7 C 7,1 km/h (2 Bft) 96,43 %
19/07/2019 07:56 16,7 C 93 % 1015,3 hPa 0,0 mm 4,7 km/h (1 Bft) S 187 0 min 0 min 0,000 mm 0,0 UV-I 66 W/m 15,6 C 16,7 C 5,3 km/h (1 Bft) 95,83 %
19/07/2019 07:55 16,7 C 93 % 1015,3 hPa 0,0 mm 4,3 km/h (1 Bft) S 187 0 min 0 min 0,000 mm 0,0 UV-I 79 W/m 15,6 C 16,7 C 7,1 km/h (2 Bft) 96,43 %
19/07/2019 07:54 16,7 C 93 % 1015,3 hPa 0,0 mm 4,9 km/h (1 Bft) S 187 0 min 0 min 0,000 mm 0,0 UV-I 82 W/m 15,6 C 16,7 C 7,1 km/h (2 Bft) 100,00 %
19/07/2019 07:53 16,7 C 93 % 1015,3 hPa 0,0 mm 5,5 km/h (2 Bft) S 187 0 min 0 min 0,000 mm 0,0 UV-I 83 W/m 15,6 C 16,7 C 7,1 km/h (2 Bft) 95,83 %
19/07/2019 07:52 16,7 C 93 % 1015,3 hPa 0,0 mm 4,4 km/h (1 Bft) S 185 0 min 0 min 0,000 mm 0,0 UV-I 80 W/m 15,6 C 16,7 C 5,3 km/h (1 Bft) 100,00 %
19/07/2019 07:51 16,7 C 93 % 1015,3 hPa 0,0 mm 6,2 km/h (2 Bft) S 185 0 min 0 min 0,000 mm 0,0 UV-I 74 W/m 15,6 C 16,7 C 8,9 km/h (2 Bft) 91,67 %
19/07/2019 07:50 16,7 C 93 % 1015,3 hPa 0,0 mm 7,3 km/h (2 Bft) S-SO 193 0 min 0 min 0,000 mm 0,0 UV-I 72 W/m 15,6 C 16,2 C 10,6 km/h (2 Bft) 96,00 %
19/07/2019 07:49 16,6 C 93 % 1015,3 hPa 0,0 mm 3,5 km/h (1 Bft) S-SO 192 0 min 0 min 0,000 mm 0,0 UV-I 66 W/m 15,5 C 16,6 C 5,3 km/h (1 Bft) 95,83 %
19/07/2019 07:48 16,6 C 93 % 1015,3 hPa 0,0 mm 3,1 km/h (1 Bft) S-SO 194 0 min 0 min 0,000 mm 0,0 UV-I 66 W/m 15,5 C 16,6 C 5,3 km/h (1 Bft) 92,59 %
19/07/2019 07:47 16,6 C 93 % 1015,2 hPa 0,0 mm 5,8 km/h (2 Bft) S-SO 193 0 min 0 min 0,000 mm 0,0 UV-I 68 W/m 15,5 C 16,6 C 8,9 km/h (2 Bft) 95,00 %
19/07/2019 07:45 16,6 C 93 % 1015,3 hPa 0,0 mm 5,0 km/h (1 Bft) S-SO 196 0 min 0 min 0,000 mm 0,0 UV-I 65 W/m 15,5 C 16,6 C 8,9 km/h (2 Bft) 95,83 %
19/07/2019 07:44 16,6 C 93 % 1015,2 hPa 0,0 mm 6,2 km/h (2 Bft) S 184 0 min 0 min 0,000 mm 0,0 UV-I 64 W/m 15,5 C 16,6 C 8,9 km/h (2 Bft) 92,31 %
19/07/2019 07:43 16,5 C 93 % 1015,2 hPa 0,0 mm 5,2 km/h (1 Bft) S-SO 205 0 min 0 min 0,000 mm 0,0 UV-I 62 W/m 15,4 C 16,5 C 8,9 km/h (2 Bft) 100,00 %
19/07/2019 07:42 16,5 C 93 % 1015,2 hPa 0,0 mm 5,8 km/h (2 Bft) S-SO 206 0 min 0 min 0,000 mm 0,0 UV-I 62 W/m 15,4 C 16,5 C 7,1 km/h (2 Bft) 96,00 %
19/07/2019 07:41 16,5 C 93 % 1015,2 hPa 0,0 mm 7,0 km/h (2 Bft) S-SO 194 0 min 0 min 0,000 mm 0,0 UV-I 62 W/m 15,4 C 16,2 C 8,9 km/h (2 Bft) 100,00 %
19/07/2019 07:40 16,5 C 93 % 1015,2 hPa 0,0 mm 6,1 km/h (2 Bft) S-SO 203 0 min 0 min 0,000 mm 0,0 UV-I 61 W/m 15,4 C 16,5 C 8,9 km/h (2 Bft) 100,00 %
19/07/2019 07:38 16,4 C 93 % 1015,2 hPa 0,0 mm 6,0 km/h (2 Bft) S-SO 205 0 min 0 min 0,000 mm 0,0 UV-I 57 W/m 15,3 C 16,4 C 8,9 km/h (2 Bft) 98,15 %
19/07/2019 07:36 16,4 C 93 % 1015,1 hPa 0,0 mm 6,1 km/h (2 Bft) S-SO 198 0 min 0 min 0,000 mm 0,0 UV-I 52 W/m 15,3 C 16,4 C 8,9 km/h (2 Bft) 100,00 %
19/07/2019 07:34 16,4 C 93 % 1015,1 hPa 0,0 mm 5,0 km/h (1 Bft) S-SO 194 0 min 0 min 0,000 mm 0,0 UV-I 49 W/m 15,3 C 16,4 C 7,1 km/h (2 Bft) 100,00 %
19/07/2019 07:32 16,4 C 93 % 1015,1 hPa 0,0 mm 6,9 km/h (2 Bft) S 180 0 min 0 min 0,000 mm 0,0 UV-I 50 W/m 15,3 C 16,1 C 10,6 km/h (2 Bft) 95,83 %
19/07/2019 07:30 16,4 C 93 % 1015,2 hPa 0,0 mm 6,0 km/h (2 Bft) S 184 0 min 0 min 0,000 mm 0,0 UV-I 53 W/m 15,3 C 16,4 C 8,9 km/h (2 Bft) 100,00 %
19/07/2019 07:28 16,3 C 93 % 1015,2 hPa 0,0 mm 5,4 km/h (2 Bft) S-SO 195 0 min 0 min 0,000 mm 0,0 UV-I 52 W/m 15,2 C 16,3 C 8,9 km/h (2 Bft) 93,88 %
19/07/2019 07:26 16,3 C 93 % 1015,2 hPa 0,0 mm 5,5 km/h (2 Bft) S-SO 196 0 min 0 min 0,000 mm 0,0 UV-I 47 W/m 15,2 C 16,3 C 8,9 km/h (2 Bft) 100,00 %
19/07/2019 07:24 16,3 C 93 % 1015,1 hPa 0,0 mm 5,9 km/h (2 Bft) S-SO 194 0 min 0 min 0,000 mm 0,0 UV-I 44 W/m 15,2 C 16,3 C 8,9 km/h (2 Bft) 100,00 %
19/07/2019 07:22 16,2 C 93 % 1015,2 hPa 0,0 mm 4,5 km/h (1 Bft) SO 227 0 min 0 min 0,000 mm 0,0 UV-I 40 W/m 15,1 C 16,2 C 7,1 km/h (2 Bft) 100,00 %
19/07/2019 07:21 16,2 C 93 % 1015,1 hPa 0,0 mm 3,7 km/h (1 Bft) O-SO 248 0 min 0 min 0,000 mm 0,0 UV-I 39 W/m 15,1 C 16,2 C 5,3 km/h (1 Bft) 96,08 %
19/07/2019 07:19 16,2 C 93 % 1015,1 hPa 0,0 mm 2,8 km/h (1 Bft) O-SO 248 0 min 0 min 0,000 mm 0,0 UV-I 40 W/m 15,1 C 16,2 C 5,3 km/h (1 Bft) 97,73 %
19/07/2019 07:17 16,2 C 93 % 1015,1 hPa 0,0 mm 3,5 km/h (1 Bft) O-SO 248 0 min 0 min 0,000 mm 0,0 UV-I 42 W/m 15,1 C 16,2 C 5,3 km/h (1 Bft) 96,15 %
19/07/2019 07:15 16,1 C 93 % 1015,2 hPa 0,0 mm 1,2 km/h (1 Bft) O-SO 248 0 min 0 min 0,000 mm 0,0 UV-I 42 W/m 15,0 C 16,1 C 3,5 km/h (1 Bft) 92,50 %
19/07/2019 07:13 15,9 C 93 % 1015,1 hPa 0,0 mm 2,3 km/h (1 Bft) O-SO 248 0 min 0 min 0,000 mm 0,0 UV-I 39 W/m 14,8 C 15,9 C 3,5 km/h (1 Bft) 95,65 %
19/07/2019 07:12 15,9 C 93 % 1015,1 hPa 0,0 mm 1,7 km/h (1 Bft) O-SO 248 0 min 0 min 0,000 mm 0,0 UV-I 36 W/m 14,8 C 15,9 C 3,5 km/h (1 Bft) 97,96 %
19/07/2019 07:10 15,8 C 93 % 1015,1 hPa 0,0 mm 0,0 km/h (0 Bft) O-SO 248 0 min 0 min 0,000 mm 0,0 UV-I 33 W/m 14,7 C 15,8 C 0,0 km/h (0 Bft) 100,00 %
19/07/2019 07:09 15,8 C 93 % 1015,1 hPa 0,0 mm 0,4 km/h (0 Bft) O-SO 248 0 min 0 min 0,000 mm 0,0 UV-I 33 W/m 14,7 C 15,8 C 1,8 km/h (1 Bft) 97,92 %
19/07/2019 07:07 15,7 C 93 % 1015,1 hPa 0,0 mm 0,7 km/h (0 Bft) O-SO 248 0 min 0 min 0,000 mm 0,0 UV-I 38 W/m 14,6 C 15,7 C 1,8 km/h (1 Bft) 100,00 %
19/07/2019 07:06 15,7 C 93 % 1015,1 hPa 0,0 mm 0,0 km/h (0 Bft) O-SO 248 0 min 0 min 0,000 mm 0,0 UV-I 42 W/m 14,6 C 15,7 C 0,0 km/h (0 Bft) 98,15 %
19/07/2019 07:04 15,6 C 93 % 1015,0 hPa 0,0 mm 0,0 km/h (0 Bft) O-SO 248 0 min 0 min 0,000 mm 0,0 UV-I 47 W/m 14,5 C 15,6 C 0,0 km/h (0 Bft) 100,00 %
19/07/2019 07:02 15,4 C 93 % 1015,0 hPa 0,0 mm 1,0 km/h (0 Bft) O-SO 248 0 min 0 min 0,000 mm 0,0 UV-I 45 W/m 14,3 C 15,4 C 1,8 km/h (1 Bft) 100,00 %
19/07/2019 07:01 15,4 C 93 % 1015,0 hPa 0,0 mm 2,4 km/h (1 Bft) O-SO 248 0 min 0 min 0,000 mm 0,0 UV-I 44 W/m 14,3 C 15,4 C 3,5 km/h (1 Bft) 100,00 %
19/07/2019 07:00 15,4 C 93 % 1015,0 hPa 0,0 mm 2,0 km/h (1 Bft) O-SO 248 0 min 0 min 0,000 mm 0,0 UV-I 46 W/m 14,3 C 15,4 C 3,5 km/h (1 Bft) 98,36 %
19/07/2019 06:58 15,2 C 93 % 1015,0 hPa 0,0 mm 2,0 km/h (1 Bft) O-SO 248 0 min 0 min 0,000 mm 0,0 UV-I 45 W/m 14,1 C 15,2 C 3,5 km/h (1 Bft) 100,00 %
19/07/2019 06:56 15,2 C 93 % 1015,0 hPa 0,0 mm 1,7 km/h (1 Bft) O-SO 248 0 min 0 min 0,000 mm 0,0 UV-I 42 W/m 14,1 C 15,2 C 3,5 km/h (1 Bft) 100,00 %
19/07/2019 06:55 15,2 C 93 % 1014,9 hPa 0,0 mm 1,5 km/h (1 Bft) O-SO 248 0 min 0 min 0,000 mm 0,0 UV-I 41 W/m 14,1 C 15,2 C 3,5 km/h (1 Bft) 100,00 %
19/07/2019 06:54 15,1 C 93 % 1014,9 hPa 0,0 mm 2,1 km/h (1 Bft) O-SO 248 0 min 0 min 0,000 mm 0,0 UV-I 39 W/m 14,0 C 15,1 C 3,5 km/h (1 Bft) 100,00 %
19/07/2019 06:53 15,1 C 93 % 1014,9 hPa 0,0 mm 2,8 km/h (1 Bft) O-SO 248 0 min 0 min 0,000 mm 0,0 UV-I 35 W/m 14,0 C 15,1 C 3,5 km/h (1 Bft) 96,00 %
19/07/2019 06:52 14,9 C 93 % 1014,9 hPa 0,0 mm 1,4 km/h (1 Bft) O-SO 248 0 min 0 min 0,000 mm 0,0 UV-I 33 W/m 13,8 C 14,9 C 3,5 km/h (1 Bft) 96,15 %
19/07/2019 06:50 14,9 C 93 % 1014,9 hPa 0,0 mm 0,0 km/h (0 Bft) O-SO 248 0 min 0 min 0,000 mm 0,0 UV-I 35 W/m 13,8 C 14,9 C 0,0 km/h (0 Bft) 100,00 %
19/07/2019 06:49 14,9 C 93 % 1014,9 hPa 0,0 mm 0,4 km/h (0 Bft) O-SO 248 0 min 0 min 0,000 mm 0,0 UV-I 34 W/m 13,8 C 14,9 C 1,8 km/h (1 Bft) 95,65 %
19/07/2019 06:48 14,8 C 93 % 1014,9 hPa 0,0 mm 1,2 km/h (1 Bft) O-SO 248 0 min 0 min 0,000 mm 0,0 UV-I 32 W/m 13,7 C 14,8 C 1,8 km/h (1 Bft) 100,00 %
19/07/2019 06:47 14,8 C 93 % 1014,9 hPa 0,0 mm 1,7 km/h (1 Bft) O-SO 248 0 min 0 min 0,000 mm 0,0 UV-I 27 W/m 13,7 C 14,8 C 3,5 km/h (1 Bft) 97,44 %
19/07/2019 06:45 14,8 C 93 % 1014,9 hPa 0,0 mm 1,1 km/h (1 Bft) O-SO 248 0 min 0 min 0,000 mm 0,0 UV-I 24 W/m 13,7 C 14,8 C 1,8 km/h (1 Bft) 100,00 %
19/07/2019 06:44 14,8 C 93 % 1014,9 hPa 0,0 mm 2,2 km/h (1 Bft) O-SO 248 0 min 0 min 0,000 mm 0,0 UV-I 24 W/m 13,7 C 14,8 C 3,5 km/h (1 Bft) 100,00 %
19/07/2019 06:43 14,8 C 93 % 1015,0 hPa 0,0 mm 0,4 km/h (0 Bft) O-SO 248 0 min 0 min 0,000 mm 0,0 UV-I 25 W/m 13,7 C 14,8 C 1,8 km/h (1 Bft) 100,00 %
19/07/2019 06:41 14,8 C 93 % 1014,9 hPa 0,0 mm 0,0 km/h (0 Bft) O-SO 248 0 min 0 min 0,000 mm 0,0 UV-I 20 W/m 13,7 C 14,8 C 0,0 km/h (0 Bft) 100,00 %
19/07/2019 06:39 14,7 C 93 % 1015,0 hPa 0,0 mm 0,0 km/h (0 Bft) O-SO 248 0 min 0 min 0,000 mm 0,0 UV-I 17 W/m 13,6 C 14,7 C 0,0 km/h (0 Bft) 100,00 %
19/07/2019 06:38 14,7 C 93 % 1015,0 hPa 0,0 mm 0,0 km/h (0 Bft) O-SO 248 0 min 0 min 0,000 mm 0,0 UV-I 15 W/m 13,6 C 14,7 C 0,0 km/h (0 Bft) 100,00 %
19/07/2019 06:36 14,8 C 93 % 1015,0 hPa 0,0 mm 0,0 km/h (0 Bft) O-SO 248 0 min 0 min 0,000 mm 0,0 UV-I 12 W/m 13,7 C 14,8 C 0,0 km/h (0 Bft) 100,00 %
19/07/2019 06:35 14,8 C 93 % 1015,0 hPa 0,0 mm 0,0 km/h (0 Bft) O-SO 248 0 min 0 min 0,000 mm 0,0 UV-I 12 W/m 13,7 C 14,8 C 0,0 km/h (0 Bft) 92,31 %
19/07/2019 06:34 14,8 C 93 % 1015,0 hPa 0,0 mm 0,2 km/h (0 Bft) O-SO 248 0 min 0 min 0,000 mm 0,0 UV-I 11 W/m 13,7 C 14,8 C 1,8 km/h (1 Bft) 100,00 %
19/07/2019 06:33 14,8 C 93 % 1015,0 hPa 0,0 mm 1,8 km/h (1 Bft) O-SO 248 0 min 0 min 0,000 mm 0,0 UV-I 10 W/m 13,7 C 14,8 C 3,5 km/h (1 Bft) 100,00 %
19/07/2019 06:32 14,8 C 93 % 1014,9 hPa 0,0 mm 1,4 km/h (1 Bft) O-SO 248 0 min 0 min 0,000 mm 0,0 UV-I 9 W/m 13,7 C 14,8 C 3,5 km/h (1 Bft) 100,00 %
19/07/2019 06:30 14,9 C 93 % 1014,9 hPa 0,0 mm 1,7 km/h (1 Bft) O-SO 248 0 min 0 min 0,000 mm 0,0 UV-I 9 W/m 13,8 C 14,9 C 3,5 km/h (1 Bft) 100,00 %
19/07/2019 06:29 14,9 C 93 % 1014,9 hPa 0,0 mm 1,2 km/h (1 Bft) O-SO 248 0 min 0 min 0,000 mm 0,0 UV-I 7 W/m 13,8 C 14,9 C 3,5 km/h (1 Bft) 98,04 %
19/07/2019 06:27 14,9 C 93 % 1015,0 hPa 0,0 mm 1,9 km/h (1 Bft) O-SO 248 0 min 0 min 0,000 mm 0,0 UV-I 7 W/m 13,8 C 14,9 C 3,5 km/h (1 Bft) 91,30 %
19/07/2019 06:26 14,9 C 93 % 1015,0 hPa 0,0 mm 1,7 km/h (1 Bft) O-SO 248 0 min 0 min 0,000 mm 0,0 UV-I 7 W/m 13,8 C 14,9 C 3,5 km/h (1 Bft) 97,62 %
19/07/2019 06:24 15,0 C 93 % 1015,0 hPa 0,0 mm 2,4 km/h (1 Bft) O-SO 248 0 min 0 min 0,000 mm 0,0 UV-I 7 W/m 13,9 C 15,0 C 3,5 km/h (1 Bft) 100,00 %
19/07/2019 06:23 15,1 C 93 % 1015,0 hPa 0,0 mm 2,0 km/h (1 Bft) O-SO 248 0 min 0 min 0,000 mm 0,0 UV-I 5 W/m 14,0 C 15,1 C 3,5 km/h (1 Bft) 95,83 %
19/07/2019 06:22 15,1 C 93 % 1015,0 hPa 0,0 mm 0,7 km/h (0 Bft) O-SO 248 0 min 0 min 0,000 mm 0,0 UV-I 5 W/m 14,0 C 15,1 C 1,8 km/h (1 Bft) 95,83 %
19/07/2019 06:21 15,1 C 93 % 1015,0 hPa 0,0 mm 1,6 km/h (1 Bft) O-SO 248 0 min 0 min 0,000 mm 0,0 UV-I 5 W/m 14,0 C 15,1 C 3,5 km/h (1 Bft) 97,67 %
19/07/2019 06:19 15,2 C 93 % 1014,9 hPa 0,0 mm 1,7 km/h (1 Bft) O-SO 248 0 min 0 min 0,000 mm 0,0 UV-I 5 W/m 14,1 C 15,2 C 3,5 km/h (1 Bft) 95,83 %
19/07/2019 06:18 15,2 C 93 % 1015,0 hPa 0,0 mm 1,3 km/h (1 Bft) O-SO 248 0 min 0 min 0,000 mm 0,0 UV-I 5 W/m 14,1 C 15,2 C 3,5 km/h (1 Bft) 95,65 %
19/07/2019 06:17 15,2 C 93 % 1015,0 hPa 0,0 mm 0,3 km/h (0 Bft) O-SO 248 0 min 0 min 0,000 mm 0,0 UV-I 4 W/m 14,1 C 15,2 C 1,8 km/h (1 Bft) 97,62 %
19/07/2019 06:16 15,3 C 93 % 1015,0 hPa 0,0 mm 0,6 km/h (0 Bft) O-SO 248 0 min 0 min 0,000 mm 0,0 UV-I 0 W/m 14,2 C 15,3 C 3,5 km/h (1 Bft) 100,00 %
19/07/2019 06:14 15,3 C 93 % 1015,0 hPa 0,0 mm 1,9 km/h (1 Bft) O-SO 248 0 min 0 min 0,000 mm 0,0 UV-I 0 W/m 14,2 C 15,3 C 3,5 km/h (1 Bft) 100,00 %
19/07/2019 06:13 15,3 C 93 % 1014,9 hPa 0,0 mm 2,8 km/h (1 Bft) O-SO 248 0 min 0 min 0,000 mm 0,0 UV-I 0 W/m 14,2 C 15,3 C 3,5 km/h (1 Bft) 95,65 %
19/07/2019 06:12 15,3 C 93 % 1015,0 hPa 0,0 mm 2,4 km/h (1 Bft) O-SO 248 0 min 0 min 0,000 mm 0,0 UV-I 0 W/m 14,2 C 15,3 C 3,5 km/h (1 Bft) 100,00 %
19/07/2019 06:11 15,4 C 93 % 1015,0 hPa 0,0 mm 1,7 km/h (1 Bft) O-SO 248 0 min 0 min 0,000 mm 0,0 UV-I 0 W/m 14,3 C 15,4 C 3,5 km/h (1 Bft) 100,00 %
19/07/2019 06:10 15,4 C 93 % 1015,0 hPa 0,0 mm 2,8 km/h (1 Bft) O-SO 248 0 min 0 min 0,000 mm 0,0 UV-I 0 W/m 14,3 C 15,4 C 5,3 km/h (1 Bft) 98,04 %
19/07/2019 06:08 15,4 C 93 % 1015,0 hPa 0,0 mm 2,0 km/h (1 Bft) O-SO 248 0 min 0 min 0,000 mm 0,0 UV-I 0 W/m 14,3 C 15,4 C 3,5 km/h (1 Bft) 100,00 %
19/07/2019 06:07 15,4 C 93 % 1015,0 hPa 0,0 mm 1,1 km/h (1 Bft) O-SO 248 0 min 0 min 0,000 mm 0,0 UV-I 0 W/m 14,3 C 15,4 C 3,5 km/h (1 Bft) 100,00 %
19/07/2019 06:06 15,5 C 93 % 1014,9 hPa 0,0 mm 3,5 km/h (1 Bft) O-SO 248 0 min 0 min 0,000 mm 0,0 UV-I 0 W/m 14,4 C 15,5 C 7,1 km/h (2 Bft) 100,00 %
19/07/2019 06:04 15,5 C 93 % 1015,0 hPa 0,0 mm 2,0 km/h (1 Bft) O-SO 248 0 min 0 min 0,000 mm 0,0 UV-I 0 W/m 14,4 C 15,5 C 3,5 km/h (1 Bft) 91,30 %
19/07/2019 06:03 15,5 C 93 % 1014,9 hPa 0,0 mm 2,8 km/h (1 Bft) O-SO 248 0 min 0 min 0,000 mm 0,0 UV-I 0 W/m 14,4 C 15,5 C 3,5 km/h (1 Bft) 100,00 %
19/07/2019 06:02 15,6 C 93 % 1014,9 hPa 0,0 mm 2,4 km/h (1 Bft) O-SO 248 0 min 0 min 0,000 mm 0,0 UV-I 0 W/m 14,5 C 15,6 C 3,5 km/h (1 Bft) 98,65 %
19/07/2019 05:59 15,6 C 93 % 1014,9 hPa 0,0 mm 5,1 km/h (1 Bft) O-SO 248 0 min 0 min 0,000 mm 0,0 UV-I 0 W/m 14,5 C 15,6 C 7,1 km/h (2 Bft) 100,00 %
19/07/2019 05:58 15,6 C 93 % 1014,9 hPa 0,0 mm 3,2 km/h (1 Bft) O-SO 248 0 min 0 min 0,000 mm 0,0 UV-I 0 W/m 14,5 C 15,6 C 5,3 km/h (1 Bft) 96,88 %
19/07/2019 05:57 15,6 C 93 % 1014,9 hPa 0,0 mm 4,2 km/h (1 Bft) O-SO 247 0 min 0 min 0,000 mm 0,0 UV-I 0 W/m 14,5 C 15,6 C 5,3 km/h (1 Bft) 100,00 %
19/07/2019 05:55 15,6 C 93 % 1014,9 hPa 0,0 mm 2,4 km/h (1 Bft) O-SO 247 0 min 0 min 0,000 mm 0,0 UV-I 0 W/m 14,5 C 15,6 C 5,3 km/h (1 Bft) 92,31 %
19/07/2019 05:54 15,7 C 93 % 1014,9 hPa 0,0 mm 1,8 km/h (1 Bft) O-SO 247 0 min 0 min 0,000 mm 0,0 UV-I 0 W/m 14,6 C 15,7 C 3,5 km/h (1 Bft) 100,00 %
19/07/2019 05:53 15,7 C 93 % 1014,9 hPa 0,0 mm 2,7 km/h (1 Bft) O-SO 247 0 min 0 min 0,000 mm 0,0 UV-I 0 W/m 14,6 C 15,7 C 5,3 km/h (1 Bft) 92,00 %
19/07/2019 05:52 15,7 C 93 % 1014,9 hPa 0,0 mm 4,7 km/h (1 Bft) O-SO 247 0 min 0 min 0,000 mm 0,0 UV-I 0 W/m 14,6 C 15,7 C 5,3 km/h (1 Bft) 96,15 %
19/07/2019 05:51 15,7 C 93 % 1014,9 hPa 0,0 mm 4,3 km/h (1 Bft) O-SO 247 0 min 0 min 0,000 mm 0,0 UV-I 0 W/m 14,6 C 15,7 C 5,3 km/h (1 Bft) 93,75 %
19/07/2019 05:49 15,7 C 93 % 1014,8 hPa 0,0 mm 4,0 km/h (1 Bft) O-SO 247 0 min 0 min 0,000 mm 0,0 UV-I 0 W/m 14,6 C 15,7 C 7,1 km/h (2 Bft) 95,83 %
19/07/2019 05:47 15,7 C 93 % 1014,9 hPa 0,0 mm 3,4 km/h (1 Bft) O-SO 247 0 min 0 min 0,000 mm 0,0 UV-I 0 W/m 14,6 C 15,7 C 5,3 km/h (1 Bft) 95,65 %
19/07/2019 05:46 15,7 C 93 % 1014,9 hPa 0,0 mm 3,6 km/h (1 Bft) O-SO 247 0 min 0 min 0,000 mm 0,0 UV-I 0 W/m 14,6 C 15,7 C 5,3 km/h (1 Bft) 91,67 %
19/07/2019 05:45 15,7 C 93 % 1014,9 hPa 0,0 mm 4,1 km/h (1 Bft) O-SO 247 0 min 0 min 0,000 mm 0,0 UV-I 0 W/m 14,6 C 15,7 C 5,3 km/h (1 Bft) 100,00 %
19/07/2019 05:44 15,7 C 93 % 1014,9 hPa 0,0 mm 3,4 km/h (1 Bft) O-SO 247 0 min 0 min 0,000 mm 0,0 UV-I 0 W/m 14,6 C 15,7 C 5,3 km/h (1 Bft) 96,43 %
19/07/2019 05:43 15,8 C 93 % 1014,9 hPa 0,0 mm 3,5 km/h (1 Bft) O-SO 247 0 min 0 min 0,000 mm 0,0 UV-I 0 W/m 14,7 C 15,8 C 5,3 km/h (1 Bft) 95,83 %
19/07/2019 05:42 15,8 C 93 % 1015,0 hPa 0,0 mm 4,1 km/h (1 Bft) O-SO 247 0 min 0 min 0,000 mm 0,0 UV-I 0 W/m 14,7 C 15,8 C 5,3 km/h (1 Bft) 100,00 %
19/07/2019 05:41 15,8 C 93 % 1014,9 hPa 0,0 mm 3,7 km/h (1 Bft) O-SO 247 0 min 0 min 0,000 mm 0,0 UV-I 0 W/m 14,7 C 15,8 C 5,3 km/h (1 Bft) 97,14 %
19/07/2019 05:40 15,8 C 93 % 1015,0 hPa 0,0 mm 4,2 km/h (1 Bft) O-SO 247 0 min 0 min 0,000 mm 0,0 UV-I 0 W/m 14,7 C 15,8 C 7,1 km/h (2 Bft) 100,00 %
19/07/2019 05:39 15,8 C 93 % 1015,0 hPa 0,0 mm 5,0 km/h (1 Bft) O-SO 247 0 min 0 min 0,000 mm 0,0 UV-I 0 W/m 14,7 C 15,8 C 7,1 km/h (2 Bft) 95,83 %
19/07/2019 05:38 15,8 C 93 % 1015,0 hPa 0,0 mm 5,0 km/h (1 Bft) O-SO 250 0 min 0 min 0,000 mm 0,0 UV-I 0 W/m 14,7 C 15,8 C 7,1 km/h (2 Bft) 97,83 %
19/07/2019 05:37 15,9 C 93 % 1015,0 hPa 0,0 mm 4,2 km/h (1 Bft) O-SO 240 0 min 0 min 0,000 mm 0,0 UV-I 0 W/m 14,8 C 15,9 C 7,1 km/h (2 Bft) 96,67 %
19/07/2019 05:36 15,9 C 93 % 1015,1 hPa 0,0 mm 4,5 km/h (1 Bft) O-SO 244 0 min 0 min 0,000 mm 0,0 UV-I 0 W/m 14,8 C 15,9 C 7,1 km/h (2 Bft) 94,44 %
19/07/2019 05:34 15,9 C 93 % 1015,1 hPa 0,0 mm 4,7 km/h (1 Bft) O-SO 237 0 min 0 min 0,000 mm 0,0 UV-I 0 W/m 14,8 C 15,9 C 7,1 km/h (2 Bft) 96,55 %
19/07/2019 05:33 15,9 C 93 % 1015,1 hPa 0,0 mm 5,2 km/h (1 Bft) SO 236 0 min 0 min 0,000 mm 0,0 UV-I 0 W/m 14,8 C 15,9 C 7,1 km/h (2 Bft) 100,00 %
19/07/2019 05:32 16,0 C 93 % 1015,0 hPa 0,0 mm 3,6 km/h (1 Bft) SO 221 0 min 0 min 0,000 mm 0,0 UV-I 0 W/m 14,9 C 16,0 C 5,3 km/h (1 Bft) 96,15 %
19/07/2019 05:31 16,0 C 93 % 1015,1 hPa 0,0 mm 5,2 km/h (1 Bft) SO 221 0 min 0 min 0,000 mm 0,0 UV-I 0 W/m 14,9 C 16,0 C 7,1 km/h (2 Bft) 100,00 %
19/07/2019 05:30 16,0 C 93 % 1015,1 hPa 0,0 mm 7,5 km/h (2 Bft) O-SO 237 0 min 0 min 0,000 mm 0,0 UV-I 0 W/m 14,9 C 15,4 C 12,4 km/h (2 Bft) 92,31 %
19/07/2019 05:29 16,1 C 93 % 1015,0 hPa 0,0 mm 6,3 km/h (2 Bft) O-SO 237 0 min 0 min 0,000 mm 0,0 UV-I 0 W/m 15,0 C 16,1 C 7,1 km/h (2 Bft) 100,00 %
19/07/2019 05:28 16,1 C 93 % 1015,0 hPa 0,0 mm 5,0 km/h (1 Bft) O-SO 248 0 min 0 min 0,000 mm 0,0 UV-I 0 W/m 15,0 C 16,1 C 8,9 km/h (2 Bft) 95,83 %
19/07/2019 05:27 16,1 C 93 % 1015,0 hPa 0,0 mm 4,8 km/h (1 Bft) O-SO 245 0 min 0 min 0,000 mm 0,0 UV-I 0 W/m 15,0 C 16,1 C 7,1 km/h (2 Bft) 100,00 %
19/07/2019 05:26 16,1 C 93 % 1014,9 hPa 0,0 mm 4,5 km/h (1 Bft) O-SO 240 0 min 0 min 0,000 mm 0,0 UV-I 0 W/m 15,0 C 16,1 C 5,3 km/h (1 Bft) 96,00 %
19/07/2019 05:25 16,1 C 93 % 1014,9 hPa 0,0 mm 5,3 km/h (1 Bft) O-SO 238 0 min 0 min 0,000 mm 0,0 UV-I 0 W/m 15,0 C 16,1 C 8,9 km/h (2 Bft) 91,30 %
19/07/2019 05:24 16,1 C 93 % 1014,9 hPa 0,0 mm 5,5 km/h (2 Bft) O-SO 237 0 min 0 min 0,000 mm 0,0 UV-I 0 W/m 15,0 C 16,1 C 7,1 km/h (2 Bft) 100,00 %
19/07/2019 05:23 16,1 C 93 % 1015,0 hPa 0,0 mm 5,6 km/h (2 Bft) O-SO 237 0 min 0 min 0,000 mm 0,0 UV-I 0 W/m 15,0 C 16,1 C 8,9 km/h (2 Bft) 91,30 %
19/07/2019 05:22 16,2 C 93 % 1014,9 hPa 0,0 mm 4,5 km/h (1 Bft) O-SO 242 0 min 0 min 0,000 mm 0,0 UV-I 0 W/m 15,1 C 16,2 C 7,1 km/h (2 Bft) 100,00 %
19/07/2019 05:21 16,1 C 93 % 1014,9 hPa 0,0 mm 4,0 km/h (1 Bft) O-SO 242 0 min 0 min 0,000 mm 0,0 UV-I 0 W/m 15,0 C 16,1 C 7,1 km/h (2 Bft) 91,67 %
19/07/2019 05:20 16,2 C 93 % 1014,9 hPa 0,0 mm 4,8 km/h (1 Bft) O-SO 242 0 min 0 min 0,000 mm 0,0 UV-I 0 W/m 15,1 C 16,2 C 7,1 km/h (2 Bft) 95,83 %
19/07/2019 05:19 16,2 C 93 % 1014,9 hPa 0,0 mm 4,3 km/h (1 Bft) O-SO 238 0 min 0 min 0,000 mm 0,0 UV-I 0 W/m 15,1 C 16,2 C 7,1 km/h (2 Bft) 95,65 %
19/07/2019 05:18 16,2 C 93 % 1014,9 hPa 0,0 mm 4,3 km/h (1 Bft) SO 234 0 min 0 min 0,000 mm 0,0 UV-I 0 W/m 15,1 C 16,2 C 5,3 km/h (1 Bft) 96,30 %
19/07/2019 05:17 16,2 C 93 % 1014,9 hPa 0,0 mm 4,0 km/h (1 Bft) SO 233 0 min 0 min 0,000 mm 0,0 UV-I 0 W/m 15,1 C 16,2 C 7,1 km/h (2 Bft) 95,65 %
19/07/2019 05:16 16,2 C 93 % 1014,9 hPa 0,0 mm 5,6 km/h (2 Bft) SO 234 0 min 0 min 0,000 mm 0,0 UV-I 0 W/m 15,1 C 16,2 C 7,1 km/h (2 Bft) 96,30 %
19/07/2019 05:15 16,2 C 93 % 1014,8 hPa 0,0 mm 5,2 km/h (1 Bft) O-SO 239 0 min 0 min 0,000 mm 0,0 UV-I 0 W/m 15,1 C 16,2 C 12,4 km/h (2 Bft) 100,00 %
19/07/2019 05:14 16,2 C 93 % 1014,8 hPa 0,0 mm 3,8 km/h (1 Bft) SO 235 0 min 0 min 0,000 mm 0,0 UV-I 0 W/m 15,1 C 16,2 C 7,1 km/h (2 Bft) 100,00 %
19/07/2019 05:13 16,2 C 93 % 1014,8 hPa 0,0 mm 5,1 km/h (1 Bft) SO 235 0 min 0 min 0,000 mm 0,0 UV-I 0 W/m 15,1 C 16,2 C 7,1 km/h (2 Bft) 100,00 %
19/07/2019 05:12 16,2 C 93 % 1014,8 hPa 0,0 mm 3,8 km/h (1 Bft) SO 235 0 min 0 min 0,000 mm 0,0 UV-I 0 W/m 15,1 C 16,2 C 5,3 km/h (1 Bft) 100,00 %
19/07/2019 05:11 16,2 C 93 % 1014,8 hPa 0,0 mm 4,0 km/h (1 Bft) SO 235 0 min 0 min 0,000 mm 0,0 UV-I 0 W/m 15,1 C 16,2 C 5,3 km/h (1 Bft) 100,00 %
19/07/2019 05:10 16,2 C 93 % 1014,8 hPa 0,0 mm 2,5 km/h (1 Bft) SO 234 0 min 0 min 0,000 mm 0,0 UV-I 0 W/m 15,1 C 16,2 C 3,5 km/h (1 Bft) 91,67 %
19/07/2019 05:09 16,3 C 93 % 1014,9 hPa 0,0 mm 3,0 km/h (1 Bft) SO 235 0 min 0 min 0,000 mm 0,0 UV-I 0 W/m 15,2 C 16,3 C 5,3 km/h (1 Bft) 95,83 %
19/07/2019 05:08 16,3 C 93 % 1014,9 hPa 0,0 mm 4,2 km/h (1 Bft) SO 235 0 min 0 min 0,000 mm 0,0 UV-I 0 W/m 15,2 C 16,3 C 7,1 km/h (2 Bft) 95,83 %
19/07/2019 05:07 16,3 C 93 % 1014,9 hPa 0,0 mm 4,4 km/h (1 Bft) SO 235 0 min 0 min 0,000 mm 0,0 UV-I 0 W/m 15,2 C 16,3 C 7,1 km/h (2 Bft) 100,00 %
19/07/2019 05:06 16,3 C 93 % 1014,9 hPa 0,0 mm 5,0 km/h (1 Bft) SO 235 0 min 0 min 0,000 mm 0,0 UV-I 0 W/m 15,2 C 16,3 C 7,1 km/h (2 Bft) 100,00 %
19/07/2019 05:05 16,3 C 93 % 1014,9 hPa 0,0 mm 3,1 km/h (1 Bft) O-SO 238 0 min 0 min 0,000 mm 0,0 UV-I 0 W/m 15,2 C 16,3 C 5,3 km/h (1 Bft) 100,00 %
19/07/2019 05:04 16,3 C 93 % 1014,9 hPa 0,0 mm 4,9 km/h (1 Bft) O-SO 238 0 min 0 min 0,000 mm 0,0 UV-I 0 W/m 15,2 C 16,3 C 7,1 km/h (2 Bft) 100,00 %
19/07/2019 05:03 16,3 C 93 % 1014,9 hPa 0,0 mm 6,2 km/h (2 Bft) SO 236 0 min 0 min 0,000 mm 0,0 UV-I 0 W/m 15,2 C 16,3 C 8,9 km/h (2 Bft) 95,65 %
19/07/2019 05:02 16,3 C 93 % 1014,9 hPa 0,0 mm 4,0 km/h (1 Bft) SO 215 0 min 0 min 0,000 mm 0,0 UV-I 0 W/m 15,2 C 16,3 C 5,3 km/h (1 Bft) 100,00 %
19/07/2019 05:01 16,3 C 93 % 1015,0 hPa 0,0 mm 5,9 km/h (2 Bft) S-SO 213 0 min 0 min 0,000 mm 0,0 UV-I 0 W/m 15,2 C 16,3 C 8,9 km/h (2 Bft) 100,00 %
19/07/2019 04:59 16,3 C 93 % 1015,0 hPa 0,0 mm 5,5 km/h (2 Bft) O-SO 241 0 min 0 min 0,000 mm 0,0 UV-I 0 W/m 15,2 C 16,3 C 8,9 km/h (2 Bft) 100,00 %
19/07/2019 04:58 16,3 C 93 % 1015,0 hPa 0,0 mm 5,8 km/h (2 Bft) O-SO 243 0 min 0 min 0,000 mm 0,0 UV-I 0 W/m 15,2 C 16,3 C 7,1 km/h (2 Bft) 100,00 %
19/07/2019 04:57 16,3 C 93 % 1015,0 hPa 0,0 mm 5,6 km/h (2 Bft) O-SO 242 0 min 0 min 0,000 mm 0,0 UV-I 0 W/m 15,2 C 16,3 C 7,1 km/h (2 Bft) 96,15 %
19/07/2019 04:56 16,3 C 93 % 1015,0 hPa 0,0 mm 5,3 km/h (1 Bft) SO 236 0 min 0 min 0,000 mm 0,0 UV-I 0 W/m 15,2 C 16,3 C 7,1 km/h (2 Bft) 100,00 %
19/07/2019 04:55 16,3 C 93 % 1015,0 hPa 0,0 mm 5,9 km/h (2 Bft) O-SO 239 0 min 0 min 0,000 mm 0,0 UV-I 0 W/m 15,2 C 16,3 C 8,9 km/h (2 Bft) 95,83 %
19/07/2019 04:54 16,3 C 93 % 1014,9 hPa 0,0 mm 5,4 km/h (2 Bft) SO 227 0 min 0 min 0,000 mm 0,0 UV-I 0 W/m 15,2 C 16,3 C 7,1 km/h (2 Bft) 100,00 %
19/07/2019 04:53 16,3 C 93 % 1015,0 hPa 0,0 mm 4,0 km/h (1 Bft) SO 230 0 min 0 min 0,000 mm 0,0 UV-I 0 W/m 15,2 C 16,3 C 8,9 km/h (2 Bft) 96,00 %
19/07/2019 04:52 16,3 C 93 % 1014,9 hPa 0,0 mm 6,5 km/h (2 Bft) O-SO 248 0 min 0 min 0,000 mm 0,0 UV-I 0 W/m 15,2 C 16,3 C 8,9 km/h (2 Bft) 100,00 %
19/07/2019 04:51 16,3 C 93 % 1014,9 hPa 0,0 mm 3,5 km/h (1 Bft) O-SO 238 0 min 0 min 0,000 mm 0,0 UV-I 0 W/m 15,2 C 16,3 C 5,3 km/h (1 Bft) 96,00 %
19/07/2019 04:50 16,4 C 93 % 1014,9 hPa 0,0 mm 3,6 km/h (1 Bft) O-SO 238 0 min 0 min 0,000 mm 0,0 UV-I 0 W/m 15,3 C 16,4 C 5,3 km/h (1 Bft) 100,00 %
19/07/2019 04:49 16,4 C 93 % 1014,9 hPa 0,0 mm 4,2 km/h (1 Bft) O-SO 238 0 min 0 min 0,000 mm 0,0 UV-I 0 W/m 15,3 C 16,4 C 7,1 km/h (2 Bft) 88,00 %
19/07/2019 04:48 16,3 C 93 % 1014,9 hPa 0,0 mm 4,3 km/h (1 Bft) SO 232 0 min 0 min 0,000 mm 0,0 UV-I 0 W/m 15,2 C 16,3 C 7,1 km/h (2 Bft) 100,00 %
19/07/2019 04:47 16,3 C 93 % 1014,9 hPa 0,0 mm 3,7 km/h (1 Bft) SO 225 0 min 0 min 0,000 mm 0,0 UV-I 0 W/m 15,2 C 16,3 C 5,3 km/h (1 Bft) 100,00 %
19/07/2019 04:46 16,3 C 93 % 1014,9 hPa 0,0 mm 5,2 km/h (1 Bft) SO 225 0 min 0 min 0,000 mm 0,0 UV-I 0 W/m 15,2 C 16,3 C 8,9 km/h (2 Bft) 100,00 %
19/07/2019 04:45 16,3 C 93 % 1014,9 hPa 0,0 mm 6,0 km/h (2 Bft) SO 234 0 min 0 min 0,000 mm 0,0 UV-I 0 W/m 15,2 C 16,3 C 8,9 km/h (2 Bft) 100,00 %
19/07/2019 04:44 16,3 C 93 % 1014,9 hPa 0,0 mm 5,8 km/h (2 Bft) O-SO 237 0 min 0 min 0,000 mm 0,0 UV-I 0 W/m 15,2 C 16,3 C 7,1 km/h (2 Bft) 100,00 %
19/07/2019 04:43 16,3 C 93 % 1014,9 hPa 0,0 mm 4,9 km/h (1 Bft) SO 233 0 min 0 min 0,000 mm 0,0 UV-I 0 W/m 15,2 C 16,3 C 7,1 km/h (2 Bft) 100,00 %
19/07/2019 04:42 16,3 C 93 % 1014,9 hPa 0,0 mm 3,6 km/h (1 Bft) O-SO 243 0 min 0 min 0,000 mm 0,0 UV-I 0 W/m 15,2 C 16,3 C 5,3 km/h (1 Bft) 100,00 %
19/07/2019 04:41 16,3 C 93 % 1014,9 hPa 0,0 mm 2,9 km/h (1 Bft) O-SO 243 0 min 0 min 0,000 mm 0,0 UV-I 0 W/m 15,2 C 16,3 C 5,3 km/h (1 Bft) 100,00 %
19/07/2019 04:40 16,3 C 93 % 1014,9 hPa 0,0 mm 6,0 km/h (2 Bft) O-SO 243 0 min 0 min 0,000 mm 0,0 UV-I 0 W/m 15,2 C 16,3 C 8,9 km/h (2 Bft) 100,00 %
19/07/2019 04:39 16,3 C 93 % 1014,9 hPa 0,0 mm 4,9 km/h (1 Bft) O-SO 238 0 min 0 min 0,000 mm 0,0 UV-I 0 W/m 15,2 C 16,3 C 7,1 km/h (2 Bft) 100,00 %
19/07/2019 04:38 16,3 C 93 % 1014,9 hPa 0,0 mm 6,0 km/h (2 Bft) O-SO 238 0 min 0 min 0,000 mm 0,0 UV-I 0 W/m 15,2 C 16,3 C 8,9 km/h (2 Bft) 96,15 %
19/07/2019 04:37 16,3 C 93 % 1014,9 hPa 0,0 mm 4,5 km/h (1 Bft) O-SO 239 0 min 0 min 0,000 mm 0,0 UV-I 0 W/m 15,2 C 16,3 C 5,3 km/h (1 Bft) 93,33 %
19/07/2019 04:36 16,4 C 93 % 1014,9 hPa 0,0 mm 4,2 km/h (1 Bft) O-SO 244 0 min 0 min 0,000 mm 0,0 UV-I 0 W/m 15,3 C 16,4 C 7,1 km/h (2 Bft) 100,00 %
19/07/2019 04:35 16,4 C 93 % 1014,9 hPa 0,0 mm 4,0 km/h (1 Bft) O-SO 244 0 min 0 min 0,000 mm 0,0 UV-I 0 W/m 15,3 C 16,4 C 5,3 km/h (1 Bft) 100,00 %
19/07/2019 04:34 16,4 C 93 % 1014,9 hPa 0,0 mm 5,2 km/h (1 Bft) O-SO 244 0 min 0 min 0,000 mm 0,0 UV-I 0 W/m 15,3 C 16,4 C 8,9 km/h (2 Bft) 100,00 %
19/07/2019 04:33 16,4 C 93 % 1014,9 hPa 0,0 mm 3,7 km/h (1 Bft) O-SO 242 0 min 0 min 0,000 mm 0,0 UV-I 0 W/m 15,3 C 16,4 C 5,3 km/h (1 Bft) 100,00 %
19/07/2019 04:32 16,4 C 93 % 1014,8 hPa 0,0 mm 4,1 km/h (1 Bft) O-SO 242 0 min 0 min 0,000 mm 0,0 UV-I 0 W/m 15,3 C 16,4 C 5,3 km/h (1 Bft) 100,00 %
19/07/2019 04:30 16,4 C 93 % 1014,9 hPa 0,0 mm 3,4 km/h (1 Bft) O-SO 242 0 min 0 min 0,000 mm 0,0 UV-I 0 W/m 15,3 C 16,4 C 5,3 km/h (1 Bft) 100,00 %
19/07/2019 04:29 16,4 C 93 % 1014,9 hPa 0,0 mm 6,0 km/h (2 Bft) O-SO 242 0 min 0 min 0,000 mm 0,0 UV-I 0 W/m 15,3 C 16,4 C 7,1 km/h (2 Bft) 100,00 %
19/07/2019 04:28 16,4 C 93 % 1014,9 hPa 0,0 mm 3,8 km/h (1 Bft) O-SO 245 0 min 0 min 0,000 mm 0,0 UV-I 0 W/m 15,3 C 16,4 C 7,1 km/h (2 Bft) 95,65 %
19/07/2019 04:27 16,4 C 93 % 1014,9 hPa 0,0 mm 5,7 km/h (2 Bft) O-SO 242 0 min 0 min 0,000 mm 0,0 UV-I 0 W/m 15,3 C 16,4 C 8,9 km/h (2 Bft) 100,00 %
19/07/2019 04:26 16,4 C 93 % 1014,9 hPa 0,0 mm 4,3 km/h (1 Bft) SO 226 0 min 0 min 0,000 mm 0,0 UV-I 0 W/m 15,3 C 16,4 C 7,1 km/h (2 Bft) 96,15 %
19/07/2019 04:25 16,5 C 93 % 1014,9 hPa 0,0 mm 4,4 km/h (1 Bft) SO 231 0 min 0 min 0,000 mm 0,0 UV-I 0 W/m 15,4 C 16,5 C 7,1 km/h (2 Bft) 96,30 %
19/07/2019 04:24 16,5 C 93 % 1014,8 hPa 0,0 mm 4,1 km/h (1 Bft) SO 226 0 min 0 min 0,000 mm 0,0 UV-I 0 W/m 15,4 C 16,5 C 5,3 km/h (1 Bft) 95,65 %
19/07/2019 04:23 16,5 C 93 % 1014,8 hPa 0,0 mm 5,6 km/h (2 Bft) SO 227 0 min 0 min 0,000 mm 0,0 UV-I 0 W/m 15,4 C 16,5 C 7,1 km/h (2 Bft) 95,83 %
19/07/2019 04:22 16,5 C 93 % 1014,8 hPa 0,0 mm 4,6 km/h (1 Bft) SO 227 0 min 0 min 0,000 mm 0,0 UV-I 0 W/m 15,4 C 16,5 C 7,1 km/h (2 Bft) 100,00 %
19/07/2019 04:21 16,5 C 93 % 1014,8 hPa 0,0 mm 3,5 km/h (1 Bft) O-SO 242 0 min 0 min 0,000 mm 0,0 UV-I 0 W/m 15,4 C 16,5 C 5,3 km/h (1 Bft) 100,00 %
19/07/2019 04:20 16,5 C 93 % 1014,8 hPa 0,0 mm 2,7 km/h (1 Bft) O-SO 242 0 min 0 min 0,000 mm 0,0 UV-I 0 W/m 15,4 C 16,5 C 5,3 km/h (1 Bft) 100,00 %
19/07/2019 04:19 16,5 C 93 % 1014,9 hPa 0,0 mm 2,2 km/h (1 Bft) O-SO 242 0 min 0 min 0,000 mm 0,0 UV-I 0 W/m 15,4 C 16,5 C 5,3 km/h (1 Bft) 100,00 %
19/07/2019 04:18 16,5 C 93 % 1014,9 hPa 0,0 mm 5,2 km/h (1 Bft) O-SO 242 0 min 0 min 0,000 mm 0,0 UV-I 0 W/m 15,4 C 16,5 C 7,1 km/h (2 Bft) 100,00 %
19/07/2019 04:17 16,6 C 93 % 1014,9 hPa 0,0 mm 3,9 km/h (1 Bft) O-SO 242 0 min 0 min 0,000 mm 0,0 UV-I 0 W/m 15,5 C 16,6 C 5,3 km/h (1 Bft) 100,00 %
19/07/2019 04:16 16,6 C 93 % 1014,9 hPa 0,0 mm 4,3 km/h (1 Bft) O-SO 242 0 min 0 min 0,000 mm 0,0 UV-I 0 W/m 15,5 C 16,6 C 5,3 km/h (1 Bft) 100,00 %
19/07/2019 04:15 16,6 C 93 % 1014,9 hPa 0,0 mm 5,0 km/h (1 Bft) O-SO 242 0 min 0 min 0,000 mm 0,0 UV-I 0 W/m 15,5 C 16,6 C 7,1 km/h (2 Bft) 100,00 %
19/07/2019 04:14 16,6 C 93 % 1014,9 hPa 0,0 mm 6,5 km/h (2 Bft) O-SO 243 0 min 0 min 0,000 mm 0,0 UV-I 0 W/m 15,5 C 16,6 C 7,1 km/h (2 Bft) 100,00 %
19/07/2019 04:13 16,6 C 93 % 1014,9 hPa 0,0 mm 5,3 km/h (1 Bft) O-SO 250 0 min 0 min 0,000 mm 0,0 UV-I 0 W/m 15,5 C 16,6 C 7,1 km/h (2 Bft) 100,00 %
19/07/2019 04:12 16,6 C 93 % 1014,9 hPa 0,0 mm 6,7 km/h (2 Bft) SO 234 0 min 0 min 0,000 mm 0,0 UV-I 0 W/m 15,5 C 16,5 C 8,9 km/h (2 Bft) 100,00 %
19/07/2019 04:11 16,7 C 93 % 1014,9 hPa 0,0 mm 4,2 km/h (1 Bft) O-SO 245 0 min 0 min 0,000 mm 0,0 UV-I 0 W/m 15,6 C 16,7 C 7,1 km/h (2 Bft) 100,00 %
19/07/2019 04:10 16,7 C 93 % 1014,9 hPa 0,0 mm 1,7 km/h (1 Bft) SO 236 0 min 0 min 0,000 mm 0,0 UV-I 0 W/m 15,6 C 16,7 C 3,5 km/h (1 Bft) 100,00 %
19/07/2019 04:09 16,7 C 93 % 1014,9 hPa 0,0 mm 4,4 km/h (1 Bft) SO 236 0 min 0 min 0,000 mm 0,0 UV-I 0 W/m 15,6 C 16,7 C 7,1 km/h (2 Bft) 100,00 %
19/07/2019 04:08 16,7 C 93 % 1015,0 hPa 0,0 mm 5,9 km/h (2 Bft) SO 236 0 min 0 min 0,000 mm 0,0 UV-I 0 W/m 15,6 C 16,7 C 8,9 km/h (2 Bft) 100,00 %
19/07/2019 04:07 16,7 C 93 % 1015,0 hPa 0,0 mm 5,8 km/h (2 Bft) O-SO 248 0 min 0 min 0,000 mm 0,0 UV-I 0 W/m 15,6 C 16,7 C 7,1 km/h (2 Bft) 100,00 %
19/07/2019 04:06 16,7 C 93 % 1015,0 hPa 0,0 mm 3,6 km/h (1 Bft) O-SO 254 0 min 0 min 0,000 mm 0,0 UV-I 0 W/m 15,6 C 16,7 C 7,1 km/h (2 Bft) 100,00 %
19/07/2019 04:05 16,7 C 93 % 1015,0 hPa 0,0 mm 4,8 km/h (1 Bft) O-SO 257 0 min 0 min 0,000 mm 0,0 UV-I 0 W/m 15,6 C 16,7 C 7,1 km/h (2 Bft) 100,00 %
19/07/2019 04:04 16,7 C 93 % 1015,0 hPa 0,0 mm 5,9 km/h (2 Bft) O-SO 253 0 min 0 min 0,000 mm 0,0 UV-I 0 W/m 15,6 C 16,7 C 8,9 km/h (2 Bft) 100,00 %
19/07/2019 04:03 16,7 C 93 % 1015,0 hPa 0,0 mm 6,1 km/h (2 Bft) SO 234 0 min 0 min 0,000 mm 0,0 UV-I 0 W/m 15,6 C 16,7 C 7,1 km/h (2 Bft) 100,00 %
19/07/2019 04:02 16,7 C 93 % 1015,0 hPa 0,0 mm 6,0 km/h (2 Bft) SO 224 0 min 0 min 0,000 mm 0,0 UV-I 0 W/m 15,6 C 16,7 C 7,1 km/h (2 Bft) 96,30 %
19/07/2019 04:01 16,7 C 93 % 1014,9 hPa 0,0 mm 5,5 km/h (2 Bft) O-SO 251 0 min 0 min 0,000 mm 0,0 UV-I 0 W/m 15,6 C 16,7 C 8,9 km/h (2 Bft) 97,87 %
19/07/2019 03:59 16,7 C 93 % 1014,8 hPa 0,0 mm 5,2 km/h (1 Bft) O-SO 244 0 min 0 min 0,000 mm 0,0 UV-I 0 W/m 15,6 C 16,7 C 7,1 km/h (2 Bft) 100,00 %
19/07/2019 03:58 16,7 C 93 % 1014,9 hPa 0,0 mm 4,4 km/h (1 Bft) SO 232 0 min 0 min 0,000 mm 0,0 UV-I 0 W/m 15,6 C 16,7 C 7,1 km/h (2 Bft) 96,30 %
19/07/2019 03:57 16,7 C 93 % 1014,9 hPa 0,0 mm 5,5 km/h (2 Bft) SO 227 0 min 0 min 0,000 mm 0,0 UV-I 0 W/m 15,6 C 16,7 C 8,9 km/h (2 Bft) 100,00 %
19/07/2019 03:56 16,7 C 93 % 1014,9 hPa 0,0 mm 5,3 km/h (1 Bft) O-SO 242 0 min 0 min 0,000 mm 0,0 UV-I 0 W/m 15,6 C 16,7 C 8,9 km/h (2 Bft) 98,21 %
19/07/2019 03:54 16,6 C 93 % 1014,9 hPa 0,0 mm 4,7 km/h (1 Bft) SO 234 0 min 0 min 0,000 mm 0,0 UV-I 0 W/m 15,5 C 16,6 C 8,9 km/h (2 Bft) 93,33 %
19/07/2019 03:53 16,7 C 93 % 1014,9 hPa 0,0 mm 5,3 km/h (1 Bft) SO 232 0 min 0 min 0,000 mm 0,0 UV-I 0 W/m 15,6 C 16,7 C 8,9 km/h (2 Bft) 100,00 %
19/07/2019 03:52 16,7 C 93 % 1014,9 hPa 0,0 mm 4,6 km/h (1 Bft) O-SO 244 0 min 0 min 0,000 mm 0,0 UV-I 0 W/m 15,6 C 16,7 C 5,3 km/h (1 Bft) 94,44 %
19/07/2019 03:51 16,7 C 93 % 1014,9 hPa 0,0 mm 4,9 km/h (1 Bft) O-SO 242 0 min 0 min 0,000 mm 0,0 UV-I 0 W/m 15,6 C 16,7 C 7,1 km/h (2 Bft) 100,00 %
19/07/2019 03:50 16,7 C 93 % 1014,9 hPa 0,0 mm 6,7 km/h (2 Bft) O-SO 243 0 min 0 min 0,000 mm 0,0 UV-I 0 W/m 15,6 C 16,6 C 8,9 km/h (2 Bft) 100,00 %
19/07/2019 03:49 16,7 C 93 % 1014,9 hPa 0,0 mm 5,2 km/h (1 Bft) O-SO 248 0 min 0 min 0,000 mm 0,0 UV-I 0 W/m 15,6 C 16,7 C 8,9 km/h (2 Bft) 97,56 %
19/07/2019 03:48 16,7 C 93 % 1014,9 hPa 0,0 mm 4,2 km/h (1 Bft) O-SO 246 0 min 0 min 0,000 mm 0,0 UV-I 0 W/m 15,6 C 16,7 C 5,3 km/h (1 Bft) 97,70 %
19/07/2019 03:47 16,7 C 93 % 1014,9 hPa 0,0 mm 7,3 km/h (2 Bft) O-SO 256 0 min 0 min 0,000 mm 0,0 UV-I 0 W/m 15,6 C 16,2 C 10,6 km/h (2 Bft) 100,00 %
19/07/2019 03:46 16,7 C 93 % 1014,9 hPa 0,0 mm 4,0 km/h (1 Bft) O-SO 243 0 min 0 min 0,000 mm 0,0 UV-I 0 W/m 15,6 C 16,7 C 5,3 km/h (1 Bft) 100,00 %
19/07/2019 03:45 16,7 C 93 % 1014,9 hPa 0,0 mm 5,5 km/h (2 Bft) O-SO 243 0 min 0 min 0,000 mm 0,0 UV-I 0 W/m 15,6 C 16,7 C 7,1 km/h (2 Bft) 97,56 %
19/07/2019 03:44 16,7 C 93 % 1014,9 hPa 0,0 mm 6,1 km/h (2 Bft) O-SO 248 0 min 0 min 0,000 mm 0,0 UV-I 0 W/m 15,6 C 16,7 C 7,1 km/h (2 Bft) 97,68 %
19/07/2019 03:43 16,7 C 93 % 1014,9 hPa 0,0 mm 6,6 km/h (2 Bft) O-SO 254 0 min 0 min 0,000 mm 0,0 UV-I 0 W/m 15,6 C 16,6 C 8,9 km/h (2 Bft) 100,00 %
19/07/2019 03:42 16,7 C 93 % 1015,0 hPa 0,0 mm 5,9 km/h (2 Bft) O-SO 250 0 min 0 min 0,000 mm 0,0 UV-I 0 W/m 15,6 C 16,7 C 7,1 km/h (2 Bft) 100,00 %
19/07/2019 03:41 16,8 C 93 % 1014,9 hPa 0,0 mm 5,7 km/h (2 Bft) O-SO 250 0 min 0 min 0,000 mm 0,0 UV-I 0 W/m 15,7 C 16,8 C 7,1 km/h (2 Bft) 100,00 %
19/07/2019 03:40 16,8 C 93 % 1014,9 hPa 0,0 mm 4,9 km/h (1 Bft) O-SO 246 0 min 0 min 0,000 mm 0,0 UV-I 0 W/m 15,7 C 16,8 C 7,1 km/h (2 Bft) 95,83 %
19/07/2019 03:39 16,8 C 93 % 1014,9 hPa 0,0 mm 4,7 km/h (1 Bft) O-SO 241 0 min 0 min 0,000 mm 0,0 UV-I 0 W/m 15,7 C 16,8 C 5,3 km/h (1 Bft) 96,55 %
19/07/2019 03:38 16,8 C 93 % 1014,9 hPa 0,0 mm 5,2 km/h (1 Bft) O-SO 241 0 min 0 min 0,000 mm 0,0 UV-I 0 W/m 15,7 C 16,8 C 7,1 km/h (2 Bft) 96,30 %
19/07/2019 03:37 16,8 C 93 % 1014,9 hPa 0,0 mm 5,4 km/h (2 Bft) O-SO 246 0 min 0 min 0,000 mm 0,0 UV-I 0 W/m 15,7 C 16,8 C 8,9 km/h (2 Bft) 100,00 %
19/07/2019 03:36 16,8 C 93 % 1014,9 hPa 0,0 mm 3,8 km/h (1 Bft) O-SO 244 0 min 0 min 0,000 mm 0,0 UV-I 0 W/m 15,7 C 16,8 C 5,3 km/h (1 Bft) 85,71 %
19/07/2019 03:35 16,8 C 93 % 1014,9 hPa 0,0 mm 4,0 km/h (1 Bft) O-SO 245 0 min 0 min 0,000 mm 0,0 UV-I 0 W/m 15,7 C 16,8 C 5,3 km/h (1 Bft) 100,00 %
19/07/2019 03:34 16,8 C 93 % 1015,0 hPa 0,0 mm 4,2 km/h (1 Bft) O-SO 251 0 min 0 min 0,000 mm 0,0 UV-I 0 W/m 15,7 C 16,8 C 5,3 km/h (1 Bft) 100,00 %
19/07/2019 03:33 16,9 C 93 % 1015,0 hPa 0,0 mm 5,4 km/h (2 Bft) SO 234 0 min 0 min 0,000 mm 0,0 UV-I 0 W/m 15,8 C 16,9 C 8,9 km/h (2 Bft) 100,00 %
19/07/2019 03:32 16,9 C 93 % 1015,0 hPa 0,0 mm 5,3 km/h (1 Bft) O-SO 252 0 min 0 min 0,000 mm 0,0 UV-I 0 W/m 15,8 C 16,9 C 8,9 km/h (2 Bft) 100,00 %
19/07/2019 03:31 16,9 C 93 % 1015,0 hPa 0,0 mm 4,9 km/h (1 Bft) O-SO 242 0 min 0 min 0,000 mm 0,0 UV-I 0 W/m 15,8 C 16,9 C 5,3 km/h (1 Bft) 92,59 %
19/07/2019 03:30 16,9 C 93 % 1015,0 hPa 0,0 mm 4,5 km/h (1 Bft) O-SO 248 0 min 0 min 0,000 mm 0,0 UV-I 0 W/m 15,8 C 16,9 C 8,9 km/h (2 Bft) 95,83 %
19/07/2019 03:29 16,9 C 93 % 1015,0 hPa 0,0 mm 4,8 km/h (1 Bft) O-SO 240 0 min 0 min 0,000 mm 0,0 UV-I 0 W/m 15,8 C 16,9 C 5,3 km/h (1 Bft) 95,65 %
19/07/2019 03:28 16,9 C 93 % 1015,0 hPa 0,0 mm 4,8 km/h (1 Bft) S-SO 211 0 min 0 min 0,000 mm 0,0 UV-I 0 W/m 15,8 C 16,9 C 10,6 km/h (2 Bft) 91,67 %
19/07/2019 03:27 16,9 C 93 % 1015,0 hPa 0,0 mm 4,8 km/h (1 Bft) SO 230 0 min 0 min 0,000 mm 0,0 UV-I 0 W/m 15,8 C 16,9 C 7,1 km/h (2 Bft) 100,00 %
19/07/2019 03:26 16,9 C 93 % 1015,0 hPa 0,0 mm 5,7 km/h (2 Bft) O-SO 248 0 min 0 min 0,000 mm 0,0 UV-I 0 W/m 15,8 C 16,9 C 8,9 km/h (2 Bft) 91,67 %
19/07/2019 03:25 16,9 C 93 % 1014,9 hPa 0,0 mm 6,5 km/h (2 Bft) O-SO 238 0 min 0 min 0,000 mm 0,0 UV-I 0 W/m 15,8 C 16,9 C 8,9 km/h (2 Bft) 100,00 %
19/07/2019 03:24 16,9 C 93 % 1014,9 hPa 0,0 mm 6,6 km/h (2 Bft) O-SO 253 0 min 0 min 0,000 mm 0,0 UV-I 0 W/m 15,8 C 16,8 C 8,9 km/h (2 Bft) 92,31 %
19/07/2019 03:23 16,9 C 93 % 1015,0 hPa 0,0 mm 6,6 km/h (2 Bft) SO 235 0 min 0 min 0,000 mm 0,0 UV-I 0 W/m 15,8 C 16,8 C 10,6 km/h (2 Bft) 96,30 %
19/07/2019 03:22 16,9 C 93 % 1014,9 hPa 0,0 mm 6,7 km/h (2 Bft) SO 228 0 min 0 min 0,000 mm 0,0 UV-I 0 W/m 15,8 C 16,8 C 10,6 km/h (2 Bft) 100,00 %
19/07/2019 03:21 16,9 C 93 % 1014,8 hPa 0,0 mm 5,7 km/h (2 Bft) O-SO 239 0 min 0 min 0,000 mm 0,0 UV-I 0 W/m 15,8 C 16,9 C 10,6 km/h (2 Bft) 97,96 %
19/07/2019 03:19 16,9 C 93 % 1014,9 hPa 0,0 mm 3,4 km/h (1 Bft) S-SO 211 0 min 0 min 0,000 mm 0,0 UV-I 0 W/m 15,8 C 16,9 C 7,1 km/h (2 Bft) 95,83 %
19/07/2019 03:18 16,9 C 93 % 1014,9 hPa 0,0 mm 3,7 km/h (1 Bft) O-SO 251 0 min 0 min 0,000 mm 0,0 UV-I 0 W/m 15,8 C 16,9 C 5,3 km/h (1 Bft) 96,30 %
19/07/2019 03:17 16,9 C 93 % 1014,8 hPa 0,0 mm 5,9 km/h (2 Bft) O-SO 251 0 min 0 min 0,000 mm 0,0 UV-I 0 W/m 15,8 C 16,9 C 7,1 km/h (2 Bft) 96,15 %
19/07/2019 03:16 16,9 C 93 % 1014,9 hPa 0,0 mm 4,4 km/h (1 Bft) O-SO 252 0 min 0 min 0,000 mm 0,0 UV-I 0 W/m 15,8 C 16,9 C 8,9 km/h (2 Bft) 96,00 %
19/07/2019 03:15 16,9 C 93 % 1014,9 hPa 0,0 mm 6,9 km/h (2 Bft) SO 236 0 min 0 min 0,000 mm 0,0 UV-I 0 W/m 15,8 C 16,7 C 10,6 km/h (2 Bft) 100,00 %
19/07/2019 03:14 16,9 C 93 % 1014,9 hPa 0,0 mm 3,8 km/h (1 Bft) SO 236 0 min 0 min 0,000 mm 0,0 UV-I 0 W/m 15,8 C 16,9 C 5,3 km/h (1 Bft) 100,00 %
19/07/2019 03:13 16,8 C 93 % 1014,9 hPa 0,0 mm 5,4 km/h (2 Bft) SO 236 0 min 0 min 0,000 mm 0,0 UV-I 0 W/m 15,7 C 16,8 C 7,1 km/h (2 Bft) 96,88 %
19/07/2019 03:12 16,8 C 93 % 1014,9 hPa 0,0 mm 5,5 km/h (2 Bft) O-SO 241 0 min 0 min 0,000 mm 0,0 UV-I 0 W/m 15,7 C 16,8 C 7,1 km/h (2 Bft) 91,30 %
19/07/2019 03:11 16,8 C 93 % 1014,9 hPa 0,0 mm 6,9 km/h (2 Bft) SO 229 0 min 0 min 0,000 mm 0,0 UV-I 0 W/m 15,7 C 16,5 C 10,6 km/h (2 Bft) 100,00 %
19/07/2019 03:10 16,8 C 93 % 1014,8 hPa 0,0 mm 4,5 km/h (1 Bft) O-SO 240 0 min 0 min 0,000 mm 0,0 UV-I 0 W/m 15,7 C 16,8 C 5,3 km/h (1 Bft) 96,15 %
19/07/2019 03:09 16,8 C 93 % 1014,9 hPa 0,0 mm 2,9 km/h (1 Bft) SO 225 0 min 0 min 0,000 mm 0,0 UV-I 0 W/m 15,7 C 16,8 C 5,3 km/h (1 Bft) 100,00 %
19/07/2019 03:08 16,8 C 93 % 1014,8 hPa 0,0 mm 7,2 km/h (2 Bft) SO 225 0 min 0 min 0,000 mm 0,0 UV-I 0 W/m 15,7 C 16,4 C 10,6 km/h (2 Bft) 96,43 %
19/07/2019 03:07 16,8 C 93 % 1014,9 hPa 0,0 mm 7,0 km/h (2 Bft) SO 230 0 min 0 min 0,000 mm 0,0 UV-I 0 W/m 15,7 C 16,5 C 8,9 km/h (2 Bft) 100,00 %
19/07/2019 03:06 16,8 C 93 % 1014,8 hPa 0,0 mm 6,2 km/h (2 Bft) SO 236 0 min 0 min 0,000 mm 0,0 UV-I 0 W/m 15,7 C 16,8 C 8,9 km/h (2 Bft) 95,83 %
19/07/2019 03:05 16,8 C 93 % 1014,9 hPa 0,0 mm 4,4 km/h (1 Bft) SO 234 0 min 0 min 0,000 mm 0,0 UV-I 0 W/m 15,7 C 16,8 C 5,3 km/h (1 Bft) 95,83 %
19/07/2019 03:04 16,8 C 93 % 1014,9 hPa 0,0 mm 4,2 km/h (1 Bft) SO 236 0 min 0 min 0,000 mm 0,0 UV-I 0 W/m 15,7 C 16,8 C 7,1 km/h (2 Bft) 100,00 %
19/07/2019 03:03 16,8 C 93 % 1014,8 hPa 0,0 mm 5,4 km/h (2 Bft) SO 236 0 min 0 min 0,000 mm 0,0 UV-I 0 W/m 15,7 C 16,8 C 7,1 km/h (2 Bft) 95,65 %
19/07/2019 03:02 16,8 C 93 % 1014,8 hPa 0,0 mm 4,9 km/h (1 Bft) SO 227 0 min 0 min 0,000 mm 0,0 UV-I 0 W/m 15,7 C 16,8 C 7,1 km/h (2 Bft) 100,00 %
19/07/2019 03:01 16,8 C 93 % 1014,8 hPa 0,0 mm 5,3 km/h (1 Bft) SO 234 0 min 0 min 0,000 mm 0,0 UV-I 0 W/m 15,7 C 16,8 C 7,1 km/h (2 Bft) 85,71 %
19/07/2019 03:00 16,9 C 93 % 1014,9 hPa 0,0 mm 5,2 km/h (1 Bft) O-SO 245 0 min 0 min 0,000 mm 0,0 UV-I 0 W/m 15,8 C 16,9 C 7,1 km/h (2 Bft) 100,00 %
19/07/2019 02:59 16,8 C 93 % 1014,9 hPa 0,0 mm 6,4 km/h (2 Bft) O-SO 244 0 min 0 min 0,000 mm 0,0 UV-I 0 W/m 15,7 C 16,8 C 8,9 km/h (2 Bft) 92,59 %
19/07/2019 02:58 16,9 C 93 % 1014,9 hPa 0,0 mm 6,2 km/h (2 Bft) SO 234 0 min 0 min 0,000 mm 0,0 UV-I 0 W/m 15,8 C 16,9 C 8,9 km/h (2 Bft) 92,86 %
19/07/2019 02:57 16,9 C 93 % 1014,8 hPa 0,0 mm 4,6 km/h (1 Bft) O-SO 240 0 min 0 min 0,000 mm 0,0 UV-I 0 W/m 15,8 C 16,9 C 7,1 km/h (2 Bft) 100,00 %
19/07/2019 02:56 16,9 C 93 % 1014,8 hPa 0,0 mm 5,8 km/h (2 Bft) O-SO 238 0 min 0 min 0,000 mm 0,0 UV-I 0 W/m 15,8 C 16,9 C 8,9 km/h (2 Bft) 97,14 %
19/07/2019 02:55 16,9 C 93 % 1014,8 hPa 0,0 mm 3,8 km/h (1 Bft) O-SO 247 0 min 0 min 0,000 mm 0,0 UV-I 0 W/m 15,8 C 16,9 C 5,3 km/h (1 Bft) 100,00 %
19/07/2019 02:54 16,9 C 93 % 1014,8 hPa 0,0 mm 5,2 km/h (1 Bft) O-SO 247 0 min 0 min 0,000 mm 0,0 UV-I 0 W/m 15,8 C 16,9 C 7,1 km/h (2 Bft) 91,67 %
19/07/2019 02:53 17,0 C 93 % 1014,8 hPa 0,0 mm 6,0 km/h (2 Bft) SO 234 0 min 0 min 0,000 mm 0,0 UV-I 0 W/m 15,9 C 17,0 C 8,9 km/h (2 Bft) 100,00 %
19/07/2019 02:52 17,0 C 93 % 1014,8 hPa 0,0 mm 5,8 km/h (2 Bft) O-SO 241 0 min 0 min 0,000 mm 0,0 UV-I 0 W/m 15,9 C 17,0 C 10,6 km/h (2 Bft) 92,31 %
19/07/2019 02:51 17,0 C 93 % 1014,9 hPa 0,0 mm 6,1 km/h (2 Bft) SO 227 0 min 0 min 0,000 mm 0,0 UV-I 0 W/m 15,9 C 17,0 C 10,6 km/h (2 Bft) 100,00 %
19/07/2019 02:50 17,0 C 93 % 1014,8 hPa 0,0 mm 4,1 km/h (1 Bft) O-SO 246 0 min 0 min 0,000 mm 0,0 UV-I 0 W/m 15,9 C 17,0 C 7,1 km/h (2 Bft) 96,00 %
19/07/2019 02:49 17,0 C 93 % 1014,8 hPa 0,0 mm 3,8 km/h (1 Bft) SO 232 0 min 0 min 0,000 mm 0,0 UV-I 0 W/m 15,9 C 17,0 C 5,3 km/h (1 Bft) 100,00 %
19/07/2019 02:48 17,0 C 93 % 1014,8 hPa 0,0 mm 5,9 km/h (2 Bft) SO 234 0 min 0 min 0,000 mm 0,0 UV-I 0 W/m 15,9 C 17,0 C 7,1 km/h (2 Bft) 100,00 %
19/07/2019 02:47 17,0 C 93 % 1014,8 hPa 0,0 mm 5,9 km/h (2 Bft) SO 232 0 min 0 min 0,000 mm 0,0 UV-I 0 W/m 15,9 C 17,0 C 10,6 km/h (2 Bft) 100,00 %
19/07/2019 02:46 17,0 C 93 % 1014,8 hPa 0,0 mm 4,8 km/h (1 Bft) SO 233 0 min 0 min 0,000 mm 0,0 UV-I 0 W/m 15,9 C 17,0 C 7,1 km/h (2 Bft) 100,00 %
19/07/2019 02:45 17,1 C 93 % 1014,7 hPa 0,0 mm 5,5 km/h (2 Bft) O-SO 238 0 min 0 min 0,000 mm 0,0 UV-I 0 W/m 16,0 C 17,1 C 10,6 km/h (2 Bft) 100,00 %
19/07/2019 02:44 17,1 C 93 % 1014,8 hPa 0,0 mm 4,3 km/h (1 Bft) S-SO 211 0 min 0 min 0,000 mm 0,0 UV-I 0 W/m 16,0 C 17,1 C 7,1 km/h (2 Bft) 95,83 %
19/07/2019 02:43 17,1 C 92 % 1014,8 hPa 0,0 mm 5,4 km/h (2 Bft) O-SO 244 0 min 0 min 0,000 mm 0,0 UV-I 0 W/m 15,8 C 17,1 C 8,9 km/h (2 Bft) 100,00 %
19/07/2019 02:42 17,1 C 92 % 1014,8 hPa 0,0 mm 6,7 km/h (2 Bft) O-SO 240 0 min 0 min 0,000 mm 0,0 UV-I 0 W/m 15,8 C 17,0 C 8,9 km/h (2 Bft) 100,00 %
19/07/2019 02:41 17,1 C 92 % 1014,8 hPa 0,0 mm 7,1 km/h (2 Bft) S 189 0 min 0 min 0,000 mm 0,0 UV-I 0 W/m 15,8 C 16,7 C 8,9 km/h (2 Bft) 100,00 %
19/07/2019 02:40 17,1 C 93 % 1014,9 hPa 0,0 mm 3,4 km/h (1 Bft) SO 224 0 min 0 min 0,000 mm 0,0 UV-I 0 W/m 16,0 C 17,1 C 5,3 km/h (1 Bft) 100,00 %
19/07/2019 02:39 17,2 C 93 % 1014,8 hPa 0,0 mm 3,6 km/h (1 Bft) SO 224 0 min 0 min 0,000 mm 0,0 UV-I 0 W/m 16,1 C 17,2 C 5,3 km/h (1 Bft) 100,00 %
19/07/2019 02:38 17,2 C 93 % 1014,8 hPa 0,0 mm 5,1 km/h (1 Bft) SO 224 0 min 0 min 0,000 mm 0,0 UV-I 0 W/m 16,1 C 17,2 C 10,6 km/h (2 Bft) 100,00 %
19/07/2019 02:37 17,2 C 93 % 1014,7 hPa 0,0 mm 3,7 km/h (1 Bft) O-SO 245 0 min 0 min 0,000 mm 0,0 UV-I 0 W/m 16,1 C 17,2 C 5,3 km/h (1 Bft) 100,00 %
19/07/2019 02:36 17,2 C 93 % 1014,7 hPa 0,0 mm 5,8 km/h (2 Bft) O-SO 245 0 min 0 min 0,000 mm 0,0 UV-I 0 W/m 16,1 C 17,2 C 12,4 km/h (2 Bft) 100,00 %
19/07/2019 02:35 17,2 C 93 % 1014,7 hPa 0,0 mm 6,8 km/h (2 Bft) SO 235 0 min 0 min 0,000 mm 0,0 UV-I 0 W/m 16,1 C 17,0 C 8,9 km/h (2 Bft) 100,00 %
19/07/2019 02:34 17,2 C 93 % 1014,7 hPa 0,0 mm 5,1 km/h (1 Bft) SO 217 0 min 0 min 0,000 mm 0,0 UV-I 0 W/m 16,1 C 17,2 C 7,1 km/h (2 Bft) 95,83 %
19/07/2019 02:33 17,2 C 93 % 1014,7 hPa 0,0 mm 6,3 km/h (2 Bft) S-SO 202 0 min 0 min 0,000 mm 0,0 UV-I 0 W/m 16,1 C 17,2 C 8,9 km/h (2 Bft) 96,30 %
19/07/2019 02:32 17,2 C 93 % 1014,8 hPa 0,0 mm 4,5 km/h (1 Bft) SO 230 0 min 0 min 0,000 mm 0,0 UV-I 0 W/m 16,1 C 17,2 C 8,9 km/h (2 Bft) 100,00 %
19/07/2019 02:31 17,2 C 93 % 1014,8 hPa 0,0 mm 4,5 km/h (1 Bft) O-SO 242 0 min 0 min 0,000 mm 0,0 UV-I 0 W/m 16,1 C 17,2 C 7,1 km/h (2 Bft) 96,00 %
19/07/2019 02:30 17,3 C 93 % 1014,7 hPa 0,0 mm 4,9 km/h (1 Bft) O-SO 242 0 min 0 min 0,000 mm 0,0 UV-I 0 W/m 16,2 C 17,3 C 7,1 km/h (2 Bft) 100,00 %
19/07/2019 02:29 17,3 C 93 % 1014,8 hPa 0,0 mm 5,4 km/h (2 Bft) O-SO 246 0 min 0 min 0,000 mm 0,0 UV-I 0 W/m 16,2 C 17,3 C 10,6 km/h (2 Bft) 96,00 %
19/07/2019 02:28 17,3 C 93 % 1014,8 hPa 0,0 mm 4,0 km/h (1 Bft) O-SO 248 0 min 0 min 0,000 mm 0,0 UV-I 0 W/m 16,2 C 17,3 C 5,3 km/h (1 Bft) 100,00 %
19/07/2019 02:27 17,3 C 93 % 1014,8 hPa 0,0 mm 5,1 km/h (1 Bft) O-SO 248 0 min 0 min 0,000 mm 0,0 UV-I 0 W/m 16,2 C 17,3 C 8,9 km/h (2 Bft) 100,00 %
19/07/2019 02:26 17,3 C 93 % 1014,8 hPa 0,0 mm 5,5 km/h (2 Bft) O-SO 244 0 min 0 min 0,000 mm 0,0 UV-I 0 W/m 16,2 C 17,3 C 8,9 km/h (2 Bft) 100,00 %
19/07/2019 02:25 17,3 C 93 % 1014,7 hPa 0,0 mm 8,0 km/h (2 Bft) SO 220 0 min 0 min 0,000 mm 0,0 UV-I 0 W/m 16,2 C 16,5 C 12,4 km/h (2 Bft) 95,83 %
19/07/2019 02:24 17,3 C 93 % 1014,8 hPa 0,0 mm 8,0 km/h (2 Bft) SO 228 0 min 0 min 0,000 mm 0,0 UV-I 0 W/m 16,2 C 16,5 C 12,4 km/h (2 Bft) 100,00 %
19/07/2019 02:23 17,3 C 93 % 1014,8 hPa 0,0 mm 7,2 km/h (2 Bft) O-SO 242 0 min 0 min 0,000 mm 0,0 UV-I 0 W/m 16,2 C 16,9 C 14,2 km/h (3 Bft) 100,00 %
19/07/2019 02:22 17,3 C 93 % 1014,7 hPa 0,0 mm 4,5 km/h (1 Bft) SO 219 0 min 0 min 0,000 mm 0,0 UV-I 0 W/m 16,2 C 17,3 C 7,1 km/h (2 Bft) 95,83 %
19/07/2019 02:21 17,3 C 93 % 1014,7 hPa 0,0 mm 7,3 km/h (2 Bft) O-SO 237 0 min 0 min 0,000 mm 0,0 UV-I 0 W/m 16,2 C 16,9 C 12,4 km/h (2 Bft) 100,00 %
19/07/2019 02:20 17,3 C 93 % 1014,8 hPa 0,0 mm 6,4 km/h (2 Bft) O-SO 238 0 min 0 min 0,000 mm 0,0 UV-I 0 W/m 16,2 C 17,3 C 8,9 km/h (2 Bft) 100,00 %
19/07/2019 02:19 17,3 C 93 % 1014,8 hPa 0,0 mm 6,1 km/h (2 Bft) O-SO 243 0 min 0 min 0,000 mm 0,0 UV-I 0 W/m 16,2 C 17,3 C 8,9 km/h (2 Bft) 92,86 %
19/07/2019 02:18 17,3 C 93 % 1014,8 hPa 0,0 mm 7,0 km/h (2 Bft) O-SO 248 0 min 0 min 0,000 mm 0,0 UV-I 0 W/m 16,2 C 17,0 C 8,9 km/h (2 Bft) 100,00 %
19/07/2019 02:17 17,3 C 93 % 1014,8 hPa 0,0 mm 5,5 km/h (2 Bft) SO 229 0 min 0 min 0,000 mm 0,0 UV-I 0 W/m 16,2 C 17,3 C 8,9 km/h (2 Bft) 92,86 %
19/07/2019 02:16 17,3 C 93 % 1014,8 hPa 0,0 mm 7,1 km/h (2 Bft) O-SO 241 0 min 0 min 0,000 mm 0,0 UV-I 0 W/m 16,2 C 17,0 C 12,4 km/h (2 Bft) 100,00 %
19/07/2019 02:15 17,3 C 93 % 1014,8 hPa 0,0 mm 4,4 km/h (1 Bft) O 261 0 min 0 min 0,000 mm 0,0 UV-I 0 W/m 16,2 C 17,3 C 7,1 km/h (2 Bft) 100,00 %
19/07/2019 02:14 17,3 C 93 % 1014,7 hPa 0,0 mm 7,0 km/h (2 Bft) SO 221 0 min 0 min 0,000 mm 0,0 UV-I 0 W/m 16,2 C 17,0 C 10,6 km/h (2 Bft) 96,43 %
19/07/2019 02:13 17,3 C 93 % 1014,7 hPa 0,0 mm 4,8 km/h (1 Bft) O-SO 241 0 min 0 min 0,000 mm 0,0 UV-I 0 W/m 16,2 C 17,3 C 5,3 km/h (1 Bft) 100,00 %
19/07/2019 02:12 17,3 C 93 % 1014,8 hPa 0,0 mm 3,2 km/h (1 Bft) O-SO 241 0 min 0 min 0,000 mm 0,0 UV-I 0 W/m 16,2 C 17,3 C 7,1 km/h (2 Bft) 100,00 %
19/07/2019 02:11 17,3 C 93 % 1014,8 hPa 0,0 mm 5,8 km/h (2 Bft) O-SO 246 0 min 0 min 0,000 mm 0,0 UV-I 0 W/m 16,2 C 17,3 C 10,6 km/h (2 Bft) 100,00 %
19/07/2019 02:10 17,3 C 93 % 1014,8 hPa 0,0 mm 4,5 km/h (1 Bft) SO 236 0 min 0 min 0,000 mm 0,0 UV-I 0 W/m 16,2 C 17,3 C 7,1 km/h (2 Bft) 96,00 %
19/07/2019 02:09 17,3 C 93 % 1014,8 hPa 0,0 mm 6,3 km/h (2 Bft) SO 235 0 min 0 min 0,000 mm 0,0 UV-I 0 W/m 16,2 C 17,3 C 8,9 km/h (2 Bft) 100,00 %
19/07/2019 02:08 17,3 C 92 % 1014,8 hPa 0,0 mm 4,4 km/h (1 Bft) O-SO 244 0 min 0 min 0,000 mm 0,0 UV-I 0 W/m 16,0 C 17,3 C 7,1 km/h (2 Bft) 95,83 %
19/07/2019 02:07 17,3 C 92 % 1014,8 hPa 0,0 mm 6,2 km/h (2 Bft) SO 230 0 min 0 min 0,000 mm 0,0 UV-I 0 W/m 16,0 C 17,3 C 8,9 km/h (2 Bft) 100,00 %
19/07/2019 02:06 17,3 C 92 % 1014,8 hPa 0,0 mm 6,2 km/h (2 Bft) O-SO 237 0 min 0 min 0,000 mm 0,0 UV-I 0 W/m 16,0 C 17,3 C 10,6 km/h (2 Bft) 95,83 %
19/07/2019 02:05 17,3 C 92 % 1014,8 hPa 0,0 mm 4,4 km/h (1 Bft) O-SO 246 0 min 0 min 0,000 mm 0,0 UV-I 0 W/m 16,0 C 17,3 C 8,9 km/h (2 Bft) 95,83 %
19/07/2019 02:04 17,3 C 92 % 1014,8 hPa 0,0 mm 3,6 km/h (1 Bft) SO 233 0 min 0 min 0,000 mm 0,0 UV-I 0 W/m 16,0 C 17,3 C 7,1 km/h (2 Bft) 96,15 %
19/07/2019 02:03 17,3 C 92 % 1014,7 hPa 0,0 mm 4,5 km/h (1 Bft) O-SO 242 0 min 0 min 0,000 mm 0,0 UV-I 0 W/m 16,0 C 17,3 C 8,9 km/h (2 Bft) 100,00 %
19/07/2019 02:02 17,4 C 92 % 1014,8 hPa 0,0 mm 4,4 km/h (1 Bft) SO 229 0 min 0 min 0,000 mm 0,0 UV-I 0 W/m 16,1 C 17,4 C 7,1 km/h (2 Bft) 91,67 %
19/07/2019 02:01 17,4 C 92 % 1014,7 hPa 0,0 mm 3,3 km/h (1 Bft) SO 226 0 min 0 min 0,000 mm 0,0 UV-I 0 W/m 16,1 C 17,4 C 7,1 km/h (2 Bft) 92,31 %
19/07/2019 02:00 17,4 C 92 % 1014,7 hPa 0,0 mm 6,1 km/h (2 Bft) SO 225 0 min 0 min 0,000 mm 0,0 UV-I 0 W/m 16,1 C 17,4 C 7,1 km/h (2 Bft) 100,00 %
19/07/2019 01:59 17,4 C 92 % 1014,8 hPa 0,0 mm 7,0 km/h (2 Bft) O-SO 242 0 min 0 min 0,000 mm 0,0 UV-I 0 W/m 16,1 C 17,1 C 12,4 km/h (2 Bft) 100,00 %
19/07/2019 01:58 17,4 C 92 % 1014,7 hPa 0,0 mm 6,9 km/h (2 Bft) O-SO 252 0 min 0 min 0,000 mm 0,0 UV-I 0 W/m 16,1 C 17,2 C 8,9 km/h (2 Bft) 100,00 %
19/07/2019 01:57 17,4 C 92 % 1014,8 hPa 0,0 mm 6,4 km/h (2 Bft) O-SO 242 0 min 0 min 0,000 mm 0,0 UV-I 0 W/m 16,1 C 17,4 C 8,9 km/h (2 Bft) 100,00 %
19/07/2019 01:56 17,4 C 92 % 1014,7 hPa 0,0 mm 7,5 km/h (2 Bft) SO 216 0 min 0 min 0,000 mm 0,0 UV-I 0 W/m 16,1 C 16,9 C 10,6 km/h (2 Bft) 100,00 %
19/07/2019 01:55 17,4 C 92 % 1014,7 hPa 0,0 mm 4,5 km/h (1 Bft) SO 234 0 min 0 min 0,000 mm 0,0 UV-I 0 W/m 16,1 C 17,4 C 7,1 km/h (2 Bft) 100,00 %
19/07/2019 01:54 17,4 C 92 % 1014,7 hPa 0,0 mm 6,6 km/h (2 Bft) SO 232 0 min 0 min 0,000 mm 0,0 UV-I 0 W/m 16,1 C 17,3 C 8,9 km/h (2 Bft) 96,30 %
19/07/2019 01:53 17,4 C 92 % 1014,7 hPa 0,0 mm 5,4 km/h (2 Bft) O-SO 242 0 min 0 min 0,000 mm 0,0 UV-I 0 W/m 16,1 C 17,4 C 7,1 km/h (2 Bft) 100,00 %
19/07/2019 01:52 17,4 C 92 % 1014,7 hPa 0,0 mm 6,1 km/h (2 Bft) S-SO 210 0 min 0 min 0,000 mm 0,0 UV-I 0 W/m 16,1 C 17,4 C 8,9 km/h (2 Bft) 100,00 %
19/07/2019 01:51 17,4 C 92 % 1014,7 hPa 0,0 mm 7,3 km/h (2 Bft) SO 231 0 min 0 min 0,000 mm 0,0 UV-I 0 W/m 16,1 C 17,0 C 10,6 km/h (2 Bft) 100,00 %
19/07/2019 01:50 17,4 C 92 % 1014,7 hPa 0,0 mm 6,9 km/h (2 Bft) O-SO 252 0 min 0 min 0,000 mm 0,0 UV-I 0 W/m 16,1 C 17,2 C 12,4 km/h (2 Bft) 100,00 %
19/07/2019 01:49 17,4 C 92 % 1014,7 hPa 0,0 mm 6,5 km/h (2 Bft) O-SO 249 0 min 0 min 0,000 mm 0,0 UV-I 0 W/m 16,1 C 17,4 C 8,9 km/h (2 Bft) 100,00 %
19/07/2019 01:48 17,4 C 92 % 1014,7 hPa 0,0 mm 5,0 km/h (1 Bft) O-SO 238 0 min 0 min 0,000 mm 0,0 UV-I 0 W/m 16,1 C 17,4 C 7,1 km/h (2 Bft) 100,00 %
19/07/2019 01:47 17,4 C 92 % 1014,7 hPa 0,0 mm 6,5 km/h (2 Bft) S-SO 202 0 min 0 min 0,000 mm 0,0 UV-I 0 W/m 16,1 C 17,4 C 8,9 km/h (2 Bft) 100,00 %
19/07/2019 01:46 17,4 C 92 % 1014,7 hPa 0,0 mm 6,8 km/h (2 Bft) O-SO 240 0 min 0 min 0,000 mm 0,0 UV-I 0 W/m 16,1 C 17,2 C 12,4 km/h (2 Bft) 100,00 %
19/07/2019 01:45 17,4 C 92 % 1014,7 hPa 0,0 mm 7,7 km/h (2 Bft) O-SO 239 0 min 0 min 0,000 mm 0,0 UV-I 0 W/m 16,1 C 16,8 C 14,2 km/h (3 Bft) 95,83 %
19/07/2019 01:44 17,4 C 92 % 1014,8 hPa 0,0 mm 7,5 km/h (2 Bft) SO 221 0 min 0 min 0,000 mm 0,0 UV-I 0 W/m 16,1 C 16,9 C 10,6 km/h (2 Bft) 92,31 %
19/07/2019 01:43 17,4 C 92 % 1014,7 hPa 0,0 mm 7,2 km/h (2 Bft) SO 229 0 min 0 min 0,000 mm 0,0 UV-I 0 W/m 16,1 C 17,0 C 10,6 km/h (2 Bft) 100,00 %
19/07/2019 01:42 17,4 C 92 % 1014,7 hPa 0,0 mm 6,3 km/h (2 Bft) S-SO 203 0 min 0 min 0,000 mm 0,0 UV-I 0 W/m 16,1 C 17,4 C 12,4 km/h (2 Bft) 100,00 %
19/07/2019 01:41 17,4 C 92 % 1014,7 hPa 0,0 mm 8,8 km/h (2 Bft) S 188 0 min 0 min 0,000 mm 0,0 UV-I 0 W/m 16,1 C 16,3 C 14,2 km/h (3 Bft) 96,00 %
19/07/2019 01:40 17,4 C 92 % 1014,7 hPa 0,0 mm 6,9 km/h (2 Bft) SO 233 0 min 0 min 0,000 mm 0,0 UV-I 0 W/m 16,1 C 17,2 C 10,6 km/h (2 Bft) 100,00 %
19/07/2019 01:39 17,5 C 92 % 1014,6 hPa 0,0 mm 6,9 km/h (2 Bft) S-SO 213 0 min 0 min 0,000 mm 0,0 UV-I 0 W/m 16,2 C 17,3 C 10,6 km/h (2 Bft) 100,00 %
19/07/2019 01:38 17,4 C 92 % 1014,7 hPa 0,0 mm 5,8 km/h (2 Bft) SO 217 0 min 0 min 0,000 mm 0,0 UV-I 0 W/m 16,1 C 17,4 C 8,9 km/h (2 Bft) 91,67 %
19/07/2019 01:37 17,4 C 92 % 1014,6 hPa 0,0 mm 6,6 km/h (2 Bft) SO 229 0 min 0 min 0,000 mm 0,0 UV-I 0 W/m 16,1 C 17,3 C 8,9 km/h (2 Bft) 96,30 %
19/07/2019 01:36 17,5 C 92 % 1014,7 hPa 0,0 mm 6,5 km/h (2 Bft) O-SO 239 0 min 0 min 0,000 mm 0,0 UV-I 0 W/m 16,2 C 17,5 C 8,9 km/h (2 Bft) 91,67 %
19/07/2019 01:35 17,5 C 92 % 1014,6 hPa 0,0 mm 4,9 km/h (1 Bft) O-SO 237 0 min 0 min 0,000 mm 0,0 UV-I 0 W/m 16,2 C 17,5 C 8,9 km/h (2 Bft) 100,00 %
19/07/2019 01:34 17,5 C 92 % 1014,6 hPa 0,0 mm 6,0 km/h (2 Bft) SO 228 0 min 0 min 0,000 mm 0,0 UV-I 0 W/m 16,2 C 17,5 C 10,6 km/h (2 Bft) 96,00 %
19/07/2019 01:33 17,5 C 92 % 1014,6 hPa 0,0 mm 4,1 km/h (1 Bft) SO 231 0 min 0 min 0,000 mm 0,0 UV-I 0 W/m 16,2 C 17,5 C 7,1 km/h (2 Bft) 95,83 %
19/07/2019 01:32 17,5 C 92 % 1014,6 hPa 0,0 mm 6,8 km/h (2 Bft) SO 229 0 min 0 min 0,000 mm 0,0 UV-I 0 W/m 16,2 C 17,3 C 8,9 km/h (2 Bft) 84,62 %
19/07/2019 01:31 17,5 C 92 % 1014,6 hPa 0,0 mm 5,2 km/h (1 Bft) S-SE 164 0 min 0 min 0,000 mm 0,0 UV-I 0 W/m 16,2 C 17,5 C 8,9 km/h (2 Bft) 100,00 %
19/07/2019 01:30 17,5 C 92 % 1014,6 hPa 0,0 mm 6,5 km/h (2 Bft) SO 225 0 min 0 min 0,000 mm 0,0 UV-I 0 W/m 16,2 C 17,5 C 10,6 km/h (2 Bft) 100,00 %
19/07/2019 01:29 17,5 C 92 % 1014,6 hPa 0,0 mm 2,9 km/h (1 Bft) SO 223 0 min 0 min 0,000 mm 0,0 UV-I 0 W/m 16,2 C 17,5 C 3,5 km/h (1 Bft) 100,00 %
19/07/2019 01:28 17,5 C 92 % 1014,6 hPa 0,0 mm 4,4 km/h (1 Bft) SO 223 0 min 0 min 0,000 mm 0,0 UV-I 0 W/m 16,2 C 17,5 C 7,1 km/h (2 Bft) 100,00 %
19/07/2019 01:27 17,5 C 92 % 1014,6 hPa 0,0 mm 2,2 km/h (1 Bft) S-SO 211 0 min 0 min 0,000 mm 0,0 UV-I 0 W/m 16,2 C 17,5 C 3,5 km/h (1 Bft) 100,00 %
19/07/2019 01:26 17,5 C 93 % 1014,6 hPa 0,0 mm 3,8 km/h (1 Bft) S-SO 211 0 min 0 min 0,000 mm 0,0 UV-I 0 W/m 16,4 C 17,5 C 7,1 km/h (2 Bft) 100,00 %
19/07/2019 01:25 17,5 C 92 % 1014,6 hPa 0,0 mm 2,4 km/h (1 Bft) S-SO 211 0 min 0 min 0,000 mm 0,0 UV-I 0 W/m 16,2 C 17,5 C 5,3 km/h (1 Bft) 100,00 %
19/07/2019 01:24 17,5 C 92 % 1014,6 hPa 0,0 mm 6,2 km/h (2 Bft) S-SO 211 0 min 0 min 0,000 mm 0,0 UV-I 0 W/m 16,2 C 17,5 C 10,6 km/h (2 Bft) 100,00 %
19/07/2019 01:23 17,6 C 93 % 1014,6 hPa 0,0 mm 4,6 km/h (1 Bft) SO 214 0 min 0 min 0,000 mm 0,0 UV-I 0 W/m 16,5 C 17,6 C 7,1 km/h (2 Bft) 100,00 %
19/07/2019 01:22 17,5 C 93 % 1014,6 hPa 0,0 mm 4,6 km/h (1 Bft) SO 225 0 min 0 min 0,000 mm 0,0 UV-I 0 W/m 16,4 C 17,5 C 7,1 km/h (2 Bft) 97,96 %
19/07/2019 01:20 17,5 C 93 % 1014,6 hPa 0,0 mm 5,9 km/h (2 Bft) SO 222 0 min 0 min 0,000 mm 0,0 UV-I 0 W/m 16,4 C 17,5 C 8,9 km/h (2 Bft) 100,00 %
19/07/2019 01:19 17,5 C 93 % 1014,6 hPa 0,0 mm 6,4 km/h (2 Bft) S-SO 205 0 min 0 min 0,000 mm 0,0 UV-I 0 W/m 16,4 C 17,5 C 8,9 km/h (2 Bft) 100,00 %
19/07/2019 01:18 17,5 C 93 % 1014,6 hPa 0,0 mm 4,7 km/h (1 Bft) SO 216 0 min 0 min 0,000 mm 0,0 UV-I 0 W/m 16,4 C 17,5 C 8,9 km/h (2 Bft) 100,00 %
19/07/2019 01:17 17,5 C 93 % 1014,5 hPa 0,0 mm 3,7 km/h (1 Bft) SO 214 0 min 0 min 0,000 mm 0,0 UV-I 0 W/m 16,4 C 17,5 C 5,3 km/h (1 Bft) 93,55 %
19/07/2019 01:16 17,5 C 93 % 1014,6 hPa 0,0 mm 3,9 km/h (1 Bft) S-SO 213 0 min 0 min 0,000 mm 0,0 UV-I 0 W/m 16,4 C 17,5 C 5,3 km/h (1 Bft) 100,00 %
19/07/2019 01:15 17,6 C 93 % 1014,5 hPa 0,0 mm 3,6 km/h (1 Bft) S-SO 213 0 min 0 min 0,000 mm 0,0 UV-I 0 W/m 16,5 C 17,6 C 5,3 km/h (1 Bft) 100,00 %
19/07/2019 01:14 17,6 C 93 % 1014,5 hPa 0,0 mm 4,0 km/h (1 Bft) SO 214 0 min 0 min 0,000 mm 0,0 UV-I 0 W/m 16,5 C 17,6 C 7,1 km/h (2 Bft) 100,00 %
19/07/2019 01:13 17,6 C 93 % 1014,5 hPa 0,0 mm 5,8 km/h (2 Bft) S-SO 209 0 min 0 min 0,000 mm 0,0 UV-I 0 W/m 16,5 C 17,6 C 8,9 km/h (2 Bft) 100,00 %
19/07/2019 01:12 17,6 C 93 % 1014,5 hPa 0,0 mm 4,1 km/h (1 Bft) S-SO 203 0 min 0 min 0,000 mm 0,0 UV-I 0 W/m 16,5 C 17,6 C 5,3 km/h (1 Bft) 93,33 %
19/07/2019 01:11 17,5 C 93 % 1014,5 hPa 0,0 mm 6,4 km/h (2 Bft) SO 219 0 min 0 min 0,000 mm 0,0 UV-I 0 W/m 16,4 C 17,5 C 8,9 km/h (2 Bft) 94,12 %
19/07/2019 01:10 17,6 C 93 % 1014,5 hPa 0,0 mm 2,9 km/h (1 Bft) SO 236 0 min 0 min 0,000 mm 0,0 UV-I 0 W/m 16,5 C 17,6 C 5,3 km/h (1 Bft) 100,00 %
19/07/2019 01:09 17,6 C 93 % 1014,5 hPa 0,0 mm 2,7 km/h (1 Bft) O-SO 238 0 min 0 min 0,000 mm 0,0 UV-I 0 W/m 16,5 C 17,6 C 3,5 km/h (1 Bft) 87,50 %
19/07/2019 01:08 17,6 C 93 % 1014,5 hPa 0,0 mm 3,2 km/h (1 Bft) O-SO 238 0 min 0 min 0,000 mm 0,0 UV-I 0 W/m 16,5 C 17,6 C 3,5 km/h (1 Bft) 96,67 %
19/07/2019 01:07 17,6 C 93 % 1014,5 hPa 0,0 mm 4,2 km/h (1 Bft) O-SO 238 0 min 0 min 0,000 mm 0,0 UV-I 0 W/m 16,5 C 17,6 C 5,3 km/h (1 Bft) 93,33 %
19/07/2019 01:06 17,6 C 93 % 1014,5 hPa 0,0 mm 2,9 km/h (1 Bft) O-SO 238 0 min 0 min 0,000 mm 0,0 UV-I 0 W/m 16,5 C 17,6 C 5,3 km/h (1 Bft) 100,00 %
19/07/2019 01:05 17,6 C 93 % 1014,5 hPa 0,0 mm 5,0 km/h (1 Bft) O-SO 238 0 min 0 min 0,000 mm 0,0 UV-I 0 W/m 16,5 C 17,6 C 8,9 km/h (2 Bft) 92,59 %
19/07/2019 01:04 17,5 C 93 % 1014,5 hPa 0,0 mm 3,4 km/h (1 Bft) SO 219 0 min 0 min 0,000 mm 0,0 UV-I 0 W/m 16,4 C 17,5 C 5,3 km/h (1 Bft) 100,00 %
19/07/2019 01:03 17,6 C 93 % 1014,5 hPa 0,0 mm 3,2 km/h (1 Bft) SO 219 0 min 0 min 0,000 mm 0,0 UV-I 0 W/m 16,5 C 17,6 C 5,3 km/h (1 Bft) 96,00 %
19/07/2019 01:02 17,6 C 93 % 1014,4 hPa 0,0 mm 4,0 km/h (1 Bft) SO 219 0 min 0 min 0,000 mm 0,0 UV-I 0 W/m 16,5 C 17,6 C 5,3 km/h (1 Bft) 100,00 %
19/07/2019 01:01 17,6 C 92 % 1014,4 hPa 0,0 mm 4,1 km/h (1 Bft) SO 218 0 min 0 min 0,000 mm 0,0 UV-I 0 W/m 16,3 C 17,6 C 7,1 km/h (2 Bft) 96,43 %
19/07/2019 01:00 17,6 C 92 % 1014,4 hPa 0,0 mm 2,4 km/h (1 Bft) SO 223 0 min 0 min 0,000 mm 0,0 UV-I 0 W/m 16,3 C 17,6 C 3,5 km/h (1 Bft) 100,00 %
19/07/2019 00:59 17,6 C 92 % 1014,4 hPa 0,0 mm 5,0 km/h (1 Bft) SO 223 0 min 0 min 0,000 mm 0,0 UV-I 0 W/m 16,3 C 17,6 C 8,9 km/h (2 Bft) 93,75 %
19/07/2019 00:58 17,6 C 92 % 1014,4 hPa 0,0 mm 4,6 km/h (1 Bft) SO 217 0 min 0 min 0,000 mm 0,0 UV-I 0 W/m 16,3 C 17,6 C 10,6 km/h (2 Bft) 100,00 %
19/07/2019 00:57 17,6 C 92 % 1014,4 hPa 0,0 mm 4,8 km/h (1 Bft) SO 235 0 min 0 min 0,000 mm 0,0 UV-I 0 W/m 16,3 C 17,6 C 7,1 km/h (2 Bft) 95,83 %
19/07/2019 00:56 17,6 C 92 % 1014,4 hPa 0,0 mm 3,7 km/h (1 Bft) O-SO 237 0 min 0 min 0,000 mm 0,0 UV-I 0 W/m 16,3 C 17,6 C 7,1 km/h (2 Bft) 100,00 %
19/07/2019 00:55 17,6 C 92 % 1014,5 hPa 0,0 mm 3,0 km/h (1 Bft) O-SO 239 0 min 0 min 0,000 mm 0,0 UV-I 0 W/m 16,3 C 17,6 C 5,3 km/h (1 Bft) 96,67 %
19/07/2019 00:54 17,6 C 92 % 1014,4 hPa 0,0 mm 2,0 km/h (1 Bft) O-SO 239 0 min 0 min 0,000 mm 0,0 UV-I 0 W/m 16,3 C 17,6 C 3,5 km/h (1 Bft) 93,75 %
19/07/2019 00:53 17,6 C 92 % 1014,4 hPa 0,0 mm 1,9 km/h (1 Bft) O-SO 239 0 min 0 min 0,000 mm 0,0 UV-I 0 W/m 16,3 C 17,6 C 3,5 km/h (1 Bft) 100,00 %
19/07/2019 00:52 17,6 C 92 % 1014,4 hPa 0,0 mm 3,2 km/h (1 Bft) O-SO 239 0 min 0 min 0,000 mm 0,0 UV-I 0 W/m 16,3 C 17,6 C 5,3 km/h (1 Bft) 93,75 %
19/07/2019 00:51 17,6 C 92 % 1014,4 hPa 0,0 mm 3,2 km/h (1 Bft) O-SO 239 0 min 0 min 0,000 mm 0,0 UV-I 0 W/m 16,3 C 17,6 C 5,3 km/h (1 Bft) 100,00 %
19/07/2019 00:50 17,6 C 92 % 1014,4 hPa 0,0 mm 1,6 km/h (1 Bft) O-SO 239 0 min 0 min 0,000 mm 0,0 UV-I 0 W/m 16,3 C 17,6 C 3,5 km/h (1 Bft) 96,30 %
19/07/2019 00:49 17,6 C 92 % 1014,4 hPa 0,0 mm 2,3 km/h (1 Bft) O-SO 239 0 min 0 min 0,000 mm 0,0 UV-I 0 W/m 16,3 C 17,6 C 3,5 km/h (1 Bft) 96,30 %
19/07/2019 00:48 17,6 C 92 % 1014,4 hPa 0,0 mm 3,0 km/h (1 Bft) O-SO 239 0 min 0 min 0,000 mm 0,0 UV-I 0 W/m 16,3 C 17,6 C 8,9 km/h (2 Bft) 100,00 %
19/07/2019 00:47 17,6 C 92 % 1014,4 hPa 0,0 mm 2,9 km/h (1 Bft) O-SO 239 0 min 0 min 0,000 mm 0,0 UV-I 0 W/m 16,3 C 17,6 C 7,1 km/h (2 Bft) 96,00 %
19/07/2019 00:46 17,6 C 92 % 1014,4 hPa 0,0 mm 3,7 km/h (1 Bft) SO 234 0 min 0 min 0,000 mm 0,0 UV-I 0 W/m 16,3 C 17,6 C 5,3 km/h (1 Bft) 100,00 %
19/07/2019 00:45 17,6 C 92 % 1014,4 hPa 0,0 mm 4,7 km/h (1 Bft) SO 234 0 min 0 min 0,000 mm 0,0 UV-I 0 W/m 16,3 C 17,6 C 8,9 km/h (2 Bft) 95,83 %
19/07/2019 00:44 17,6 C 92 % 1014,4 hPa 0,0 mm 5,0 km/h (1 Bft) O-SO 238 0 min 0 min 0,000 mm 0,0 UV-I 0 W/m 16,3 C 17,6 C 8,9 km/h (2 Bft) 100,00 %
19/07/2019 00:43 17,6 C 92 % 1014,4 hPa 0,0 mm 5,5 km/h (2 Bft) O-SO 253 0 min 0 min 0,000 mm 0,0 UV-I 0 W/m 16,3 C 17,6 C 8,9 km/h (2 Bft) 95,65 %
19/07/2019 00:42 17,6 C 92 % 1014,3 hPa 0,0 mm 4,1 km/h (1 Bft) O-SO 238 0 min 0 min 0,000 mm 0,0 UV-I 0 W/m 16,3 C 17,6 C 7,1 km/h (2 Bft) 96,00 %
19/07/2019 00:41 17,6 C 92 % 1014,3 hPa 0,0 mm 3,2 km/h (1 Bft) O-SO 239 0 min 0 min 0,000 mm 0,0 UV-I 0 W/m 16,3 C 17,6 C 5,3 km/h (1 Bft) 92,59 %
19/07/2019 00:40 17,6 C 92 % 1014,3 hPa 0,0 mm 3,7 km/h (1 Bft) O-SO 239 0 min 0 min 0,000 mm 0,0 UV-I 0 W/m 16,3 C 17,6 C 7,1 km/h (2 Bft) 92,59 %
19/07/2019 00:39 17,6 C 92 % 1014,3 hPa 0,0 mm 2,9 km/h (1 Bft) SO 225 0 min 0 min 0,000 mm 0,0 UV-I 0 W/m 16,3 C 17,6 C 3,5 km/h (1 Bft) 91,67 %
19/07/2019 00:38 17,6 C 92 % 1014,3 hPa 0,0 mm 4,6 km/h (1 Bft) SO 225 0 min 0 min 0,000 mm 0,0 UV-I 0 W/m 16,3 C 17,6 C 7,1 km/h (2 Bft) 96,30 %
19/07/2019 00:37 17,6 C 92 % 1014,3 hPa 0,0 mm 4,8 km/h (1 Bft) SO 236 0 min 0 min 0,000 mm 0,0 UV-I 0 W/m 16,3 C 17,6 C 7,1 km/h (2 Bft) 96,43 %
19/07/2019 00:36 17,6 C 92 % 1014,3 hPa 0,0 mm 5,5 km/h (2 Bft) SO 235 0 min 0 min 0,000 mm 0,0 UV-I 0 W/m 16,3 C 17,6 C 8,9 km/h (2 Bft) 93,33 %
19/07/2019 00:35 17,6 C 92 % 1014,3 hPa 0,0 mm 5,4 km/h (2 Bft) SO 232 0 min 0 min 0,000 mm 0,0 UV-I 0 W/m 16,3 C 17,6 C 8,9 km/h (2 Bft) 100,00 %
19/07/2019 00:34 17,6 C 92 % 1014,3 hPa 0,0 mm 4,8 km/h (1 Bft) SO 233 0 min 0 min 0,000 mm 0,0 UV-I 0 W/m 16,3 C 17,6 C 7,1 km/h (2 Bft) 94,44 %
19/07/2019 00:33 17,6 C 92 % 1014,2 hPa 0,0 mm 4,8 km/h (1 Bft) SO 229 0 min 0 min 0,000 mm 0,0 UV-I 0 W/m 16,3 C 17,6 C 7,1 km/h (2 Bft) 97,50 %
19/07/2019 00:32 17,6 C 92 % 1014,2 hPa 0,0 mm 1,9 km/h (1 Bft) SO 219 0 min 0 min 0,000 mm 0,0 UV-I 0 W/m 16,3 C 17,6 C 3,5 km/h (1 Bft) 91,67 %
19/07/2019 00:31 17,6 C 92 % 1014,2 hPa 0,0 mm 1,4 km/h (1 Bft) SO 219 0 min 0 min 0,000 mm 0,0 UV-I 0 W/m 16,3 C 17,6 C 5,3 km/h (1 Bft) 96,30 %
19/07/2019 00:30 17,6 C 92 % 1014,2 hPa 0,0 mm 3,0 km/h (1 Bft) SO 219 0 min 0 min 0,000 mm 0,0 UV-I 0 W/m 16,3 C 17,6 C 5,3 km/h (1 Bft) 100,00 %
19/07/2019 00:29 17,6 C 92 % 1014,2 hPa 0,0 mm 2,3 km/h (1 Bft) SO 219 0 min 0 min 0,000 mm 0,0 UV-I 0 W/m 16,3 C 17,6 C 5,3 km/h (1 Bft) 100,00 %
19/07/2019 00:28 17,6 C 92 % 1014,2 hPa 0,0 mm 4,5 km/h (1 Bft) SO 219 0 min 0 min 0,000 mm 0,0 UV-I 0 W/m 16,3 C 17,6 C 8,9 km/h (2 Bft) 96,00 %
19/07/2019 00:27 17,6 C 92 % 1014,2 hPa 0,0 mm 4,2 km/h (1 Bft) SO 217 0 min 0 min 0,000 mm 0,0 UV-I 0 W/m 16,3 C 17,6 C 7,1 km/h (2 Bft) 96,30 %
19/07/2019 00:26 17,6 C 92 % 1014,2 hPa 0,0 mm 4,3 km/h (1 Bft) S-SO 206 0 min 0 min 0,000 mm 0,0 UV-I 0 W/m 16,3 C 17,6 C 7,1 km/h (2 Bft) 100,00 %
19/07/2019 00:25 17,6 C 92 % 1014,2 hPa 0,0 mm 3,8 km/h (1 Bft) S 185 0 min 0 min 0,000 mm 0,0 UV-I 0 W/m 16,3 C 17,6 C 5,3 km/h (1 Bft) 100,00 %
19/07/2019 00:24 17,6 C 92 % 1014,3 hPa 0,0 mm 4,5 km/h (1 Bft) S 188 0 min 0 min 0,000 mm 0,0 UV-I 0 W/m 16,3 C 17,6 C 7,1 km/h (2 Bft) 100,00 %
19/07/2019 00:23 17,6 C 92 % 1014,2 hPa 0,0 mm 3,3 km/h (1 Bft) S-SO 210 0 min 0 min 0,000 mm 0,0 UV-I 0 W/m 16,3 C 17,6 C 7,1 km/h (2 Bft) 96,00 %
19/07/2019 00:22 17,6 C 92 % 1014,2 hPa 0,0 mm 4,6 km/h (1 Bft) S-SO 209 0 min 0 min 0,000 mm 0,0 UV-I 0 W/m 16,3 C 17,6 C 7,1 km/h (2 Bft) 100,00 %
19/07/2019 00:21 17,6 C 92 % 1014,2 hPa 0,0 mm 5,8 km/h (2 Bft) S-SO 198 0 min 0 min 0,000 mm 0,0 UV-I 0 W/m 16,3 C 17,6 C 7,1 km/h (2 Bft) 100,00 %
19/07/2019 00:20 17,6 C 92 % 1014,2 hPa 0,0 mm 4,3 km/h (1 Bft) S-SO 211 0 min 0 min 0,000 mm 0,0 UV-I 0 W/m 16,3 C 17,6 C 7,1 km/h (2 Bft) 100,00 %
19/07/2019 00:19 17,6 C 92 % 1014,3 hPa 0,0 mm 2,9 km/h (1 Bft) SO 223 0 min 0 min 0,000 mm 0,0 UV-I 0 W/m 16,3 C 17,6 C 7,1 km/h (2 Bft) 100,00 %
19/07/2019 00:18 17,6 C 92 % 1014,3 hPa 0,0 mm 3,7 km/h (1 Bft) SO 223 0 min 0 min 0,000 mm 0,0 UV-I 0 W/m 16,3 C 17,6 C 5,3 km/h (1 Bft) 100,00 %
19/07/2019 00:17 17,6 C 92 % 1014,3 hPa 0,0 mm 5,5 km/h (2 Bft) SO 215 0 min 0 min 0,000 mm 0,0 UV-I 0 W/m 16,3 C 17,6 C 8,9 km/h (2 Bft) 100,00 %
19/07/2019 00:16 17,6 C 92 % 1014,3 hPa 0,0 mm 5,5 km/h (2 Bft) S-SO 201 0 min 0 min 0,000 mm 0,0 UV-I 0 W/m 16,3 C 17,6 C 7,1 km/h (2 Bft) 100,00 %
19/07/2019 00:15 17,6 C 92 % 1014,2 hPa 0,0 mm 5,5 km/h (2 Bft) S-SO 201 0 min 0 min 0,000 mm 0,0 UV-I 0 W/m 16,3 C 17,6 C 7,1 km/h (2 Bft) 94,44 %
19/07/2019 00:14 17,6 C 92 % 1014,3 hPa 0,0 mm 5,8 km/h (2 Bft) S-SO 198 0 min 0 min 0,000 mm 0,0 UV-I 0 W/m 16,3 C 17,6 C 8,9 km/h (2 Bft) 93,94 %
19/07/2019 00:13 17,6 C 92 % 1014,3 hPa 0,0 mm 5,5 km/h (2 Bft) S-SO 205 0 min 0 min 0,000 mm 0,0 UV-I 0 W/m 16,3 C 17,6 C 7,1 km/h (2 Bft) 93,33 %
19/07/2019 00:12 17,6 C 92 % 1014,3 hPa 0,0 mm 6,3 km/h (2 Bft) S-SO 198 0 min 0 min 0,000 mm 0,0 UV-I 0 W/m 16,3 C 17,6 C 8,9 km/h (2 Bft) 96,15 %
19/07/2019 00:11 17,6 C 92 % 1014,3 hPa 0,0 mm 4,6 km/h (1 Bft) SO 230 0 min 0 min 0,000 mm 0,0 UV-I 0 W/m 16,3 C 17,6 C 7,1 km/h (2 Bft) 100,00 %
19/07/2019 00:10 17,6 C 92 % 1014,3 hPa 0,0 mm 5,2 km/h (1 Bft) S 191 0 min 0 min 0,000 mm 0,0 UV-I 0 W/m 16,3 C 17,6 C 7,1 km/h (2 Bft) 95,83 %
19/07/2019 00:09 17,6 C 92 % 1014,3 hPa 0,0 mm 5,1 km/h (1 Bft) S-SO 212 0 min 0 min 0,000 mm 0,0 UV-I 0 W/m 16,3 C 17,6 C 8,9 km/h (2 Bft) 95,83 %
19/07/2019 00:08 17,6 C 92 % 1014,3 hPa 0,0 mm 3,7 km/h (1 Bft) O-SO 244 0 min 0 min 0,000 mm 0,0 UV-I 0 W/m 16,3 C 17,6 C 8,9 km/h (2 Bft) 100,00 %
19/07/2019 00:07 17,6 C 92 % 1014,3 hPa 0,0 mm 4,3 km/h (1 Bft) SO 223 0 min 0 min 0,000 mm 0,0 UV-I 0 W/m 16,3 C 17,6 C 7,1 km/h (2 Bft) 100,00 %
19/07/2019 00:06 17,6 C 92 % 1014,3 hPa 0,0 mm 4,9 km/h (1 Bft) S-SO 197 0 min 0 min 0,000 mm 0,0 UV-I 0 W/m 16,3 C 17,6 C 8,9 km/h (2 Bft) 100,00 %
19/07/2019 00:05 17,6 C 92 % 1014,3 hPa 0,0 mm 3,6 km/h (1 Bft) SO 227 0 min 0 min 0,000 mm 0,0 UV-I 0 W/m 16,3 C 17,6 C 7,1 km/h (2 Bft) 97,30 %
19/07/2019 00:03 17,6 C 92 % 1014,3 hPa 0,0 mm 4,8 km/h (1 Bft) SO 229 0 min 0 min 0,000 mm 0,0 UV-I 0 W/m 16,3 C 17,6 C 8,9 km/h (2 Bft) 100,00 %
19/07/2019 00:02 17,6 C 92 % 1014,3 hPa 0,0 mm 5,6 km/h (2 Bft) S-SO 211 0 min 0 min 0,000 mm 0,0 UV-I 0 W/m 16,3 C 17,6 C 10,6 km/h (2 Bft) 100,00 %
19/07/2019 00:01 17,6 C 92 % 1014,3 hPa 0,0 mm 5,0 km/h (1 Bft) S-SO 202 0 min 0 min 0,000 mm 0,0 UV-I 0 W/m 16,3 C 17,6 C 7,1 km/h (2 Bft) 100,00 %
19/07/2019 00:00 17,6 C 92 % 1014,3 hPa 0,0 mm 4,7 km/h (1 Bft) SO 217 0 min 0 min 0,000 mm 0,0 UV-I 0 W/m 16,3 C 17,6 C 7,1 km/h (2 Bft) 100,00 %
_ Min-Heure 06:38 15:01 18:42 - 06:35 - - - - - - - 06:38 06:38 06:35 11:00
Minimum _ 14,7 C 49 % 1012,5 hPa - 0,0 km/h (0 Bft) - - - - - - - 13,6 C 14,7 C 0,0 km/h (0 Bft) 83,33 %
_ Max-Heure 15:13 01:02 09:17 00:00 14:39 - - 10:46 00:00 15:00 13:38 13:38 12:40 15:25 14:33 00:00
Maximum _ 26,9 C 93 % 1015,9 hPa 0,0 mm 19,3 km/h
O-SO (3 Bft)
- - 2 min 0 min 0,584 mm 5,5 UV-I 1048 W/m 17,1 C 26,9 C 28,3 km/h
O-SO (5 Bft)
100,00 %
Moyenne _ 20,4 C 78 % 1014,7 hPa #0,0 mm 5,9 km/h (2 Bft) O-SO - #6:42 h #0 min. #3,404 mm 2,7 UV-I 413 W/m 15,8 C 20,2 C 9,6 km/h (2 Bft) 97,71 %
Grandfresnoy - Oise - Picardie